GFSWCAN_925_rhum_000.txt.gz
RH
94 93 91 91 87 89 90 91 91 92 92 92 93 96 100 100 93 90 84 76 82 91 85 72 63 59 65 65 74 65 67 62 66 72 78 80 79 70 64 66 75 75 88 84 84 82 81 49 48 54 59 59 56 56
99 98 95 93 89 91 90 91 92 91 93 95 96 94 99 99 97 93 89 72 79 92 89 84 74 68 58 63 72 70 72 68 67 82 83 83 79 78 76 75 58 69 72 80 74 73 57 55 55 52 54 55 52 50
100 98 96 93 91 93 94 94 93 94 95 95 97 94 94 93 99 96 89 78 80 94 93 89 86 72 61 56 56 74 73 64 73 76 86 85 76 82 84 81 67 59 61 70 62 58 68 57 54 54 55 56 56 54
100 98 97 93 92 93 94 97 96 96 92 92 94 96 92 97 99 96 92 89 82 92 96 95 72 76 72 66 57 55 61 67 73 80 88 85 82 78 86 79 80 69 66 74 79 67 58 66 59 61 62 58 59 60
100 98 97 94 92 93 95 95 98 95 90 88 90 97 100 99 99 97 92 92 90 87 96 98 80 75 72 72 61 56 62 70 76 83 88 90 92 86 93 94 98 85 76 81 83 68 66 66 56 59 62 63 66 67
100 99 97 94 93 93 93 95 97 94 88 85 85 87 97 99 99 96 98 89 91 90 88 97 85 81 81 78 78 79 79 83 87 89 93 92 83 82 96 84 74 77 71 65 69 63 61 59 67 64 64 67 70 76
99 100 96 94 94 92 93 95 96 92 91 85 83 79 81 100 97 97 96 99 97 86 94 100 99 82 77 82 90 90 86 94 89 94 95 91 86 88 98 92 76 72 70 56 60 62 64 68 69 76 83 98 96 92
100 100 100 94 94 92 91 92 93 91 88 83 81 80 100 97 93 96 100 100 98 90 92 100 100 91 77 96 98 92 98 92 95 98 95 94 94 94 98 84 70 67 62 73 77 74 70 77 88 96 90 88 89 90
100 100 100 100 98 94 92 91 92 90 86 85 85 92 93 84 94 97 100 99 89 86 100 99 99 100 83 95 94 92 90 97 98 98 95 92 98 98 85 80 77 76 65 72 88 92 99 97 96 93 88 84 93 92
99 98 100 100 100 98 94 90 90 88 87 90 99 90 100 100 97 91 81 91 99 99 98 99 90 99 88 93 98 92 90 99 100 95 92 99 98 83 82 80 76 71 70 88 80 80 96 98 95 98 90 89 96 89
98 97 95 96 100 100 97 94 89 88 97 96 98 100 100 96 84 91 99 98 98 100 98 98 92 97 86 94 97 87 96 99 96 91 90 92 96 86 74 80 84 90 85 84 71 78 82 84 88 89 91 91 89 78
99 98 98 98 94 99 100 98 95 99 98 84 90 93 92 92 99 91 93 94 99 84 99 98 97 93 99 90 92 94 89 95 90 91 91 91 84 76 65 68 72 75 73 75 79 74 76 81 84 89 91 89 76 44
99 98 98 97 98 96 100 99 100 98 88 80 89 100 92 99 99 93 99 87 98 98 100 100 100 95 99 95 95 98 95 96 91 97 90 89 83 80 76 61 60 65 67 67 61 59 62 78 83 86 80 62 46 42
98 99 99 98 96 97 97 100 100 96 92 98 100 99 96 99 93 93 90 92 95 99 99 97 98 96 96 98 97 95 98 88 97 100 92 84 85 70 69 67 59 51 69 70 70 61 49 54 65 60 58 49 43 40
100 98 98 98 98 97 97 98 100 100 95 99 96 91 98 91 98 98 99 98 100 95 90 92 96 88 98 97 91 97 98 97 87 87 88 90 86 86 67 59 59 59 61 68 72 73 64 50 44 41 38 37 37 39
96 98 91 93 97 97 98 96 99 99 100 100 98 98 97 95 100 100 100 99 99 94 92 93 91 97 96 95 96 94 90 90 87 92 91 94 72 69 62 57 57 59 65 69 71 76 73 60 51 46 39 42 43 45
96 97 85 86 91 98 99 100 98 100 100 100 99 95 98 96 97 98 95 98 92 93 100 91 92 82 93 94 100 94 91 91 90 90 95 90 82 76 69 69 64 58 64 68 72 76 82 68 52 48 55 46 47 51
98 87 83 89 86 98 100 100 100 100 99 99 98 100 94 91 93 97 98 96 93 99 97 97 90 100 94 93 95 88 90 96 94 92 93 86 83 83 80 80 65 59 60 62 67 77 85 66 64 60 53 54 55 55
92 85 96 94 99 98 100 100 100 99 99 99 99 100 97 95 92 92 97 95 95 94 95 98 97 95 95 92 86 93 96 94 68 70 76 73 75 79 77 71 70 67 68 78 84 87 82 70 61 59 61 62 62 58
89 95 99 98 100 99 100 100 100 99 98 99 96 98 99 99 98 97 97 96 97 98 98 98 95 92 85 80 92 92 91 82 82 82 83 84 73 70 74 76 74 70 76 84 81 79 75 74 71 64 60 59 61 64
93 96 100 100 100 99 100 99 99 99 99 98 99 98 98 98 98 99 100 99 97 96 98 96 93 83 89 86 73 76 78 84 86 88 84 91 78 72 78 78 76 81 84 86 86 83 72 70 65 61 60 60 63 68
94 100 100 100 100 100 99 100 98 98 95 98 98 96 98 99 99 98 99 99 99 93 93 90 94 92 88 77 76 74 72 70 73 75 73 75 79 93 96 84 85 99 95 82 76 79 70 63 62 65 68 71 73 64
97 98 99 100 98 97 98 99 96 97 96 97 97 96 98 99 98 98 99 98 95 91 96 96 90 83 84 78 67 63 59 62 76 79 81 87 89 89 90 93 91 89 98 89 77 68 69 73 76 75 70 66 68 68
84 90 91 97 97 97 93 97 97 96 96 96 96 96 96 97 97 97 98 96 94 94 93 94 96 94 92 88 89 87 86 80 82 90 92 94 100 98 96 96 98 97 94 78 71 72 71 75 76 68 74 80 82 87
90 94 88 95 90 88 87 96 97 94 95 95 95 100 98 95 98 100 98 92 93 95 93 90 96 98 99 100 87 77 90 98 97 99 99 97 96 96 96 91 87 81 73 70 77 75 76 73 78 84 86 87 91 93
96 96 87 97 93 95 88 93 93 94 96 100 97 95 97 96 100 89 91 95 98 97 98 100 100 99 91 80 80 90 95 94 99 94 97 97 96 94 95 92 91 84 74 66 68 74 80 87 91 90 91 91 92 94
100 100 96 76 89 90 95 87 85 95 100 97 97 98 97 98 98 85 98 96 96 95 96 99 100 100 100 89 87 96 96 99 96 95 96 96 96 91 77 79 87 77 76 73 75 83 91 92 90 95 96 91 88 85
88 84 92 96 96 97 96 99 100 99 94 89 86 100 91 85 82 96 97 96 97 98 98 97 98 98 96 97 98 96 98 97 94 89 82 83 84 79 74 74 78 87 85 92 95 92 88 89 99 96 97 90 73 63
98 95 92 92 100 98 96 92 91 91 82 92 90 91 91 94 100 100 98 93 94 98 100 97 100 99 98 98 98 97 95 94 93 93 87 88 85 90 83 81 81 78 72 67 78 94 94 95 97 96 85 75 70 66
97 96 97 100 99 100 95 92 95 100 96 90 86 96 96 98 100 98 94 93 98 98 98 92 97 95 96 94 98 96 95 95 93 85 90 89 84 85 86 80 75 74 76 75 67 66 76 79 68 67 70 71 72 82
98 98 99 99 96 96 96 96 96 88 94 98 94 94 96 100 100 98 95 97 98 98 98 98 98 96 95 96 94 95 96 95 86 74 68 71 78 84 81 79 79 82 83 77 72 72 74 76 80 80 80 82 78 82
96 89 97 100 100 98 98 98 98 98 98 97 98 98 97 96 95 97 96 98 98 97 93 96 95 96 96 96 95 95 95 95 93 85 89 91 91 89 85 85 84 88 88 77 76 77 81 85 86 86 88 87 83 82
96 96 98 98 100 100 98 95 97 97 97 99 98 98 97 94 95 98 97 98 96 96 96 96 96 96 96 96 95 96 95 95 96 96 97 97 97 97 90 87 92 97 94 94 90 86 90 92 89 86 86 83 83 81

GFSWCAN_925_rhum_003.txt.gz
RH
99 95 82 100 94 87 84 90 90 92 88 90 90 91 94 99 94 89 80 80 83 88 85 78 66 60 66 66 70 61 63 61 68 74 79 81 77 68 69 70 67 66 78 77 84 79 71 53 51 60 63 64 60 57
100 92 80 100 96 90 88 89 91 90 92 91 91 92 96 100 95 89 84 75 83 89 86 86 80 71 62 60 71 69 71 66 69 85 84 85 81 79 75 75 67 73 68 72 70 70 62 56 57 58 58 60 56 51
100 99 94 100 97 92 90 91 91 91 92 91 92 92 94 98 97 90 82 80 80 94 92 88 89 74 65 62 58 76 78 67 80 74 86 84 72 83 82 79 68 61 65 70 68 69 63 58 56 54 53 53 53 53
100 100 96 93 100 94 93 91 94 94 92 95 96 95 92 94 98 91 85 87 80 92 96 93 75 77 72 63 54 56 65 75 82 88 87 87 82 80 85 75 76 70 72 77 76 70 70 62 58 56 57 58 58 59
100 98 90 95 100 93 92 93 97 94 95 96 96 96 91 95 96 87 86 90 86 85 96 98 82 74 78 66 61 59 66 74 82 84 87 89 94 86 95 95 95 85 78 80 77 68 66 68 61 60 63 62 63 68
100 97 73 99 99 96 93 93 95 97 96 93 97 100 98 98 95 93 93 90 86 84 89 99 87 84 85 77 84 89 86 87 92 88 94 93 86 80 95 94 75 78 75 68 68 68 62 63 72 67 68 81 93 90
100 100 75 100 100 96 93 93 97 98 93 92 88 92 100 100 96 92 88 95 89 80 90 100 96 82 78 83 90 89 86 96 90 94 94 90 89 86 96 95 72 73 79 60 61 68 71 70 77 89 96 97 95 93
100 100 100 99 100 97 92 93 96 92 90 86 84 81 100 91 92 94 100 99 86 84 86 100 98 92 77 96 98 93 96 92 97 97 93 90 91 92 89 84 75 72 73 76 80 81 81 86 88 96 93 91 91 85
100 100 100 100 100 98 94 94 94 93 88 86 86 94 86 82 95 99 99 84 75 77 99 100 99 99 84 96 94 91 90 97 96 98 93 84 97 98 82 82 77 76 65 72 95 99 98 98 96 97 97 94 90 87
100 100 99 100 100 100 99 96 96 90 88 89 93 88 100 100 98 85 76 90 99 98 96 98 90 99 88 93 98 90 92 99 100 98 90 98 97 84 83 80 75 75 77 89 86 81 92 97 97 91 90 92 88 89
100 100 100 99 99 100 100 100 96 90 96 90 98 99 100 96 77 89 98 97 98 97 94 96 91 97 87 94 97 87 97 98 97 88 95 94 94 88 75 82 87 91 85 81 72 76 68 65 75 83 87 90 94 94
100 100 100 98 99 100 99 100 99 100 96 85 93 96 95 91 98 93 92 96 92 84 99 98 97 94 99 85 94 90 91 92 79 90 92 87 88 78 69 68 73 78 75 71 73 72 69 73 78 86 89 90 89 88
100 100 100 100 98 99 100 98 99 100 91 85 92 100 93 99 98 94 96 87 92 94 100 100 99 96 99 89 96 92 91 90 89 92 89 91 88 81 82 66 65 66 65 66 67 68 65 68 71 85 90 87 83 60
98 100 100 100 98 98 100 99 100 99 92 98 100 99 98 99 93 91 90 91 90 99 98 94 99 98 97 98 98 95 96 95 98 100 96 92 84 71 76 68 57 56 68 67 67 64 60 52 56 64 78 74 60 53
94 100 98 96 98 97 95 97 99 99 95 100 99 97 98 94 98 98 95 97 99 93 90 93 95 90 100 98 90 97 99 94 90 90 90 90 86 85 74 66 59 53 55 59 61 70 70 65 57 50 44 42 48 48
95 92 91 90 98 98 98 98 97 99 100 100 99 99 96 95 98 99 99 98 99 89 92 91 97 97 98 95 98 95 93 94 87 92 92 93 78 75 60 55 56 58 60 61 61 64 68 75 72 62 52 44 40 39
98 90 90 92 98 98 100 99 99 100 100 100 99 95 97 96 96 96 93 96 90 78 99 94 96 89 94 97 100 93 89 86 93 94 96 86 77 72 67 66 69 68 65 59 60 63 67 70 76 66 61 50 44 44
96 95 94 91 99 100 100 100 100 100 99 99 98 99 95 92 94 98 97 91 89 96 95 93 90 99 95 98 95 91 96 96 96 92 93 86 84 79 80 79 74 73 67 60 60 64 76 86 79 73 61 52 52 57
88 89 97 99 100 100 100 100 100 99 99 99 99 100 98 97 97 96 95 93 92 92 94 95 93 96 90 90 87 93 97 95 79 76 78 73 73 77 78 78 80 81 75 68 71 76 81 84 81 69 63 63 65 63
84 94 99 98 99 100 99 99 100 99 98 99 99 99 99 99 99 97 97 95 96 98 97 99 82 81 82 84 95 92 93 82 83 81 82 83 77 78 80 78 79 71 74 83 85 85 80 78 73 68 64 62 61 64
88 98 98 99 100 100 100 99 99 99 99 98 98 98 98 98 99 99 99 98 96 99 100 93 87 86 93 90 77 78 83 86 86 85 83 92 82 79 78 78 78 79 80 84 85 86 78 76 71 65 66 64 66 68
98 96 99 100 100 100 99 99 99 98 97 98 98 98 97 97 99 100 98 98 98 92 89 86 94 93 91 80 82 77 77 76 78 81 78 81 82 93 96 86 85 97 91 88 82 85 76 70 67 67 66 73 64 54
94 97 99 99 98 97 98 99 96 97 96 97 98 97 97 97 98 98 98 97 94 92 98 94 92 86 88 79 72 72 72 69 79 79 79 86 89 91 87 91 91 94 97 89 79 73 76 84 86 70 65 61 59 60
84 88 89 96 97 96 96 97 97 96 97 95 96 95 97 100 96 97 97 97 95 93 90 94 97 96 92 90 93 91 96 89 86 93 93 94 100 99 98 100 99 95 90 81 76 78 77 80 75 68 70 70 78 88
80 86 86 95 91 89 92 96 96 94 95 95 95 95 95 96 96 96 96 92 90 92 91 88 94 96 97 100 90 86 92 98 98 100 97 92 96 98 97 94 94 89 77 71 77 74 76 74 75 75 80 89 91 92
96 90 96 96 96 90 91 97 96 95 94 95 94 95 95 94 93 85 90 95 96 96 97 100 99 98 90 82 84 92 95 92 99 94 99 99 94 91 97 96 96 86 73 66 66 72 81 81 81 87 90 89 92 89
100 99 96 77 90 90 96 87 84 90 96 94 96 98 94 92 92 85 95 90 92 95 96 96 94 97 97 90 91 95 96 99 97 96 98 97 97 96 90 83 85 82 74 67 69 74 84 85 90 94 92 88 82 75
87 87 93 86 99 96 98 100 100 99 95 89 85 100 88 81 80 95 97 98 96 95 95 96 96 96 95 96 96 96 98 98 95 93 92 91 85 77 72 73 82 88 80 85 87 82 80 92 97 95 95 91 74 68
98 93 93 89 98 98 96 93 92 93 83 93 90 91 92 94 100 100 100 98 98 99 97 99 100 100 100 100 99 99 96 92 87 92 90 96 94 92 96 89 82 80 75 70 79 92 93 98 98 99 86 76 73 70
93 95 98 100 100 100 97 94 94 99 95 89 86 96 95 98 100 98 94 93 99 98 96 93 97 96 99 95 99 98 95 94 94 92 96 94 84 84 84 77 73 72 71 67 62 61 74 70 66 67 69 69 72 82
97 97 100 99 97 97 98 96 97 91 97 100 98 96 97 100 100 99 96 98 99 99 100 100 100 98 95 96 94 96 96 95 92 85 76 70 75 79 79 77 78 80 79 70 69 67 68 71 76 80 79 80 77 82
96 92 94 100 100 97 97 98 99 100 99 98 100 98 99 97 97 96 98 98 98 99 95 96 96 98 97 96 95 95 95 95 93 87 82 81 80 80 82 83 84 88 86 80 82 81 81 86 91 92 88 85 82 78
96 96 95 96 100 100 98 96 98 99 98 99 99 98 98 96 97 98 98 98 97 95 96 96 96 96 96 96 96 97 96 96 98 97 98 97 95 94 91 89 93 94 94 94 95 94 92 94 95 92 86 83 80 76

GFSWCAN_925_rhum_006.txt.gz
RH
99 100 100 99 97 91 100 97 86 87 86 89 86 90 98 96 100 96 86 87 84 88 87 82 69 62 64 63 56 55 59 56 69 72 77 84 78 71 70 67 62 58 73 78 84 76 69 53 53 56 61 64 61 58
100 100 100 100 98 98 100 95 92 88 86 92 88 86 89 94 100 96 85 84 84 88 90 88 80 72 64 62 68 72 66 66 66 86 83 85 83 80 74 74 70 64 61 66 69 69 62 58 55 64 60 62 60 56
100 100 100 100 99 96 99 99 93 87 87 91 88 90 89 97 100 96 83 82 83 94 92 88 91 76 70 71 61 76 81 68 77 76 86 83 71 80 81 76 68 64 66 70 68 68 62 61 60 57 54 57 57 55
100 100 99 100 100 94 96 99 94 88 86 90 88 91 89 99 100 92 82 86 81 92 95 93 78 78 77 64 59 60 67 80 86 86 86 86 80 81 82 73 71 69 70 76 77 76 67 61 58 59 62 62 61 62
100 100 100 100 98 79 93 100 94 88 89 88 88 89 91 94 100 92 85 90 86 84 96 98 83 78 78 65 68 66 70 78 86 85 88 89 93 90 97 92 93 84 75 78 75 71 70 70 62 62 66 68 78 70
100 100 100 100 96 68 98 99 94 91 89 91 90 90 92 98 95 85 90 87 84 87 94 100 87 85 83 78 85 90 90 91 92 90 95 95 87 83 92 91 74 83 79 70 67 68 70 76 78 70 78 87 92 89
99 100 100 100 98 93 100 100 94 91 92 90 95 92 95 100 99 91 88 91 85 74 93 100 99 83 78 83 91 89 86 95 90 94 94 92 91 83 90 86 67 77 78 68 72 75 77 71 78 88 93 95 92 90
98 100 100 100 99 100 100 99 94 91 93 92 99 100 100 97 93 96 97 94 79 78 84 100 100 92 78 96 98 93 93 91 96 96 93 90 91 90 87 81 78 77 83 84 87 83 80 90 92 94 94 92 89 87
95 100 100 100 98 100 100 100 95 92 90 95 99 100 90 86 96 98 86 74 69 73 98 97 94 99 83 97 94 89 90 98 95 95 93 83 93 96 73 79 83 79 73 89 99 99 96 94 96 100 96 99 89 89
93 100 100 100 98 100 100 99 96 92 90 93 97 85 100 100 95 81 72 87 98 97 95 97 92 97 91 94 98 89 92 99 100 97 93 97 96 83 81 78 78 80 81 90 87 82 91 79 92 76 75 82 89 90
93 100 100 100 99 99 100 99 100 95 97 85 98 99 100 92 75 92 100 99 96 97 96 98 92 97 88 94 96 89 98 97 98 92 92 98 95 88 77 79 88 88 86 76 75 77 63 55 66 72 77 82 89 92
93 100 100 100 99 99 100 98 99 97 92 83 95 97 90 89 94 89 91 95 97 96 98 95 98 97 98 85 89 88 97 92 91 96 98 95 86 79 75 80 91 90 86 77 67 68 70 68 72 79 83 86 87 88
92 99 100 100 100 99 100 97 100 98 87 84 93 100 95 100 98 96 100 88 99 95 100 100 99 98 98 89 96 90 88 91 87 93 78 90 88 85 82 73 76 76 71 71 72 66 61 59 62 72 80 82 87 88
90 98 100 99 100 99 100 100 96 98 88 97 100 99 97 99 95 93 92 91 92 99 98 89 99 98 97 90 95 82 93 90 94 95 98 93 84 77 80 69 65 64 64 64 62 60 57 57 56 55 66 75 78 70
91 99 99 99 100 100 100 100 94 93 98 100 99 97 99 97 99 100 99 96 100 91 89 94 96 92 99 98 93 98 100 95 79 95 90 90 85 84 78 73 61 56 61 62 62 68 68 65 66 63 56 50 51 58
94 95 99 100 100 100 99 100 95 96 100 100 98 97 93 96 99 93 96 97 99 86 92 92 97 96 100 95 98 96 91 92 87 92 92 88 85 81 74 65 60 59 60 60 60 61 63 71 74 72 66 58 49 44
90 97 100 100 100 99 100 100 99 100 100 99 99 94 96 97 98 98 92 96 89 80 99 93 91 91 95 99 100 93 94 87 92 95 96 87 76 75 68 67 70 71 72 68 63 62 65 70 73 74 76 67 55 49
90 92 99 100 100 100 100 100 100 100 99 99 99 98 95 91 94 96 98 92 92 94 91 87 89 99 96 97 98 92 97 98 98 94 93 84 79 76 75 68 70 72 73 72 65 68 74 80 84 84 76 62 56 58
86 91 99 93 98 100 100 100 99 98 99 99 99 98 98 99 97 94 95 94 91 86 89 94 90 92 91 93 91 96 98 96 83 81 80 77 72 72 73 76 82 84 83 76 72 72 79 84 85 75 69 65 68 67
84 97 98 85 88 99 99 99 100 99 98 99 98 99 99 99 99 92 93 94 93 92 91 92 77 74 80 85 95 94 94 84 80 77 76 82 79 80 85 85 84 77 78 86 90 87 81 81 74 69 66 65 64 68
88 98 91 94 100 100 100 99 99 99 99 98 98 96 99 98 98 97 98 98 95 95 93 85 82 86 96 93 83 84 87 83 82 78 79 92 85 84 82 79 81 81 79 83 85 87 85 84 73 72 65 68 66 62
92 84 99 98 99 99 98 99 99 98 98 98 98 98 98 98 98 99 100 98 98 93 88 89 96 97 96 88 89 86 83 82 82 82 82 84 88 92 94 89 87 98 93 91 87 90 82 72 68 68 69 66 52 56
88 98 98 94 97 94 97 99 96 97 97 97 98 97 97 97 98 99 98 98 98 98 98 92 93 90 90 82 81 85 78 73 84 83 82 89 94 96 95 94 87 94 97 94 80 76 84 86 83 67 63 56 56 64
79 89 93 97 96 96 95 96 94 95 96 96 96 96 96 97 97 97 97 98 97 91 88 90 92 91 91 90 94 98 100 88 94 98 94 98 100 100 100 100 99 93 85 88 89 92 83 83 77 63 62 68 81 89
77 92 85 93 90 92 95 95 95 92 96 95 95 95 95 96 96 96 96 95 93 92 89 89 92 94 98 100 94 96 93 96 98 99 98 95 96 97 98 97 97 96 89 84 84 77 78 72 70 72 80 89 90 91
98 92 88 98 98 88 94 95 96 96 95 95 95 95 95 95 95 90 93 96 96 96 97 97 96 95 89 84 91 92 94 92 97 92 100 98 94 91 97 95 96 89 74 66 65 74 79 76 79 86 85 84 90 76
100 100 95 78 89 89 93 87 84 92 95 95 95 95 93 89 88 88 93 89 92 95 95 95 94 95 96 92 96 96 97 100 95 96 99 98 97 95 91 90 89 81 70 63 63 64 69 76 87 90 91 88 80 74
88 88 95 89 99 98 98 100 99 96 94 87 83 95 84 74 79 96 96 98 96 95 95 97 95 93 93 95 95 97 99 98 96 94 92 91 87 78 73 73 78 80 75 73 70 68 79 91 94 92 93 84 71 71
97 94 92 87 97 100 98 95 95 94 84 93 89 92 93 89 98 98 99 98 99 96 96 98 100 99 100 100 99 98 97 91 83 93 94 99 98 100 99 90 88 88 85 82 92 93 94 98 95 94 75 73 71 68
93 97 98 100 100 100 98 96 94 100 94 90 88 96 92 96 100 100 98 97 99 98 94 91 97 94 99 96 100 99 96 94 93 83 95 97 91 91 78 71 68 66 64 60 59 60 85 64 65 69 73 72 71 81
97 96 99 100 99 98 100 93 98 91 97 100 99 96 98 100 98 100 98 100 100 100 100 100 100 98 96 97 96 98 100 96 94 93 86 80 76 78 75 74 75 76 71 66 67 69 72 76 80 84 82 78 75 80
94 96 94 100 100 96 95 97 100 100 100 100 100 100 99 99 98 98 99 98 99 98 97 98 97 100 97 95 94 97 91 96 95 92 86 78 77 78 80 81 82 82 82 82 84 88 87 87 87 91 92 86 80 77
97 97 97 95 98 99 97 94 97 99 98 100 99 98 98 97 98 98 99 100 99 96 97 97 98 98 97 98 98 100 96 98 99 98 98 94 86 88 87 88 92 93 93 92 94 94 92 93 95 96 90 84 82 77

GFSWCAN_925_rhum_009.txt.gz
RH
72 88 94 98 99 100 98 98 99 100 90 83 86 86 94 98 100 100 93 87 85 86 90 84 70 64 65 57 56 53 53 52 80 80 81 80 74 71 69 60 57 57 68 68 79 71 55 53 50 54 59 66 62 60
70 96 93 98 99 100 99 98 98 100 90 83 86 89 91 99 100 100 94 88 91 87 89 90 82 77 69 60 66 73 61 61 62 81 86 87 82 80 74 71 69 60 54 63 63 63 66 61 57 65 60 63 60 61
68 88 94 98 99 100 100 98 96 100 87 86 86 92 88 94 98 100 94 87 88 94 92 89 91 78 75 78 66 74 83 68 76 76 86 85 72 82 82 77 70 67 68 74 66 68 65 66 63 59 57 61 62 60
69 90 90 99 99 100 100 99 95 98 91 88 88 92 90 92 99 100 89 85 85 91 95 87 79 80 80 65 63 64 70 83 84 86 86 86 77 80 80 70 70 67 68 78 83 76 67 60 59 66 70 70 70 68
66 88 87 99 100 100 99 96 72 96 95 90 90 91 89 92 100 100 94 92 85 85 95 98 83 84 82 71 71 69 75 82 87 84 87 88 91 92 96 88 84 83 74 75 73 72 70 68 68 68 72 75 74 72
68 86 87 100 100 100 100 98 76 100 94 90 91 90 90 94 100 97 96 89 88 79 92 100 87 85 82 81 86 89 90 92 92 90 96 96 90 85 92 89 71 82 78 67 68 73 80 81 80 72 84 88 85 88
70 84 88 100 100 100 100 99 93 100 93 91 92 88 93 100 100 92 89 96 90 78 91 100 100 84 79 83 92 92 86 94 90 94 93 93 94 84 87 82 65 80 77 74 78 76 78 72 81 86 92 94 89 91
72 85 90 100 100 100 100 99 100 100 91 92 91 95 99 100 92 94 98 89 81 77 83 100 100 95 78 96 98 92 92 90 96 95 94 89 95 91 89 78 78 83 86 84 83 81 78 89 93 96 94 94 89 82
75 87 94 100 100 100 99 100 100 97 91 93 99 99 96 85 95 92 79 73 68 71 97 93 98 100 84 97 93 86 90 98 94 93 93 85 93 94 76 85 88 90 82 92 99 94 90 88 94 100 97 98 81 82
77 87 97 100 100 100 99 100 100 93 92 100 99 86 100 98 92 78 71 84 94 96 93 97 91 99 90 93 98 89 92 99 100 99 92 97 95 81 78 80 82 85 89 95 92 98 100 97 95 96 85 77 81 85
78 85 97 100 100 100 100 100 99 97 100 94 97 100 100 88 72 90 100 98 96 97 95 96 90 97 90 93 94 89 96 96 98 93 92 98 98 90 86 85 88 90 86 80 73 77 65 58 68 73 76 81 86 89
79 85 95 100 100 100 99 100 97 100 96 84 94 94 83 84 92 86 96 98 95 96 98 96 98 96 96 84 87 88 97 91 89 91 96 98 87 81 81 83 88 90 84 76 62 68 70 69 69 72 76 79 82 85
80 86 95 99 100 100 99 100 98 98 89 85 93 100 93 100 98 90 94 88 100 98 100 100 99 95 94 90 98 89 89 92 90 98 91 88 87 84 84 91 94 89 80 74 74 68 64 66 65 68 75 76 82 88
81 90 96 98 100 99 98 100 99 99 88 98 100 99 97 99 96 93 91 92 92 98 98 95 97 97 95 91 91 81 90 86 91 90 89 91 85 83 79 81 88 87 76 76 73 66 60 58 57 56 64 69 77 77
80 94 89 99 100 100 99 100 97 87 97 100 99 98 99 97 100 100 96 96 100 92 91 97 97 94 98 92 88 97 100 87 78 92 90 91 91 89 77 66 68 72 72 69 69 68 66 64 64 64 61 57 57 62
86 89 98 99 99 100 99 100 99 97 100 100 99 97 93 98 99 99 96 98 100 87 93 92 99 98 99 95 97 99 89 90 86 91 92 90 85 79 73 67 61 61 60 60 60 61 62 68 70 70 68 63 57 50
87 97 100 99 98 99 100 99 99 100 100 100 98 90 95 97 98 96 87 91 82 79 97 94 88 88 96 98 99 96 92 87 91 94 93 80 76 77 70 67 67 68 70 70 66 64 66 71 73 73 75 73 60 53
86 92 98 98 86 98 100 100 100 100 98 98 98 100 92 89 93 94 98 95 90 92 93 86 90 98 98 99 99 93 97 98 98 96 89 80 78 76 73 75 75 75 78 75 67 74 79 81 82 87 74 62 60 61
89 93 98 98 98 100 100 100 100 98 99 99 99 98 98 97 95 95 94 92 87 85 87 94 86 94 93 94 90 96 98 97 86 89 88 85 80 80 81 86 88 89 85 79 76 81 85 85 81 75 70 65 71 67
81 83 91 86 90 100 99 99 100 98 98 99 98 98 99 99 99 92 90 91 91 94 90 87 76 76 80 87 95 94 94 84 72 79 82 86 86 87 90 88 86 80 86 93 89 89 81 78 73 69 66 66 68 69
75 84 85 97 99 99 99 99 98 99 99 96 99 98 98 99 99 99 98 97 97 98 93 82 87 96 95 94 85 86 84 74 76 68 76 92 88 84 85 86 81 77 80 86 91 90 86 81 80 70 64 66 62 57
89 96 99 99 98 98 97 99 98 99 98 98 98 98 98 98 98 99 100 98 98 98 92 91 97 96 93 92 92 89 87 83 84 88 89 82 88 92 95 93 83 100 94 92 87 87 84 77 70 68 66 64 61 78
84 90 95 84 89 87 97 97 96 97 97 97 98 97 97 97 98 99 98 98 97 97 95 94 97 89 87 87 85 86 77 75 85 88 91 95 95 94 95 92 87 93 97 96 83 78 80 82 82 64 65 59 61 69
71 86 96 99 94 96 89 96 94 96 97 96 96 96 96 97 98 98 96 96 97 96 91 93 89 92 91 90 96 99 98 90 97 98 96 98 97 97 98 99 94 88 81 87 90 93 80 76 74 59 63 71 83 83
76 85 85 93 91 90 95 95 96 94 95 96 95 96 96 96 96 96 96 96 96 95 94 92 88 91 94 98 93 95 98 93 98 97 99 91 98 98 98 98 97 96 93 94 93 84 77 67 67 72 82 89 90 75
95 95 84 99 98 87 96 95 96 95 95 95 95 95 96 96 95 96 95 95 95 94 94 95 96 92 90 89 96 94 93 96 91 94 100 96 89 90 96 96 97 93 88 77 68 73 76 76 77 80 80 78 86 67
100 98 94 81 90 89 91 86 82 94 95 96 95 95 94 95 95 90 95 93 93 96 97 96 91 90 95 96 98 98 99 96 88 94 100 99 96 89 82 88 89 79 72 63 60 60 67 77 86 86 84 78 71 70
87 88 95 90 99 98 98 100 99 93 96 88 83 91 84 81 86 96 97 98 100 98 97 97 93 90 93 95 96 99 100 98 96 94 93 93 91 88 79 71 69 68 66 64 61 62 76 85 85 84 78 69 68 69
97 94 92 90 99 100 100 94 95 95 89 94 91 94 95 87 96 96 98 100 98 94 95 98 100 98 98 96 96 95 97 92 84 93 96 100 99 100 96 89 88 90 91 91 93 90 91 90 89 70 69 70 69 66
92 97 98 96 100 100 99 97 96 98 93 91 85 93 92 94 100 99 98 97 97 96 94 93 99 93 99 96 100 99 96 94 85 80 94 98 92 94 85 78 70 67 62 57 59 85 83 66 67 69 71 69 69 81
97 97 100 100 100 99 99 92 96 90 97 100 99 96 98 100 98 98 97 99 99 99 98 100 99 95 94 98 96 99 99 92 94 88 83 78 81 73 71 69 69 66 64 64 66 69 71 74 76 78 80 80 77 80
90 96 98 100 100 96 95 95 100 100 99 100 100 100 100 99 100 98 99 98 97 96 94 96 95 95 94 96 95 95 89 94 94 88 82 75 72 73 75 78 80 81 80 79 80 81 82 84 87 90 91 86 79 77
97 97 96 97 100 100 98 95 97 100 99 100 100 100 100 98 99 98 99 99 97 96 95 95 96 96 96 97 96 98 96 96 94 93 85 78 78 84 85 90 94 93 90 85 86 89 90 93 92 90 84 81 79 75

GFSWCAN_925_rhum_012.txt.gz
RH
66 66 62 72 94 94 95 97 99 97 98 100 97 85 84 91 100 100 97 85 83 71 74 82 69 55 57 66 82 58 71 70 91 88 80 83 74 66 49 46 46 51 58 55 60 85 63 45 46 43 48 52 49 48
67 69 60 70 96 94 97 96 99 96 98 99 97 85 84 92 98 100 99 93 94 79 82 91 86 80 68 58 62 64 61 61 80 90 76 66 62 64 50 50 55 48 45 41 42 42 58 54 52 53 46 49 49 48
70 70 62 68 96 93 98 98 99 98 98 96 99 86 86 94 99 99 98 96 93 87 84 79 81 83 80 79 64 54 64 51 60 61 69 72 65 60 56 53 54 57 56 50 54 59 58 56 54 49 45 49 48 48
76 68 63 69 96 95 100 99 100 98 98 95 99 88 88 92 99 100 97 87 87 79 80 80 78 79 80 73 69 65 59 67 60 60 69 69 64 66 64 56 52 51 55 57 66 65 58 55 50 51 55 54 54 54
81 70 68 70 97 97 100 100 100 98 86 83 99 90 89 92 96 100 100 89 84 82 83 85 78 83 84 77 71 68 62 61 61 69 71 74 71 71 80 66 60 55 51 50 47 48 47 49 52 53 55 58 55 58
79 74 72 72 98 95 100 100 100 99 94 95 97 90 89 94 99 99 99 100 94 83 90 98 80 77 78 78 74 74 72 71 73 74 84 83 80 67 78 68 55 54 56 50 46 48 56 48 53 55 59 63 63 60
78 77 74 75 98 96 100 100 100 99 92 100 95 90 91 96 100 96 93 99 98 83 89 99 99 80 76 76 78 74 73 80 74 82 82 80 81 69 69 66 50 60 59 61 59 59 68 58 63 62 65 68 71 70
79 78 74 77 97 98 100 100 100 100 100 100 94 92 96 100 99 95 99 97 89 87 86 100 99 96 76 89 87 80 81 78 84 84 84 75 84 75 77 60 61 65 64 63 66 66 55 64 70 76 78 75 70 64
80 79 75 80 92 97 100 100 98 100 100 99 95 97 99 90 95 93 79 74 70 74 96 93 100 100 81 94 91 85 88 94 89 83 84 80 78 90 69 61 66 70 66 74 82 84 83 85 95 93 84 70 58 60
81 79 76 83 90 95 100 100 100 100 100 98 99 92 100 94 86 78 74 82 94 94 89 87 82 99 89 90 96 88 90 98 100 98 91 95 83 68 65 59 60 68 74 78 90 100 96 99 98 90 62 58 55 60
82 80 78 88 91 100 100 99 100 100 100 91 96 98 100 91 69 87 98 94 90 97 86 89 80 94 84 91 91 86 96 96 99 88 87 91 90 77 77 78 77 80 77 67 62 65 62 59 59 58 61 62 67 72
82 82 80 90 93 100 100 98 99 96 94 84 95 93 77 82 88 90 97 98 97 92 97 92 92 81 87 80 87 85 92 86 88 81 92 92 75 73 76 77 73 72 69 63 58 51 44 46 49 51 58 63 69 77
83 82 83 93 99 100 100 98 98 91 87 84 90 100 91 99 97 93 98 99 99 98 100 99 99 86 81 76 85 78 86 85 82 91 88 75 73 75 74 78 80 71 58 53 53 53 55 59 62 59 61 70 77 80
86 80 90 97 100 100 100 97 100 99 90 98 100 100 97 100 92 87 81 89 85 99 98 94 97 88 78 86 78 84 80 75 88 92 80 62 69 68 72 80 76 65 54 54 56 55 58 58 58 63 63 68 70 70
84 83 91 96 96 100 100 100 100 91 98 100 99 98 99 94 96 91 93 96 99 91 93 96 95 82 90 88 77 89 93 88 72 73 68 73 80 76 78 82 76 61 60 56 53 51 52 54 54 58 60 59 65 67
80 80 84 95 96 100 100 99 100 94 100 100 99 96 93 96 97 96 97 99 98 82 85 88 94 92 96 86 89 89 81 82 73 82 75 74 65 65 70 71 62 56 52 51 53 54 59 59 60 64 66 63 58 56
78 81 92 97 96 99 100 100 98 100 100 99 97 83 89 91 92 89 83 88 79 77 89 88 84 90 91 94 93 82 86 76 80 78 75 74 69 62 54 55 55 54 55 57 59 58 63 72 72 68 66 68 59 53
74 90 99 98 99 99 100 100 100 100 98 98 96 95 85 82 84 83 93 88 84 81 80 80 85 98 96 98 96 83 85 93 87 78 78 70 65 65 65 66 70 70 70 69 68 74 78 79 74 74 76 67 62 63
94 99 97 98 99 100 100 100 100 97 97 97 96 93 91 94 95 91 90 84 83 80 85 82 77 82 76 76 77 90 91 83 76 72 69 65 64 68 78 85 85 84 80 80 74 73 79 79 77 74 67 65 62 64
65 73 95 94 94 99 98 99 99 98 97 99 98 97 96 98 100 96 91 90 89 97 92 76 60 62 64 72 77 78 78 70 68 73 78 76 78 85 88 83 78 81 82 87 87 82 78 74 73 71 69 67 64 65
65 72 84 91 99 99 99 98 98 99 98 96 98 97 98 100 100 100 100 99 100 99 84 75 83 85 84 80 75 70 70 60 58 56 68 80 77 78 83 88 87 81 77 78 75 79 75 73 78 78 77 66 65 76
78 88 92 88 96 97 96 98 98 97 95 97 97 98 98 98 98 99 100 98 97 93 82 79 86 82 83 82 81 81 83 82 82 77 74 74 77 81 82 86 80 87 84 87 83 80 80 79 75 72 71 76 78 78
72 70 80 79 82 85 96 96 96 96 96 96 97 96 96 96 97 99 97 96 93 92 88 87 88 82 81 81 80 81 74 73 78 79 80 83 88 90 89 86 89 90 92 92 86 84 85 81 76 70 71 67 70 68
65 85 94 93 91 97 82 95 94 95 95 94 95 94 94 96 96 97 94 93 93 89 86 86 79 82 80 85 84 87 90 85 88 92 90 86 89 92 93 91 91 90 87 91 91 93 86 79 74 65 69 79 79 70
73 83 83 91 88 87 94 94 95 93 94 94 94 94 94 94 95 95 94 94 93 93 91 83 80 80 90 92 86 91 94 88 83 90 94 86 91 92 96 96 97 98 90 93 91 86 82 67 69 77 82 84 80 66
92 97 90 99 96 89 93 94 95 95 94 94 94 94 94 94 94 94 91 93 93 93 93 93 86 84 82 78 82 82 92 90 85 86 98 92 86 88 92 91 91 96 95 89 81 79 79 73 73 72 79 80 84 67
86 96 92 80 88 86 85 81 78 87 95 95 94 94 94 94 94 91 90 90 92 94 96 96 96 82 84 87 94 98 98 92 86 93 99 95 89 85 84 89 89 87 83 72 60 57 64 72 78 77 76 71 68 68
81 86 87 90 94 93 95 95 96 91 90 84 92 94 94 88 91 91 92 96 96 95 96 97 92 89 94 99 100 100 100 99 96 96 97 97 96 89 82 74 68 65 61 60 58 58 62 68 70 71 69 68 66 67
95 93 87 98 100 100 100 92 89 90 87 88 84 89 92 86 91 91 94 98 96 96 92 93 100 96 96 96 95 95 97 94 86 89 91 93 91 100 91 83 74 71 73 78 83 76 74 71 70 65 66 68 68 66
91 95 98 97 100 100 99 94 97 94 87 86 81 88 86 89 97 99 100 97 96 94 97 97 98 94 97 95 98 100 95 88 78 79 88 90 90 97 93 86 84 80 79 86 97 97 79 73 70 68 69 71 72 76
93 95 99 100 100 99 96 90 92 85 94 95 94 92 93 94 95 99 97 99 99 98 97 98 98 94 95 96 94 94 94 94 90 80 76 76 84 82 73 65 61 58 57 57 63 65 70 69 71 73 76 80 78 82
92 94 95 100 100 95 93 94 97 99 98 96 97 97 97 94 99 91 100 97 97 96 96 95 93 96 92 93 92 90 88 90 93 88 81 75 68 68 69 70 69 69 69 70 72 73 74 76 78 82 85 80 74 74
96 96 96 97 100 100 96 94 96 99 97 100 98 97 97 94 98 93 97 100 98 96 96 96 96 96 96 96 96 99 95 94 91 89 78 70 70 75 78 80 82 82 78 77 79 81 80 81 83 83 81 78 75 72

GFSWCAN_925_rhum_015.txt.gz
RH
80 75 72 63 64 68 76 96 90 95 98 98 96 93 100 93 95 100 98 93 77 65 59 65 58 55 89 92 78 66 88 74 85 88 82 77 66 53 54 56 72 71 83 90 78 84 84 37 41 39 47 42 36 35
81 74 76 66 64 67 76 97 92 96 99 98 96 92 100 94 95 100 100 97 95 86 78 80 75 75 69 71 84 63 68 73 83 95 76 70 74 58 44 56 43 60 46 45 43 53 49 42 46 43 40 42 42 42
85 77 76 74 65 68 76 93 93 97 99 98 93 97 100 94 96 99 99 99 99 93 79 75 72 80 79 82 82 87 85 62 74 78 82 71 72 57 60 52 41 42 44 40 40 47 48 44 47 44 39 42 41 42
85 81 76 75 69 70 80 92 94 99 100 98 97 99 100 93 96 100 98 94 96 70 76 76 76 74 80 76 76 70 72 61 52 60 88 80 62 57 55 50 44 43 46 45 47 56 54 50 46 46 46 44 46 45
86 83 79 74 72 71 84 90 97 99 100 98 97 99 99 93 97 100 100 98 94 86 75 77 71 77 74 67 64 62 51 52 53 69 72 74 67 65 64 56 50 47 41 46 40 42 40 44 45 46 49 51 51 54
85 84 79 75 74 71 84 89 96 98 99 98 98 100 96 96 100 100 99 99 94 86 82 87 74 70 71 64 60 62 61 60 60 63 72 69 66 63 75 63 43 40 41 42 40 39 43 44 47 45 50 52 50 52
80 82 80 76 75 72 86 87 91 97 99 98 99 100 96 97 100 98 93 97 97 83 88 99 88 74 70 67 68 65 62 72 67 73 73 70 68 67 63 63 44 43 44 49 47 48 54 51 57 49 53 56 55 53
80 81 82 77 76 75 90 87 95 98 100 100 100 99 99 100 100 98 98 100 99 90 85 100 99 91 72 78 82 71 73 71 79 77 74 68 73 66 74 55 43 47 50 51 52 53 48 48 53 58 62 62 60 53
86 85 86 78 76 78 87 91 98 100 99 97 100 100 100 97 98 98 94 100 88 93 98 99 100 100 76 88 79 73 76 82 79 77 73 75 68 89 65 55 51 55 57 60 68 68 67 72 82 83 75 57 47 50
87 90 86 79 78 85 88 98 99 100 92 100 99 98 100 96 92 79 92 97 99 98 91 91 79 99 85 87 94 85 87 94 100 89 82 87 82 62 58 52 47 55 59 76 92 99 99 99 94 70 49 40 42 50
88 90 83 80 80 90 94 99 99 96 100 98 98 98 100 96 72 87 100 100 94 100 83 80 74 93 80 89 91 87 98 99 100 87 87 83 81 67 65 60 59 63 67 62 55 64 65 67 60 47 50 50 53 57
89 88 83 79 87 92 98 100 100 100 98 91 97 91 79 83 89 96 98 98 97 90 92 84 83 70 80 79 88 87 96 90 98 76 90 88 68 66 65 65 65 61 59 59 56 54 52 46 41 46 51 55 57 62
91 86 84 80 91 97 95 100 99 98 96 96 94 99 88 99 99 100 97 98 94 98 99 97 97 77 76 79 89 81 98 89 76 87 85 74 75 76 70 66 64 59 54 50 45 45 48 50 52 51 52 56 63 68
88 86 78 90 93 91 98 100 100 100 98 99 100 100 100 100 90 87 79 93 84 99 98 92 90 83 69 86 74 96 76 73 87 89 77 56 66 68 70 69 64 56 48 47 51 53 56 56 55 54 56 60 61 62
86 78 85 85 93 94 99 100 100 100 98 100 99 100 100 94 96 93 98 96 97 91 88 93 92 74 88 92 71 87 92 88 74 70 68 76 75 74 76 66 53 48 47 48 49 52 50 51 50 54 57 60 60 61
76 76 87 97 93 91 100 99 99 99 99 100 100 99 92 97 98 95 95 99 92 83 87 87 96 96 94 84 86 84 80 80 76 90 77 71 66 68 72 58 51 48 47 47 47 48 51 51 52 57 58 55 54 54
72 79 98 87 91 98 100 100 100 100 100 100 98 75 88 92 92 87 82 93 74 79 97 92 92 90 80 88 82 71 79 81 89 80 69 69 76 72 67 58 55 50 47 47 50 51 54 61 62 60 61 60 51 50
77 94 90 92 99 99 100 100 100 100 98 99 95 89 77 75 80 80 84 80 79 78 80 99 84 96 91 90 84 82 85 88 80 75 71 66 66 63 58 54 57 57 58 60 73 77 78 74 66 67 74 70 64 59
89 91 93 96 100 100 100 100 100 97 97 94 92 87 82 89 87 85 86 80 78 75 87 81 85 85 76 74 84 93 90 77 72 60 54 51 54 61 76 83 81 79 79 74 62 63 68 68 66 64 61 57 55 55
52 61 87 90 96 99 99 99 100 99 96 99 97 93 94 97 99 84 86 89 92 99 98 88 56 54 60 68 73 75 76 63 62 67 72 69 74 84 87 77 73 75 76 80 78 72 71 67 66 64 62 59 58 59
56 66 80 76 100 98 98 96 97 98 97 93 97 98 98 100 100 100 100 100 100 100 92 72 73 80 76 70 64 65 64 53 51 54 70 78 71 78 82 85 79 72 68 67 65 68 65 65 68 72 68 61 63 65
73 77 90 83 89 91 96 97 98 98 97 95 96 98 98 98 100 100 100 100 98 96 94 87 92 84 78 76 76 73 72 69 71 71 72 68 74 80 81 82 77 84 78 79 76 75 74 73 69 66 68 73 71 61
65 66 77 77 81 78 93 95 95 95 96 95 96 95 96 96 97 100 96 96 94 94 81 82 81 74 74 71 72 73 67 64 67 68 70 75 80 84 86 83 89 90 90 84 81 81 78 74 70 70 74 76 70 62
60 79 86 84 82 90 73 92 92 94 94 92 93 93 92 95 96 96 93 90 93 86 81 80 73 77 74 78 76 77 76 75 76 76 76 78 84 80 81 82 86 89 85 85 84 84 79 74 72 69 69 70 66 61
69 81 80 81 79 84 90 89 92 91 94 94 94 94 94 94 95 94 93 93 93 93 88 76 75 71 80 84 79 84 87 73 75 81 80 79 84 86 89 87 90 91 88 89 87 85 80 73 72 74 74 72 68 66
83 92 90 89 88 84 86 91 92 94 93 94 94 94 95 94 93 94 90 91 93 93 93 92 82 79 76 72 78 80 87 83 78 83 88 80 80 86 91 90 89 94 94 85 79 76 75 75 77 76 85 82 79 68
72 84 80 74 79 76 75 70 70 82 94 94 93 93 94 94 93 88 85 89 92 93 96 96 95 76 81 83 90 95 96 90 90 94 95 90 87 91 90 88 88 93 90 80 67 62 69 73 73 73 74 70 67 67
72 78 88 85 84 84 89 82 84 89 83 84 92 94 94 92 91 87 87 94 97 96 96 96 95 96 96 97 98 99 100 98 94 93 92 91 88 84 78 79 84 81 69 59 57 57 59 64 70 72 69 75 72 68
87 83 80 98 94 91 93 88 86 84 81 82 85 91 90 85 89 88 93 97 95 96 94 94 96 96 98 100 100 100 98 92 83 87 88 90 86 99 96 82 73 67 65 66 66 56 57 59 64 65 64 67 66 65
91 86 90 97 97 90 91 87 91 87 77 78 74 82 82 88 95 97 98 97 95 94 96 96 96 96 92 91 94 98 90 81 79 79 85 87 89 92 81 75 75 80 87 91 97 96 98 84 78 66 68 72 77 82
87 89 93 89 98 92 90 85 86 78 86 89 86 86 89 89 92 99 98 96 96 95 96 95 97 98 91 91 90 88 93 91 79 75 74 79 82 85 81 74 69 68 81 92 89 71 72 67 70 73 79 77 71 75
86 93 94 100 98 90 90 91 94 93 93 89 92 89 90 88 91 85 100 99 96 91 92 93 90 93 92 87 86 86 87 90 85 82 79 78 76 66 61 59 58 58 60 62 66 68 70 74 79 80 80 76 72 70
93 92 94 93 96 96 92 91 92 94 90 93 92 91 94 90 94 89 99 100 99 99 99 99 97 95 95 94 94 95 92 91 86 86 75 64 63 65 66 67 68 69 70 72 75 77 77 76 74 74 73 72 72 70

GFSWCAN_925_rhum_018.txt.gz
RH
84 81 80 77 74 72 64 68 76 91 90 94 96 93 98 99 100 100 98 98 92 95 76 66 58 61 95 94 92 89 84 78 94 93 95 85 73 71 84 82 80 86 95 96 96 99 92 39 41 45 54 43 41 51
78 73 83 80 76 74 65 66 77 91 90 95 96 98 93 100 100 100 99 99 100 100 93 76 72 74 71 90 90 89 87 75 83 93 90 78 79 63 56 88 67 76 66 73 79 80 51 50 52 44 44 48 54 61
85 79 83 82 79 74 68 68 77 92 89 95 95 99 98 99 100 100 99 100 98 97 91 86 79 79 81 84 86 91 92 89 78 88 88 82 79 71 67 60 55 47 44 52 47 53 54 53 49 45 47 55 56 56
88 86 82 82 81 73 71 69 76 92 87 92 98 100 97 97 100 100 98 95 95 94 94 90 74 75 78 82 85 92 92 78 88 92 94 90 80 64 73 62 54 50 52 54 56 58 56 51 50 54 55 54 55 56
90 87 82 80 82 73 74 70 77 93 87 93 99 100 89 99 100 100 100 96 91 100 95 86 72 75 74 73 83 93 87 91 74 95 91 93 76 72 72 65 63 53 49 56 56 48 48 57 56 53 57 60 61 61
90 87 85 75 83 76 74 72 79 92 91 97 99 97 96 100 100 100 100 99 98 97 99 90 78 72 70 64 69 70 67 71 73 78 84 78 70 76 85 81 49 47 47 47 49 49 52 54 56 54 60 62 65 68
86 89 86 75 83 80 74 73 82 86 95 94 99 97 99 100 100 98 94 97 98 96 94 98 93 77 71 70 74 75 70 82 84 84 86 82 80 81 78 83 55 51 56 56 52 53 64 58 65 61 62 62 61 61
87 89 88 87 87 81 74 76 86 89 94 97 98 97 100 100 100 99 96 99 100 93 89 100 100 93 73 84 92 80 86 85 89 88 84 82 82 79 88 68 55 57 59 59 60 55 61 62 65 71 70 68 69 69
91 91 90 89 88 78 75 85 90 98 99 99 94 99 100 99 99 100 100 99 93 93 99 99 100 100 78 88 86 84 85 87 87 88 87 87 85 96 75 68 61 63 65 78 86 79 74 79 86 85 77 66 63 65
92 93 91 89 84 79 82 88 98 98 99 100 97 100 100 99 94 94 91 97 100 99 98 97 91 99 89 88 96 90 94 96 100 91 88 97 95 74 66 61 62 69 81 83 95 99 98 98 89 77 60 54 61 65
95 94 90 88 81 78 88 92 91 99 87 95 100 100 100 96 80 90 100 100 100 100 96 93 93 98 83 93 94 90 99 100 99 94 94 97 87 82 74 66 72 81 81 77 75 87 82 80 69 57 62 64 67 66
94 90 89 83 79 84 87 93 94 100 100 98 100 99 95 90 98 99 100 100 100 97 95 94 94 82 87 82 91 89 99 97 98 87 93 89 87 73 70 70 80 79 75 75 74 73 70 58 55 61 67 71 74 77
92 90 86 81 80 89 86 94 98 99 98 100 100 100 97 100 100 98 96 94 91 99 100 98 97 88 85 85 92 93 98 96 84 87 88 91 87 82 75 78 77 71 64 58 57 55 56 59 58 60 68 70 74 79
87 84 77 83 91 91 84 92 100 100 100 100 100 100 96 100 94 98 92 93 95 100 99 93 92 93 84 95 89 88 89 85 95 98 89 92 81 84 81 78 66 59 53 56 59 60 61 61 66 66 66 66 71 76
80 73 82 87 84 84 90 100 99 100 99 100 100 99 98 99 98 99 99 97 100 92 89 93 94 86 97 93 88 86 94 98 89 88 91 95 90 88 85 70 61 58 56 56 55 61 63 63 66 68 62 61 61 59
77 75 81 82 85 87 98 98 99 100 100 100 100 99 95 96 99 94 96 98 98 86 97 94 99 95 94 94 95 93 92 91 84 96 96 91 88 87 74 62 58 55 53 54 58 59 61 62 63 62 56 56 56 56
79 76 80 87 89 94 100 99 100 100 100 100 99 82 96 97 96 95 87 94 77 80 98 96 89 89 88 95 94 86 89 94 99 96 94 89 89 78 64 66 65 57 56 58 60 63 67 62 61 64 65 53 52 51
80 86 85 88 94 98 99 100 100 100 98 99 99 94 83 84 91 90 88 84 89 94 96 99 90 95 94 93 94 93 99 98 96 93 94 89 85 71 64 67 66 62 71 79 79 74 68 71 78 78 67 56 55 58
78 75 76 90 99 100 100 100 100 98 99 99 99 95 92 94 93 90 90 82 82 85 89 94 91 96 95 93 97 99 94 95 84 80 79 72 65 76 82 80 80 80 78 76 75 79 74 68 72 68 61 58 61 57
41 62 66 89 100 92 97 98 99 99 98 99 100 98 99 99 98 88 88 90 96 100 93 89 77 73 77 83 93 94 92 70 69 85 93 90 80 80 81 77 80 82 82 79 77 75 72 68 62 59 57 57 60 60
52 57 70 72 97 97 98 97 98 99 99 99 99 99 99 100 100 100 100 100 100 100 95 81 86 88 86 83 76 76 71 58 65 69 83 91 84 83 86 84 78 76 76 75 76 73 73 76 71 64 61 61 59 58
71 75 78 76 94 92 96 98 98 98 99 98 99 100 99 99 99 99 100 100 99 98 99 88 91 86 84 84 83 78 74 72 72 75 78 78 88 89 89 86 81 89 87 86 83 84 81 72 65 67 72 70 64 55
66 66 73 75 86 84 93 91 96 97 97 97 98 98 98 98 99 99 98 98 97 98 98 96 97 94 85 76 74 72 68 70 76 78 80 88 91 90 92 94 91 91 92 90 80 77 72 72 75 73 74 66 63 59
65 81 87 91 92 93 80 95 94 96 97 96 96 96 97 98 98 97 96 97 97 97 96 97 94 84 78 82 85 81 76 73 76 78 78 81 87 89 91 92 89 85 85 83 81 78 72 74 77 68 63 58 56 57
72 73 84 83 88 88 91 91 95 95 96 96 96 96 96 97 97 96 96 96 95 95 96 97 81 79 87 90 87 86 76 74 78 86 84 83 87 91 95 94 92 90 85 85 86 81 74 68 65 64 62 58 59 63
63 84 88 89 93 90 96 98 95 96 96 96 96 97 97 97 95 95 94 95 95 95 95 95 94 85 83 80 85 85 90 80 80 85 86 81 86 89 94 96 97 96 87 79 78 74 72 68 69 72 73 70 70 66
68 79 84 75 87 79 88 79 78 90 96 96 96 96 96 96 95 93 94 93 94 95 96 96 94 86 90 91 93 98 91 80 88 94 92 91 89 85 85 90 95 93 84 77 68 59 64 66 68 67 67 63 60 59
78 81 87 90 94 95 95 94 92 96 93 87 93 95 95 95 94 93 94 95 96 96 96 96 96 96 98 99 100 100 100 94 91 91 90 92 92 88 84 87 90 83 73 61 56 55 53 55 59 63 66 64 63 62
92 86 90 97 96 98 99 97 98 96 86 92 97 95 94 89 95 94 95 96 95 96 95 94 96 96 97 96 96 96 94 88 84 90 94 97 98 100 92 85 76 70 68 66 64 53 54 54 56 56 58 60 62 63
98 97 95 99 93 95 100 99 99 94 85 85 81 90 90 92 96 96 96 95 95 95 96 96 96 96 95 94 95 93 82 78 74 80 91 94 97 96 79 72 69 67 66 75 89 94 96 77 74 63 62 65 65 72
96 96 97 95 100 100 99 95 96 88 94 97 96 96 98 97 96 96 96 96 96 95 95 95 96 96 96 95 93 92 96 80 74 75 75 80 79 76 73 75 76 77 81 82 68 64 67 63 65 70 73 67 64 66
92 98 100 100 100 98 98 99 100 100 99 98 100 98 97 97 97 96 96 96 95 95 94 95 95 96 93 89 89 92 81 83 85 84 74 71 72 70 65 62 64 72 76 68 61 64 66 69 72 69 66 67 65 64
98 99 98 99 100 100 99 97 98 99 97 99 100 100 100 99 98 99 95 97 97 98 99 99 98 97 95 92 91 94 86 82 86 85 70 65 59 57 56 57 58 60 63 67 70 71 70 66 65 66 66 66 66 66

GFSWCAN_925_rhum_021.txt.gz
RH
84 79 83 79 81 82 78 76 65 68 79 89 91 92 95 93 97 100 98 96 89 96 84 72 64 74 96 94 96 94 95 93 97 98 94 90 90 92 90 76 83 86 93 95 93 98 90 41 38 38 51 48 64 70
79 83 86 83 82 82 80 71 67 69 77 88 90 90 96 95 95 100 99 99 98 98 95 87 71 69 66 81 92 98 96 88 90 93 94 90 85 75 89 92 77 84 76 88 78 72 54 52 51 48 51 56 63 70
79 79 86 85 82 81 81 70 68 70 75 87 88 91 98 96 97 100 98 99 99 99 91 94 88 81 77 82 87 94 95 94 88 90 90 84 87 78 75 72 76 64 57 68 62 56 54 54 50 48 56 64 66 65
84 81 88 86 84 77 83 74 70 70 78 88 89 95 98 96 98 100 98 97 90 95 99 92 78 81 78 81 92 97 95 89 90 93 93 89 89 72 81 64 64 59 56 59 61 62 56 54 51 62 64 63 66 67
90 86 86 88 85 77 81 81 71 72 80 90 93 94 98 100 100 100 99 94 88 99 98 93 79 76 77 85 95 99 94 95 95 94 91 91 82 74 76 67 67 58 55 61 63 54 49 57 63 59 61 66 64 67
85 87 80 84 87 87 86 84 72 74 84 88 94 93 98 99 100 99 100 98 96 100 100 100 82 76 73 80 92 93 94 93 91 93 88 85 74 75 81 79 57 55 50 46 48 53 58 61 63 60 68 71 69 70
97 93 88 88 89 87 88 80 73 80 89 94 92 94 98 97 100 98 92 92 100 98 99 98 97 80 73 76 84 89 81 91 89 89 89 89 84 80 88 90 60 57 60 62 59 56 66 60 69 67 69 70 68 70
93 94 91 90 90 88 85 77 78 84 95 90 93 99 93 98 100 100 97 98 100 95 97 100 100 95 75 92 92 87 93 91 89 92 87 89 85 85 89 73 60 64 67 68 66 62 63 68 69 72 68 69 74 74
96 94 93 92 90 87 80 76 86 84 87 93 99 99 99 100 100 100 98 100 96 92 99 99 100 100 83 91 89 88 92 95 91 93 92 90 90 95 74 72 68 70 65 81 86 80 75 76 80 78 74 73 72 77
93 94 93 90 89 82 78 84 85 94 92 100 94 100 100 100 95 95 98 98 100 100 97 97 93 97 90 90 97 92 97 99 98 92 90 95 96 79 78 72 67 76 82 80 86 97 88 87 82 74 66 66 68 72
92 91 91 88 83 79 80 84 80 97 90 98 98 100 100 97 81 92 100 100 100 100 98 95 92 97 86 93 93 93 99 99 97 89 94 98 97 85 76 68 79 85 80 77 78 82 74 72 69 65 72 71 71 74
92 90 87 83 79 82 86 84 83 96 98 99 100 99 100 94 100 99 92 100 100 99 99 98 97 91 97 91 92 91 96 95 96 89 94 94 87 75 76 82 91 89 84 88 84 84 76 64 63 67 71 76 82 85
86 84 79 76 83 86 80 84 89 100 99 100 100 100 100 100 99 98 99 99 99 100 100 98 98 85 93 95 95 93 93 97 86 93 92 88 88 83 82 88 89 84 82 80 74 61 62 70 67 70 83 86 85 86
83 79 79 80 90 82 82 84 97 99 100 100 100 99 99 99 96 91 83 92 91 100 99 91 94 90 84 92 89 86 92 87 98 100 88 89 84 88 88 85 72 72 65 60 61 62 65 69 76 77 81 83 84 87
80 76 65 61 78 84 85 94 99 100 97 100 100 99 99 98 99 99 100 98 100 92 84 90 92 84 98 89 89 90 98 100 88 84 87 95 94 91 81 69 68 65 60 60 59 62 67 70 73 78 74 71 68 64
81 58 52 73 86 84 90 96 99 100 100 100 100 99 97 96 98 97 99 100 100 83 94 91 97 92 94 93 97 91 87 87 78 91 97 97 93 86 76 70 65 57 55 58 60 64 67 68 69 71 64 60 58 56
72 54 63 86 82 90 96 99 100 100 100 100 99 96 96 99 100 97 93 95 80 78 89 94 81 72 93 99 97 91 87 84 98 98 98 96 92 78 70 70 67 59 58 60 64 66 68 66 62 62 66 61 56 53
69 50 66 82 88 91 96 99 100 100 98 99 99 99 86 89 96 94 93 88 92 97 94 85 90 97 94 90 94 91 100 100 98 97 96 90 82 76 68 71 68 65 68 72 76 76 75 72 70 69 71 63 60 59
72 72 70 83 97 99 97 97 99 98 99 99 99 100 97 96 95 91 93 85 86 88 90 94 92 96 94 94 97 100 99 98 95 95 91 78 72 76 80 79 77 77 78 78 76 81 79 72 70 66 65 62 65 65
35 46 56 78 96 86 97 96 96 99 98 98 99 99 99 99 99 93 92 90 97 96 84 84 82 83 84 89 96 97 94 83 86 92 93 91 83 78 77 71 73 81 82 80 78 75 74 72 66 62 59 62 66 70
46 49 60 67 88 94 100 100 96 99 98 98 99 99 99 100 100 100 100 100 100 99 95 87 92 92 91 92 87 82 71 72 79 82 84 93 82 80 83 84 80 78 79 80 79 76 73 73 70 68 66 63 62 61
61 75 70 71 88 89 96 97 99 98 98 98 98 99 99 99 99 99 100 98 98 98 100 94 97 95 87 85 87 76 75 76 77 79 80 78 84 83 83 83 78 89 90 87 84 85 82 75 68 63 63 66 60 58
73 59 62 68 74 80 80 89 95 94 97 96 97 97 97 98 98 100 97 97 96 97 97 97 97 87 83 78 77 79 76 78 84 84 84 90 92 88 90 91 86 88 92 91 83 80 79 79 78 67 64 53 56 58
65 78 81 87 89 84 81 92 94 96 97 96 96 96 96 97 97 97 96 98 97 93 95 97 97 96 92 88 89 87 80 79 83 85 83 84 93 97 96 95 90 86 86 86 84 85 83 83 80 62 58 52 48 51
58 61 76 80 89 85 95 94 94 95 96 96 96 96 96 97 97 96 96 96 94 94 93 94 96 96 96 95 94 94 81 76 80 87 86 86 93 94 97 99 98 91 81 82 86 88 87 76 64 56 52 52 57 60
54 70 67 94 94 87 96 100 98 98 97 96 96 96 97 96 95 95 94 95 95 95 95 95 95 96 94 94 94 94 95 82 80 87 92 85 83 86 92 94 95 93 82 76 77 79 74 65 60 56 59 69 70 59
64 73 89 78 90 86 89 83 81 95 98 97 96 95 96 95 95 93 93 92 94 95 96 96 96 95 94 94 96 98 88 81 90 98 97 85 84 86 86 90 93 92 81 72 68 59 64 66 69 71 71 66 59 54
76 76 78 87 96 98 95 97 99 100 99 86 91 95 95 94 93 93 94 95 96 95 96 96 96 96 96 96 97 98 100 99 96 94 94 94 89 84 80 82 82 79 75 69 58 53 53 57 58 53 51 53 58 59
95 90 89 99 99 100 100 98 100 99 90 100 99 95 93 88 94 94 96 96 96 96 95 95 96 96 96 96 96 97 94 86 79 89 93 95 93 100 92 87 77 68 65 60 54 50 47 46 49 51 55 57 60 63
97 97 98 100 93 94 97 98 99 94 91 92 86 93 89 91 96 96 96 95 95 95 96 96 96 96 95 94 95 96 96 96 94 84 88 92 95 96 82 74 68 65 64 73 84 86 90 79 76 62 61 63 59 57
97 98 98 98 100 100 100 98 98 92 96 100 100 97 95 96 96 95 96 96 96 96 95 95 96 96 96 95 94 94 95 87 79 74 71 85 89 78 71 68 69 74 79 79 69 66 64 58 58 61 61 54 56 54
98 100 97 100 100 98 99 100 100 100 100 100 100 100 96 95 96 94 96 96 95 95 95 95 95 96 95 96 96 88 76 91 93 86 75 74 73 72 72 76 79 72 58 56 56 58 58 60 62 57 53 54 56 58
100 99 100 100 100 100 100 97 100 100 99 100 100 100 100 99 96 94 96 96 96 96 96 95 95 95 96 92 85 87 82 79 77 72 65 65 66 71 75 76 70 58 54 57 61 62 62 58 53 54 55 57 58 61

GFSWCAN_925_rhum_024.txt.gz
RH
84 86 75 76 84 86 82 83 80 67 64 76 81 92 92 93 94 99 100 87 86 95 83 67 65 87 97 93 96 94 99 92 97 96 93 93 91 92 89 69 83 85 90 94 93 96 87 47 38 37 46 64 68 70
84 81 83 78 84 86 81 82 81 70 68 72 81 92 94 96 97 100 100 96 95 96 93 87 74 67 64 76 92 97 97 91 88 91 93 90 90 92 89 97 79 90 79 91 80 79 59 54 49 51 54 64 67 79
87 89 89 85 84 86 82 76 82 76 69 70 80 90 92 95 98 100 100 99 99 98 90 92 86 76 77 74 83 96 95 94 96 87 90 87 88 73 91 90 85 75 67 78 70 59 56 53 51 56 57 68 73 73
89 83 82 87 81 86 85 78 85 83 71 73 82 88 92 94 98 100 100 97 89 94 97 88 81 82 79 77 93 96 98 97 98 98 94 87 86 78 81 68 78 76 65 64 67 59 56 55 53 67 74 72 74 73
91 90 90 92 86 83 87 86 86 81 73 80 88 94 91 94 98 99 100 93 85 96 99 96 81 79 81 85 94 99 96 98 99 99 92 90 86 78 81 77 78 62 64 68 73 54 51 54 68 67 69 74 73 72
90 84 88 93 91 87 87 85 85 76 79 82 88 94 88 94 95 100 99 98 92 93 97 100 84 78 83 91 94 96 96 95 98 95 91 90 76 78 84 82 56 54 51 50 49 59 64 66 68 64 71 73 72 73
94 94 94 94 93 90 87 86 79 76 82 86 88 87 89 97 100 99 93 85 93 93 99 99 96 82 76 85 92 94 96 98 98 94 94 86 81 80 88 93 63 58 60 64 63 58 66 61 72 70 72 74 73 77
95 92 91 92 91 88 86 79 76 83 85 84 91 92 96 98 99 99 100 98 99 96 98 100 100 93 76 93 95 94 97 95 89 94 89 91 86 87 91 75 63 69 71 71 74 66 66 75 74 76 73 73 79 84
94 91 90 89 89 84 79 77 81 81 80 85 97 99 98 100 100 99 100 100 92 89 99 100 100 99 84 92 90 90 94 98 92 94 94 92 91 94 73 69 70 73 64 86 88 80 76 78 82 81 79 78 79 83
93 91 90 87 84 81 80 84 79 77 83 89 97 99 100 99 97 97 99 98 100 100 96 97 92 99 91 91 97 92 97 99 100 93 91 96 96 81 78 76 68 75 83 80 84 93 88 87 84 81 72 71 70 75
93 90 86 83 79 80 85 78 79 87 96 97 99 99 94 100 91 97 100 100 100 100 99 95 93 98 88 92 92 92 99 100 97 92 93 97 98 88 77 76 76 83 80 74 76 77 72 72 72 75 79 78 76 69
87 86 83 81 80 85 83 80 83 92 99 98 100 100 99 100 100 100 96 100 99 97 99 98 98 92 95 90 93 93 95 97 95 91 95 98 88 76 78 83 88 89 86 85 79 80 73 66 66 70 74 78 73 80
86 82 82 81 76 83 80 84 82 94 98 99 99 100 100 100 100 98 98 100 100 100 100 99 98 92 97 94 97 92 93 97 87 96 93 88 86 81 84 94 94 90 90 87 75 68 68 72 69 70 76 80 83 85
87 84 77 81 64 75 85 85 87 99 99 100 100 98 99 99 97 94 90 95 92 98 99 90 95 91 85 93 93 91 93 86 100 100 82 90 85 86 91 91 90 92 82 73 71 68 69 71 76 77 80 83 87 90
88 70 51 34 71 87 84 90 94 99 98 99 100 98 100 99 99 98 99 98 100 94 87 90 92 81 94 91 86 92 98 100 87 79 86 93 91 95 88 81 80 75 71 68 64 67 74 76 82 88 85 84 84 81
88 52 33 60 86 83 91 96 99 100 100 99 100 99 99 98 98 98 99 100 100 89 92 90 91 85 90 91 96 89 88 85 75 91 95 97 94 85 82 78 74 66 63 62 65 68 71 73 76 78 72 71 69 67
68 42 54 69 83 86 92 96 100 99 99 99 99 99 99 99 97 95 92 93 89 83 90 92 78 76 92 99 90 88 83 81 92 99 98 97 90 82 76 74 69 64 64 64 65 68 71 71 68 66 69 65 57 55
78 60 71 82 83 92 89 99 97 99 99 99 99 98 99 88 95 94 91 93 92 96 88 79 88 98 94 84 88 87 100 100 99 98 98 91 85 81 71 73 69 66 66 67 72 72 72 71 68 71 75 66 62 59
85 80 74 72 93 87 96 88 98 100 96 99 98 99 100 98 94 95 96 86 86 90 89 92 87 92 88 92 91 100 100 98 96 97 90 82 77 77 82 80 76 76 76 75 69 70 71 65 67 67 65 62 64 62
42 42 53 56 82 83 97 95 92 98 98 97 99 99 99 99 99 98 92 87 92 91 79 87 79 82 87 88 96 97 97 93 91 92 90 88 87 83 82 75 74 80 82 84 82 76 72 70 69 66 63 64 63 64
44 54 56 58 88 94 100 99 99 99 99 100 98 99 99 100 100 100 100 100 100 99 93 87 86 90 92 95 90 89 87 83 87 84 78 86 85 82 84 82 74 72 74 79 77 72 69 69 69 66 69 69 63 56
56 66 63 66 81 83 96 96 100 96 100 98 97 98 98 98 99 99 100 98 98 99 96 98 99 98 94 88 85 80 83 83 82 78 78 77 83 84 81 80 75 84 84 85 82 83 86 78 71 66 65 67 58 57
72 59 57 62 68 72 69 86 97 97 99 95 96 97 97 97 98 99 97 97 96 93 95 96 99 92 87 84 84 85 83 84 87 84 80 85 88 84 85 84 84 86 91 91 82 84 82 75 74 66 67 60 56 58
63 76 77 79 86 75 77 88 87 98 96 96 97 95 96 97 97 97 95 95 94 92 92 95 98 97 90 90 91 91 89 84 85 85 83 82 91 91 90 89 87 84 85 85 85 88 82 76 75 65 59 59 57 52
58 55 69 61 88 82 98 94 96 96 99 97 98 95 96 97 96 95 94 95 93 94 93 92 94 96 96 97 96 94 82 81 84 95 93 88 92 94 95 94 92 89 84 87 91 90 89 78 65 62 58 50 52 55
64 64 62 80 90 80 94 95 98 98 98 99 97 96 97 96 95 95 93 94 95 95 94 94 95 94 94 94 94 94 99 85 82 87 96 95 86 85 90 90 91 91 83 81 84 86 79 68 60 52 54 65 64 53
71 71 88 78 88 88 90 85 82 96 100 100 98 97 97 96 94 92 91 92 94 94 96 96 96 94 95 94 96 96 97 97 96 96 96 94 85 85 83 84 87 87 80 76 75 71 67 60 57 59 69 70 54 47
76 75 85 90 96 98 92 98 100 100 100 90 87 97 97 95 94 94 95 94 98 96 96 96 96 96 96 96 96 96 97 96 96 95 93 93 90 84 79 77 77 76 74 72 67 60 51 48 56 62 56 50 52 54
98 91 90 100 100 100 100 95 97 99 91 100 100 96 96 89 99 97 91 97 96 96 95 95 96 95 96 96 96 96 96 96 91 94 92 93 93 99 97 89 82 75 71 66 56 49 49 50 48 42 45 50 52 54
96 95 99 100 96 94 96 98 99 96 93 93 89 98 94 97 94 95 96 94 95 95 96 96 96 95 95 94 95 96 96 96 96 91 91 93 94 97 88 77 72 66 59 58 68 77 81 70 71 53 55 58 59 57
96 97 99 98 97 100 99 95 97 92 96 100 100 98 98 96 93 95 96 96 96 96 95 95 96 96 96 96 95 95 95 96 96 96 95 94 92 83 74 67 60 57 63 72 77 74 74 61 56 58 59 59 62 53
98 100 98 100 100 98 98 100 100 100 100 100 100 100 99 98 97 96 96 96 95 95 95 96 95 96 96 96 96 96 96 96 96 92 89 85 80 73 65 61 62 65 71 69 57 56 55 56 59 57 51 51 52 52
99 98 100 100 100 100 99 97 100 99 100 100 100 100 100 99 96 98 95 96 96 96 96 96 96 96 96 95 95 96 95 92 94 86 70 64 61 63 69 75 68 54 51 53 57 58 59 58 52 50 51 51 51 55

GFSWCAN_925_rhum_027.txt.gz
RH
86 85 84 89 86 79 82 84 79 80 79 69 68 77 90 92 96 99 96 95 98 94 85 70 70 91 98 91 96 90 98 96 98 98 96 93 84 84 81 65 84 88 89 86 93 94 77 56 46 42 47 62 69 69
83 82 84 80 86 84 77 85 81 86 83 74 70 76 89 91 96 97 99 100 94 92 91 89 77 71 71 81 90 97 95 92 90 86 90 88 92 93 88 94 81 88 77 86 83 79 61 54 54 54 57 64 70 79
92 89 87 84 84 88 82 83 86 83 84 75 73 78 88 91 94 100 99 100 98 98 90 92 88 78 80 77 79 93 94 90 96 92 88 87 90 90 97 94 86 79 74 82 74 61 62 53 53 61 66 73 82 81
90 88 82 80 82 88 85 88 86 84 83 74 78 82 90 91 91 99 100 100 93 94 97 87 84 82 81 83 94 92 96 96 98 98 94 89 91 80 85 75 85 80 74 74 74 63 57 54 56 70 77 75 75 74
89 92 91 91 90 90 90 89 86 86 78 76 78 87 97 89 93 96 99 97 91 97 99 96 82 83 85 88 97 100 98 98 99 99 99 94 88 81 86 82 85 67 73 74 75 56 50 53 67 72 74 76 73 72
93 93 91 90 91 93 89 87 86 79 76 81 86 85 89 92 96 98 100 94 96 90 98 100 85 81 91 92 94 96 97 97 99 99 95 92 78 73 86 90 65 63 56 57 54 61 70 73 72 68 76 75 72 72
94 92 88 88 87 85 86 82 78 77 79 83 80 79 84 92 98 98 98 99 100 91 99 99 96 84 85 89 94 95 95 98 99 98 98 91 83 83 85 91 66 61 54 63 68 64 70 63 72 74 75 77 77 80
93 92 88 86 83 80 77 77 81 82 76 78 84 89 98 99 96 98 85 96 100 94 98 100 99 93 78 95 98 96 97 98 94 97 90 95 88 87 91 77 66 69 73 73 77 70 64 74 75 79 77 75 82 86
95 92 89 86 82 80 79 82 78 77 77 88 98 99 100 100 100 98 99 100 96 88 100 100 100 97 86 94 90 93 96 99 92 95 95 94 92 94 73 68 72 75 69 83 89 83 79 80 85 86 84 82 85 91
96 93 88 86 83 82 81 81 77 80 86 89 96 100 100 100 100 99 100 99 100 100 96 97 92 99 93 93 98 92 97 99 99 93 93 98 97 82 78 74 70 74 84 81 84 94 90 90 88 84 79 79 79 85
96 91 88 86 85 81 77 80 76 86 83 97 98 99 96 94 99 96 100 100 100 100 99 96 92 97 88 93 93 93 99 100 97 92 95 92 98 89 79 78 77 83 81 73 71 76 71 74 78 80 82 81 78 72
94 83 88 88 86 76 79 78 82 90 97 98 100 99 99 99 100 99 100 100 99 95 99 98 97 91 94 90 92 94 96 98 92 92 95 98 91 79 79 82 85 87 84 80 76 78 77 73 72 74 77 78 71 69
93 76 88 90 88 69 79 85 82 91 94 98 99 100 100 100 100 98 99 99 100 100 100 99 99 96 97 90 96 92 88 94 88 97 96 92 86 80 84 93 94 90 88 85 79 73 71 75 71 71 80 75 70 68
95 78 84 84 48 81 88 86 89 98 98 100 100 98 99 99 99 97 97 96 95 99 99 93 96 92 88 95 95 96 93 88 100 100 84 90 80 81 91 93 93 94 85 79 76 73 73 72 76 76 76 73 72 73
93 76 66 37 79 89 84 91 90 94 99 100 100 97 99 100 99 97 99 99 97 97 92 90 92 80 94 95 85 94 97 99 90 81 87 90 87 97 94 92 91 85 79 77 74 74 77 75 82 88 86 80 77 71
93 66 36 55 78 85 85 92 98 99 100 100 99 99 99 99 98 97 98 98 100 96 93 92 88 90 88 91 97 92 91 88 78 90 93 98 94 90 89 86 83 76 72 73 74 75 78 79 84 86 84 80 71 62
84 50 61 76 87 73 87 90 97 99 99 96 99 98 99 99 98 99 92 92 88 95 95 90 86 77 91 96 91 88 84 81 91 96 99 98 94 90 86 82 79 74 74 72 71 73 76 78 77 76 76 71 64 59
84 71 85 77 78 80 80 87 97 98 96 98 99 97 94 96 99 95 89 88 97 97 89 81 89 99 91 85 86 85 94 96 99 98 98 92 88 85 78 80 78 74 73 71 76 76 76 74 71 75 78 70 63 60
94 94 72 65 83 88 88 90 94 98 98 93 94 96 92 93 98 98 96 94 87 90 90 90 87 91 88 90 87 95 99 98 96 98 91 85 83 83 84 82 80 80 78 75 69 70 72 67 70 69 65 61 63 63
64 56 57 50 72 86 96 95 93 94 100 96 96 98 98 95 98 99 98 94 92 94 94 89 82 77 81 84 89 96 96 94 95 96 95 93 91 87 85 79 77 79 79 76 74 72 71 68 66 64 62 60 59 62
57 62 56 56 92 94 96 96 100 98 93 98 98 100 98 99 99 99 100 100 100 100 98 88 86 88 88 91 87 90 91 91 92 89 91 98 92 86 88 85 75 70 70 70 72 70 69 70 70 66 65 61 56 53
61 66 57 60 79 80 96 95 98 96 94 99 98 99 100 98 98 98 98 99 97 96 95 94 96 92 88 87 87 85 87 86 82 79 77 81 90 90 85 80 74 81 76 77 77 79 83 77 69 66 61 62 54 54
70 59 55 59 65 67 64 87 96 99 100 98 96 96 97 98 98 98 96 96 95 93 92 94 94 93 90 88 89 90 87 88 92 88 82 85 84 82 84 83 83 84 89 90 81 80 80 74 77 67 67 60 59 63
61 73 72 73 81 69 76 88 87 99 96 95 100 98 93 98 96 97 95 95 94 92 90 93 91 92 89 89 94 93 92 85 90 85 81 83 91 90 86 86 85 81 82 86 80 82 83 78 76 72 66 65 63 54
60 56 73 53 87 76 95 93 99 96 100 98 100 96 96 99 97 95 94 95 94 94 94 92 92 93 96 95 93 93 90 86 88 94 83 82 86 86 89 88 87 86 83 85 84 82 85 80 72 69 65 59 54 51
71 68 71 71 86 74 91 85 97 97 99 100 97 96 98 97 97 96 93 95 95 95 94 94 95 93 92 94 95 96 96 90 86 91 93 83 81 82 88 89 91 92 84 80 81 82 80 75 70 63 59 64 61 50
73 72 83 75 87 88 91 86 83 96 100 100 99 99 98 96 96 93 90 91 93 94 96 96 96 94 94 95 96 96 96 92 86 96 98 98 97 93 83 85 87 88 82 77 73 70 73 69 63 57 60 65 56 44
78 78 87 93 97 97 88 99 100 96 98 91 91 100 98 94 90 94 98 92 95 98 96 96 96 96 96 96 96 96 96 96 96 96 96 96 97 97 96 83 83 84 77 71 69 69 61 57 51 53 58 53 52 53
98 92 91 100 100 100 99 89 94 96 90 96 97 97 95 91 97 98 86 88 93 100 96 95 95 96 96 96 96 96 96 97 94 95 94 94 94 100 98 94 91 90 90 85 69 61 53 45 47 50 45 46 50 51
96 95 99 100 96 91 94 97 100 99 94 92 89 97 95 97 88 90 96 96 97 98 96 96 96 95 96 96 95 96 96 97 97 90 90 90 95 100 98 96 96 94 78 69 72 78 81 68 64 46 48 52 55 58
97 97 100 99 96 99 99 95 97 90 96 100 100 100 97 98 88 93 96 98 98 97 96 95 96 96 96 96 96 95 95 96 97 96 92 95 97 96 96 96 89 73 70 74 74 67 60 49 48 53 57 58 58 48
98 100 99 100 100 98 98 100 100 100 100 100 100 100 99 99 98 97 92 96 94 95 95 95 95 96 96 96 96 96 96 96 96 96 95 95 95 95 89 71 64 58 57 57 54 49 46 48 54 55 56 52 49 48
99 99 100 100 100 100 99 98 100 100 100 100 100 100 100 99 96 96 92 96 96 96 96 96 96 96 96 95 95 96 95 96 96 96 96 96 87 68 58 57 57 57 54 50 49 50 53 54 54 50 47 46 46 47

GFSWCAN_925_rhum_030.txt.gz
RH
83 88 83 87 83 82 82 85 84 85 82 83 79 72 76 90 94 98 97 99 100 96 87 72 71 89 97 91 96 92 98 98 98 95 97 94 93 83 84 65 85 87 95 90 86 96 76 58 52 48 52 60 65 66
88 89 85 82 84 74 83 85 83 86 85 84 78 74 78 92 93 93 95 91 100 98 94 90 78 69 73 82 91 98 94 97 88 90 96 91 93 94 87 94 81 90 80 79 84 84 60 60 58 58 63 68 71 75
94 93 87 89 88 88 86 87 88 86 83 84 75 74 79 93 92 94 98 98 99 96 90 93 87 83 85 86 86 96 96 87 97 95 90 88 92 90 98 96 85 78 78 84 78 62 64 59 56 70 72 82 85 83
95 92 90 88 85 87 90 91 86 86 84 79 74 76 86 89 92 94 99 93 100 94 98 86 84 87 91 86 94 94 94 94 97 99 97 90 88 78 88 81 87 80 77 77 79 70 65 60 63 77 82 79 78 76
94 93 90 85 84 84 84 85 86 81 78 76 78 83 85 84 86 90 88 87 99 100 100 95 85 88 90 94 99 100 98 97 98 99 99 96 88 83 89 85 90 76 76 78 76 61 56 56 75 76 78 78 75 73
94 92 88 86 82 78 77 75 75 76 78 83 81 77 79 83 87 92 98 86 97 98 96 100 88 85 94 94 97 98 97 98 99 98 97 93 81 77 90 92 70 67 61 62 60 61 73 77 74 72 79 78 75 71
94 92 89 87 84 80 78 77 78 79 74 77 82 80 84 89 93 96 97 98 99 100 100 99 95 86 87 90 95 98 97 98 99 98 98 94 85 84 87 92 61 66 65 62 69 69 72 66 77 77 76 77 74 73
95 93 90 88 85 83 80 77 77 75 78 78 84 94 94 96 98 99 74 78 90 100 99 100 99 94 81 96 98 97 98 99 98 98 94 95 89 87 94 78 68 71 77 75 75 70 67 80 80 83 75 73 75 77
96 95 92 89 87 85 82 76 77 76 82 87 92 98 98 99 100 98 100 100 97 95 100 100 100 94 86 95 92 94 95 99 94 97 95 95 93 96 78 70 72 76 70 82 90 86 83 84 87 85 81 78 79 83
96 96 94 90 89 88 84 76 77 82 83 84 79 97 100 100 95 99 100 94 100 100 97 99 89 97 94 94 98 94 96 99 100 94 92 99 98 81 77 73 70 76 83 82 85 95 92 92 90 86 77 75 74 78
96 96 95 92 91 90 86 75 81 82 78 89 98 100 91 90 100 96 100 100 100 100 99 94 92 98 90 94 92 92 99 100 97 92 96 88 97 89 81 83 79 82 82 76 68 77 71 73 79 84 88 86 80 74
96 96 96 93 92 85 72 84 83 85 90 97 100 100 99 97 100 100 100 100 100 94 99 98 94 90 94 90 93 94 96 97 94 92 97 96 91 82 82 85 83 86 82 75 75 80 79 77 75 79 82 80 72 65
96 96 96 94 91 71 87 86 85 90 89 95 99 100 100 99 99 92 99 100 100 99 100 99 99 97 96 91 95 92 86 93 87 97 97 93 86 80 82 91 92 88 83 83 83 79 76 79 75 75 76 66 63 62
96 96 94 91 59 90 92 85 90 92 88 98 98 98 98 99 99 100 99 98 96 100 100 96 97 94 90 96 96 100 94 87 98 100 85 89 75 79 91 93 92 92 86 85 83 79 77 77 79 71 65 62 62 63
95 91 87 52 72 94 88 90 94 96 99 99 97 96 99 99 99 100 100 100 97 99 96 91 94 81 95 96 84 95 98 99 94 84 87 90 84 98 96 94 94 90 87 84 79 78 80 76 76 74 68 66 65 64
95 82 42 61 81 88 80 91 90 99 100 99 99 98 99 99 98 99 97 97 98 99 95 95 91 91 86 93 98 99 95 93 80 91 93 97 94 93 93 92 89 84 80 80 79 80 81 78 79 82 73 67 64 61
91 69 58 80 87 66 82 84 87 98 99 91 98 97 99 99 98 99 100 91 88 97 98 94 89 81 90 98 98 89 86 83 91 93 98 98 96 92 91 89 87 84 84 82 79 78 81 80 75 70 72 70 63 61
88 76 88 90 67 70 77 81 93 95 94 93 99 98 95 92 94 96 98 92 98 100 92 87 87 100 91 88 88 86 94 97 100 99 98 93 91 88 86 89 86 83 82 79 81 83 81 79 77 77 79 73 67 64
94 96 92 58 60 84 87 88 91 95 93 93 84 88 88 86 83 88 94 97 97 93 97 98 90 93 90 93 92 94 99 100 94 97 93 87 87 89 89 88 86 86 85 83 78 75 76 72 75 72 68 64 65 65
91 74 66 52 63 87 93 95 95 90 96 96 96 90 97 91 90 94 97 99 100 100 100 99 89 80 89 90 96 96 97 92 96 96 94 93 92 90 90 85 83 83 81 78 75 73 72 70 67 66 63 62 61 63
73 64 57 57 87 94 94 93 99 97 93 90 94 100 97 98 92 96 98 99 100 100 99 97 94 89 87 92 87 91 92 94 94 90 92 100 95 92 92 89 80 74 72 72 70 70 67 67 68 64 66 61 59 55
66 65 58 59 79 84 98 94 97 98 91 89 99 100 98 99 100 98 98 99 96 95 93 92 94 92 89 87 87 87 88 89 85 86 85 87 95 94 92 85 77 82 76 72 72 74 76 78 71 64 59 61 54 58
71 61 54 57 66 66 62 88 97 100 99 100 98 96 97 99 97 97 97 96 95 93 93 92 93 95 94 92 88 92 89 88 93 93 92 92 88 87 87 82 81 85 88 85 78 78 80 75 72 65 66 61 62 67
62 69 64 69 76 61 75 88 88 99 97 96 100 99 92 99 96 98 96 98 93 93 92 93 92 92 95 97 97 96 94 89 92 91 88 89 94 94 84 81 81 77 78 82 78 79 82 77 73 69 66 69 67 59
63 59 70 54 87 75 81 91 100 96 99 99 100 99 95 100 99 99 98 97 93 94 93 92 90 92 94 95 95 96 97 91 92 94 88 86 89 87 88 83 83 81 78 82 83 81 83 80 73 72 69 65 60 54
72 69 74 69 80 70 84 77 97 95 100 100 99 96 100 98 99 96 96 98 97 95 94 94 94 92 88 93 94 95 96 97 94 93 90 85 80 83 89 90 92 89 82 80 82 84 82 78 74 70 68 69 62 51
81 73 78 70 84 86 94 88 84 96 100 100 99 99 99 97 98 91 93 97 98 90 93 98 96 93 92 91 94 96 96 97 97 93 95 87 81 89 90 87 85 88 81 84 80 74 76 75 72 72 73 68 56 43
81 81 86 95 97 96 86 98 100 98 95 91 95 100 100 92 89 94 95 87 84 91 95 94 96 96 97 96 96 96 96 96 97 96 97 97 97 97 97 91 86 90 92 76 70 68 66 68 76 65 60 56 50 45
96 91 91 100 100 100 98 86 87 94 88 94 94 96 95 92 97 98 80 83 90 96 100 95 91 95 95 95 96 96 96 96 95 96 94 94 94 96 97 97 96 90 77 78 72 66 81 71 54 48 47 43 47 51
96 95 97 100 96 90 92 97 100 99 95 91 88 96 95 96 85 83 88 92 98 99 97 100 100 97 96 96 96 96 96 96 97 94 92 94 95 97 96 97 96 90 90 94 94 90 86 72 65 46 46 52 52 54
96 96 98 98 96 99 100 96 97 90 96 100 100 100 97 98 86 90 93 94 98 99 99 96 94 95 96 95 96 96 95 96 97 97 95 95 96 95 96 100 97 96 96 94 90 79 72 51 45 49 54 58 62 47
97 100 100 100 100 98 99 100 100 100 100 100 99 100 100 99 99 97 89 92 92 94 93 96 95 95 96 96 96 96 96 96 96 96 95 96 96 96 96 96 96 96 94 73 63 53 42 44 51 53 56 55 46 41
99 100 100 100 100 100 99 99 100 100 100 100 100 100 100 99 96 93 92 94 94 96 96 96 96 96 96 96 96 96 95 95 96 98 96 96 95 96 95 95 85 66 58 52 46 44 46 48 51 51 47 42 40 39

GFSWCAN_925_rhum_033.txt.gz
RH
86 81 89 83 86 84 84 84 84 87 86 82 85 76 74 84 97 92 90 100 99 97 86 75 71 88 91 88 97 94 98 98 98 99 98 90 97 86 83 73 88 86 92 98 93 91 89 63 57 58 58 64 66 65
85 87 86 86 86 81 82 86 90 87 84 86 81 75 73 84 95 95 93 84 98 100 91 88 80 72 69 71 89 96 93 92 90 93 95 91 95 91 86 94 77 92 83 76 75 78 63 66 60 61 73 75 75 76
87 92 89 87 83 80 79 82 84 86 85 80 76 75 76 86 87 91 98 92 100 98 89 89 85 86 78 74 70 95 97 89 97 94 91 88 96 84 94 96 84 78 79 86 77 61 68 60 59 76 81 86 88 83
90 91 88 88 84 80 75 74 76 75 75 74 74 77 81 82 83 85 94 93 98 98 98 85 85 88 91 90 94 92 95 97 95 99 99 94 89 82 89 83 88 80 81 80 81 72 68 65 69 78 81 80 75 71
93 92 87 88 86 82 78 77 76 76 74 79 76 73 76 79 82 86 83 84 92 100 98 94 86 91 91 97 100 100 98 96 97 99 99 97 88 85 88 86 92 84 78 79 74 61 59 60 76 76 77 79 72 68
95 90 91 90 88 84 81 79 77 76 74 74 81 81 82 83 85 90 98 100 100 100 99 99 90 88 96 97 99 98 97 98 98 96 95 93 84 81 94 93 70 74 66 65 62 63 75 77 75 72 77 75 70 65
95 89 91 91 89 86 83 82 79 77 76 77 85 88 87 86 86 95 95 98 94 98 100 99 95 87 89 92 95 98 99 98 99 98 98 98 89 88 94 92 65 68 67 62 65 74 73 74 76 75 73 71 68 64
95 89 91 93 91 88 86 84 79 79 79 83 86 95 91 89 91 97 76 93 84 100 99 100 99 93 84 96 98 95 99 99 100 98 97 97 91 90 96 81 70 66 71 74 74 69 69 80 80 81 72 69 72 70
95 94 93 93 92 90 88 84 78 80 83 86 90 93 93 97 98 97 100 100 95 99 100 99 100 93 88 94 93 96 96 99 97 99 97 96 95 98 80 76 72 80 74 76 88 87 82 85 85 81 76 73 72 73
94 94 93 94 94 93 89 79 79 83 84 77 78 89 90 97 92 99 100 100 100 100 98 99 92 94 94 95 98 97 96 98 100 95 94 99 98 81 80 75 72 74 79 84 90 97 97 93 89 81 71 67 67 69
96 94 94 95 95 94 79 84 86 84 76 83 97 99 84 91 99 97 99 99 100 100 98 94 92 94 91 97 94 94 99 100 99 91 96 93 96 88 82 83 82 80 83 74 67 76 74 74 76 80 80 77 72 67
96 93 92 96 95 93 78 90 86 88 94 94 98 98 98 95 100 99 100 100 99 92 98 99 94 90 93 92 92 94 95 97 95 91 98 95 88 78 81 87 84 85 82 74 74 81 79 76 74 77 78 74 68 65
96 95 95 95 95 82 92 90 88 92 84 94 99 99 95 100 99 95 99 97 100 99 100 99 99 95 95 90 94 92 87 93 87 97 96 94 85 78 80 90 91 86 81 84 86 83 80 82 78 74 72 66 64 62
96 96 96 95 81 92 93 89 94 88 85 95 95 93 93 98 99 99 99 100 98 100 100 98 98 96 92 97 97 80 94 89 98 100 90 90 74 77 89 92 90 90 87 88 86 83 82 79 75 67 64 62 62 61
96 96 97 73 77 95 89 80 94 82 95 92 93 96 99 97 99 100 100 100 96 98 100 95 96 82 95 96 88 94 97 97 98 89 88 91 84 97 93 93 93 90 91 89 84 83 81 73 69 67 63 61 60 59
96 91 57 65 80 88 69 86 82 95 99 98 98 97 95 93 98 95 98 97 97 100 98 98 94 94 88 95 94 98 99 96 82 91 94 96 90 93 93 92 90 89 88 86 82 79 75 71 69 70 66 63 60 58
95 83 60 81 94 56 79 80 76 97 99 94 98 94 97 96 98 96 99 98 89 99 100 99 98 84 91 100 100 93 89 86 92 92 97 97 98 91 92 91 90 90 90 88 83 79 81 73 67 65 69 68 60 59
91 71 84 96 64 64 76 78 83 87 88 94 98 99 92 92 96 88 88 97 100 100 99 99 90 98 94 92 90 89 94 97 98 100 98 95 91 90 89 91 92 91 91 88 86 82 77 71 68 71 76 72 69 64
93 95 99 75 55 74 92 88 86 93 92 91 82 81 83 82 80 85 82 84 97 98 100 99 98 95 92 95 94 93 93 99 94 96 94 89 88 89 91 91 90 91 91 89 82 76 74 67 71 71 69 64 66 66
93 86 74 57 60 85 96 96 93 87 92 96 94 89 90 90 91 86 83 94 98 100 99 99 99 95 95 97 96 92 95 92 95 95 92 92 92 93 93 91 90 89 87 84 80 77 74 71 68 66 65 64 64 64
84 74 62 58 83 92 93 94 100 94 87 87 84 98 97 97 98 98 98 99 99 99 99 96 95 86 95 93 84 90 92 95 96 93 88 99 94 94 94 91 85 81 80 80 79 73 68 68 71 67 69 64 62 59
73 65 58 57 78 91 97 95 98 98 92 87 93 100 98 96 97 99 98 99 96 98 91 87 87 90 88 92 94 93 90 95 93 92 86 88 98 98 96 88 82 87 82 79 75 76 73 75 73 66 63 63 60 62
69 60 54 57 68 67 64 88 100 98 99 100 100 96 98 100 97 96 98 98 99 98 94 90 91 95 94 92 97 98 98 95 94 91 93 93 90 87 89 83 82 83 88 82 76 79 79 72 70 66 68 65 65 68
64 68 69 68 74 57 75 91 89 99 99 100 100 100 89 100 96 100 98 99 96 97 96 93 89 86 85 94 95 95 96 98 97 96 95 92 96 97 87 87 82 77 77 80 79 77 76 73 71 70 68 72 70 62
70 63 72 56 88 76 73 86 99 95 95 100 100 100 96 100 100 100 100 94 97 98 97 96 92 88 93 91 91 92 96 98 96 97 96 90 93 92 90 85 83 80 77 79 82 78 78 77 72 73 72 67 62 61
73 72 74 70 81 66 77 75 97 96 99 100 100 98 100 100 100 99 94 96 97 97 97 98 98 95 85 91 92 91 93 97 97 96 97 95 86 86 90 90 89 89 81 77 79 84 84 79 75 73 71 68 65 54
82 76 74 66 79 83 93 88 83 94 100 100 100 99 99 99 100 88 97 97 97 88 85 88 98 96 93 88 94 95 97 96 96 96 97 97 95 84 83 84 85 87 80 86 87 82 80 77 75 73 76 80 64 44
80 80 82 95 97 96 86 98 100 96 92 89 94 96 97 93 87 91 92 78 84 83 88 88 87 92 100 98 98 97 96 96 96 96 97 97 98 97 97 94 94 96 94 87 90 85 79 73 75 79 77 64 51 43
93 87 90 100 100 100 95 82 84 91 85 94 90 94 94 91 94 96 76 75 85 93 97 96 90 88 94 95 96 96 96 96 96 96 96 95 96 96 98 97 98 97 97 96 95 76 65 64 70 86 56 46 43 42
97 95 96 100 93 91 90 95 97 99 96 92 89 96 95 95 82 81 80 83 92 100 99 100 100 100 97 97 94 95 95 96 96 96 96 95 95 96 97 97 97 97 96 96 93 97 100 97 90 49 44 49 48 48
96 96 97 98 95 98 99 96 98 91 96 100 100 100 97 97 85 84 88 89 91 96 99 98 93 92 98 97 96 95 95 96 96 96 97 96 96 96 96 96 97 96 97 100 100 97 96 68 49 49 51 51 54 47
97 100 98 100 99 98 99 100 100 100 100 100 100 100 100 99 99 97 86 91 94 93 95 96 98 95 95 97 97 96 96 96 96 96 96 96 96 96 96 97 96 97 99 96 96 95 66 51 58 54 54 55 48 42
100 100 100 100 100 100 99 99 100 100 100 100 100 100 100 99 96 93 89 94 93 93 96 96 96 97 97 96 96 96 96 96 96 98 98 98 97 97 96 96 96 96 96 95 87 54 47 45 50 51 49 44 42 40

GFSWCAN_925_rhum_036.txt.gz
RH
83 83 81 79 81 80 76 77 80 85 87 86 83 79 76 80 91 90 90 100 100 96 80 76 70 77 80 77 94 92 94 97 98 99 99 72 73 67 71 60 68 73 82 97 98 90 82 52 48 57 53 55 56 58
87 86 89 84 84 80 77 74 73 78 79 79 76 76 75 78 86 88 92 86 99 100 84 89 82 74 70 67 78 90 87 88 88 97 89 72 80 72 66 67 66 72 59 64 61 55 49 53 55 52 60 62 62 66
87 86 89 83 86 83 80 77 75 73 72 72 72 74 81 79 79 84 88 88 97 95 79 79 73 84 78 73 67 90 95 86 93 94 93 70 86 71 73 68 69 63 61 65 65 50 53 50 53 61 64 67 69 68
88 91 92 89 88 85 82 80 78 74 74 73 72 74 73 78 81 83 90 84 96 98 95 76 84 85 88 86 86 86 89 92 91 95 92 96 70 66 70 66 67 56 66 65 64 52 48 55 59 62 66 62 60 58
89 90 88 90 90 87 84 82 81 78 77 76 73 75 74 81 82 84 84 86 86 99 98 86 85 90 89 93 99 100 99 96 97 97 97 78 78 79 70 74 72 60 56 60 54 50 51 51 62 64 64 64 59 59
89 88 91 89 91 89 85 84 84 81 78 76 81 80 79 80 84 90 96 100 100 100 100 94 90 85 94 98 99 98 97 97 97 95 94 87 81 74 83 75 56 54 55 49 49 54 60 62 64 63 65 61 56 56
92 96 94 86 91 90 87 87 85 80 79 79 88 90 83 83 85 92 96 99 97 96 100 98 95 83 87 90 91 96 98 98 97 93 94 94 90 80 85 74 50 52 54 52 52 57 63 63 64 63 60 58 54 51
96 93 95 88 90 91 88 87 85 79 82 84 91 98 85 84 88 94 80 96 97 98 100 100 98 85 84 92 92 92 98 99 99 98 96 97 89 92 97 68 59 56 56 57 57 60 59 63 65 65 59 56 58 55
97 96 95 94 96 93 90 88 80 84 85 90 83 87 89 94 94 96 100 100 93 100 99 99 100 95 83 89 90 92 95 99 97 99 97 97 96 95 70 64 61 61 62 63 74 73 71 73 75 69 64 60 58 57
95 96 95 96 96 95 92 87 86 84 85 76 77 94 96 97 93 99 100 100 100 100 96 100 84 83 84 88 94 93 95 98 100 97 94 100 95 72 68 68 65 63 65 74 83 96 97 98 88 72 63 58 54 52
97 94 96 94 96 94 92 84 89 85 77 82 90 94 79 94 100 98 98 99 98 100 90 86 89 81 83 92 88 91 97 99 100 89 89 91 84 74 71 74 73 72 70 68 63 68 78 68 66 65 63 58 54 51
95 95 96 96 96 95 85 92 90 84 92 93 99 98 99 95 99 99 100 100 99 92 93 94 88 82 87 85 88 92 98 95 97 81 94 94 76 72 70 78 78 71 68 65 65 67 64 63 60 61 62 58 52 52
97 95 96 96 96 92 93 92 91 90 84 91 98 100 93 99 100 99 95 100 100 98 100 99 99 90 88 84 93 90 99 93 81 96 90 80 73 69 71 80 81 76 69 71 75 70 66 65 66 62 59 57 53 51
92 96 97 94 93 85 95 88 91 88 82 93 96 93 92 97 96 97 98 100 94 99 99 98 98 96 91 97 92 99 87 87 96 98 88 61 66 64 78 84 83 79 74 74 76 73 72 69 64 61 57 55 53 53
90 97 95 91 72 94 76 69 88 80 83 89 92 97 93 97 97 99 98 100 94 94 99 96 97 84 97 98 86 93 96 94 88 87 74 75 70 78 82 84 82 78 76 75 73 72 68 64 60 60 58 56 55 54
94 89 77 64 82 80 58 80 81 83 95 95 95 97 90 96 96 92 97 99 93 97 98 98 98 97 95 94 97 92 94 95 81 93 80 76 74 85 85 86 82 77 75 74 72 68 65 61 60 60 59 57 56 55
90 85 66 75 80 56 75 77 75 96 92 88 91 89 85 91 94 86 90 90 84 95 100 100 100 98 92 97 99 93 92 87 88 78 79 83 85 84 85 83 82 79 77 75 72 67 66 65 62 59 59 59 56 56
89 84 80 89 80 60 77 77 80 89 82 90 95 92 84 84 91 84 79 83 98 98 93 100 97 98 95 96 86 81 81 86 82 88 88 84 81 80 84 82 84 84 82 80 81 76 72 68 62 61 68 69 68 64
88 92 97 92 61 65 88 89 87 94 88 81 84 76 78 81 75 75 79 76 84 97 99 100 98 95 90 87 93 94 92 91 90 83 81 80 81 81 84 92 91 90 90 85 74 69 67 61 63 64 64 59 60 61
97 94 85 68 56 83 90 96 89 90 91 90 90 88 85 86 81 81 76 84 93 98 100 99 93 90 88 90 91 90 87 84 89 88 77 74 80 90 90 88 82 87 85 83 78 72 70 67 66 64 60 60 59 61
93 89 69 58 77 88 88 91 100 90 88 85 78 92 93 86 90 96 92 96 100 95 97 87 82 77 75 76 79 88 89 86 88 90 89 86 76 85 88 91 91 83 76 73 68 67 65 64 66 66 66 61 61 59
82 66 60 59 78 92 94 96 93 94 93 87 85 94 98 95 92 93 95 97 96 90 82 78 77 81 80 78 76 86 90 94 94 91 90 87 88 89 88 88 86 87 82 79 72 72 69 68 72 67 65 65 62 64
71 62 55 58 68 69 74 88 99 96 100 98 96 96 96 100 95 93 94 94 89 80 82 84 86 87 87 82 87 89 94 92 87 90 89 85 88 88 88 89 86 88 88 82 78 76 77 72 68 65 67 68 68 70
61 66 73 70 72 66 72 88 84 95 96 99 100 98 85 94 92 98 96 93 84 85 86 88 81 80 74 83 76 78 84 93 86 86 97 97 92 87 87 84 83 82 79 82 79 76 74 72 70 70 68 68 69 64
74 74 69 62 86 77 77 84 94 91 91 100 100 98 91 96 100 100 98 87 88 88 84 84 80 80 90 86 73 72 84 95 87 87 85 98 98 98 94 84 82 82 80 82 81 77 75 74 71 69 70 67 63 62
77 78 70 70 80 68 72 77 89 90 94 100 98 93 94 97 100 99 88 85 87 87 86 87 88 89 82 76 80 82 80 94 97 90 88 97 98 96 95 91 88 85 81 79 78 77 79 74 74 71 68 67 63 63
86 81 68 57 67 72 83 81 76 84 100 89 94 96 94 98 99 79 78 86 84 82 78 79 88 91 90 86 87 89 90 97 98 94 96 96 96 97 97 95 87 81 83 80 80 87 87 76 75 68 70 70 68 60
78 73 76 90 91 86 82 91 92 86 77 80 84 97 87 85 78 76 83 74 72 76 76 79 85 90 96 95 95 100 100 99 98 96 96 96 96 97 97 97 97 93 96 96 96 97 83 77 72 74 77 75 69 60
85 79 84 100 98 97 87 77 76 77 76 88 85 82 83 79 83 82 73 72 77 85 94 93 86 89 94 89 88 91 99 100 93 92 92 93 95 96 97 97 97 98 98 98 98 92 82 82 80 80 69 64 60 53
94 86 86 97 88 86 86 89 90 94 90 86 84 88 87 87 80 77 77 82 89 89 89 98 99 100 100 99 95 92 87 92 99 94 92 92 94 95 96 97 97 97 97 97 98 97 97 95 93 77 66 58 51 51
90 88 92 91 90 94 97 92 95 88 94 97 98 96 92 92 82 77 84 86 85 91 99 99 95 89 97 99 97 95 91 85 98 96 96 97 96 96 96 96 97 97 97 97 97 98 99 96 94 95 89 65 58 50
94 96 93 98 98 96 96 100 100 100 100 100 96 100 94 94 95 87 84 90 95 98 95 97 100 98 97 100 99 98 100 100 95 94 96 96 96 96 96 96 96 97 97 97 97 98 95 97 97 91 74 58 49 44
96 96 100 100 100 100 98 97 100 100 100 100 100 98 99 95 92 86 84 91 92 90 92 95 99 100 100 100 100 97 98 95 96 96 97 96 97 96 96 96 96 95 95 96 97 98 96 95 89 66 51 45 44 44

GFSWCAN_925_rhum_039.txt.gz
RH
85 84 83 86 86 84 80 79 76 75 74 75 75 75 76 80 84 85 85 99 99 99 82 74 63 61 66 65 80 87 90 94 96 99 96 66 53 49 53 49 61 71 84 98 99 100 87 44 43 57 52 50 49 66
84 84 84 84 84 86 82 81 79 76 75 74 72 72 78 76 77 82 91 83 96 99 91 83 78 76 70 68 79 78 82 83 81 95 94 72 62 57 50 58 53 65 50 84 76 62 38 39 47 45 52 55 56 59
88 87 84 90 86 87 84 83 81 79 76 74 73 71 74 74 79 83 88 88 88 96 72 68 64 79 77 78 70 85 89 81 86 84 92 64 74 61 60 53 52 50 47 58 58 46 42 41 42 50 54 58 58 59
87 88 89 94 84 88 87 85 83 81 79 77 74 75 79 74 76 83 84 88 93 96 99 73 80 75 87 86 84 84 86 88 90 94 94 94 69 56 60 61 59 49 54 51 53 44 42 48 53 54 56 53 54 52
89 89 86 89 83 88 89 88 85 83 81 80 77 81 79 78 78 82 82 88 86 97 98 83 73 86 89 90 97 99 98 94 96 98 96 81 78 66 56 65 61 46 49 47 47 47 48 50 53 56 57 57 54 56
90 87 89 95 89 86 87 89 87 84 82 80 80 89 94 80 80 86 98 100 100 99 100 89 82 80 87 92 94 96 95 96 94 93 89 80 63 67 69 63 45 38 38 40 42 47 50 53 56 55 56 54 53 54
92 90 94 94 92 89 90 90 88 85 83 84 90 93 93 74 85 90 98 99 100 98 100 97 83 78 79 84 88 96 98 96 96 90 90 86 89 79 79 72 43 38 42 45 44 49 55 56 58 56 53 52 50 48
90 93 96 95 92 92 93 91 89 84 88 89 96 94 80 77 85 91 88 88 100 100 98 100 92 78 79 84 86 86 97 99 99 96 96 94 83 92 98 65 53 45 45 48 47 46 49 52 56 57 52 53 59 57
93 95 97 96 92 95 94 92 88 88 87 77 82 83 86 89 86 96 95 99 100 100 98 96 99 94 76 77 85 91 96 98 97 98 97 97 95 94 64 56 52 51 56 54 55 58 59 62 64 60 57 54 52 50
95 87 94 93 94 95 95 92 87 88 66 69 91 93 93 98 88 97 100 100 100 99 97 98 78 75 77 76 86 88 93 98 100 98 96 100 96 68 59 55 59 56 54 63 76 91 94 95 80 63 56 50 49 47
93 90 96 91 95 96 95 90 91 83 80 87 82 88 80 95 99 97 99 96 99 100 80 86 85 80 74 84 82 84 94 98 100 90 94 91 79 64 63 62 64 63 61 60 57 60 66 67 63 58 56 50 46 43
94 89 90 91 96 95 85 94 87 89 95 91 96 98 95 94 100 99 100 100 98 95 90 94 87 81 77 79 91 87 99 94 99 76 89 91 69 67 62 65 71 68 62 61 57 58 62 59 56 55 54 50 46 43
96 96 92 97 97 91 89 83 66 92 90 97 91 100 90 98 100 100 97 100 100 99 100 99 98 88 85 86 92 93 100 95 76 92 87 75 72 55 64 70 72 70 64 63 66 61 60 58 57 56 53 48 45 44
97 95 91 95 97 93 94 48 81 83 92 88 99 96 98 98 92 97 94 99 94 97 98 98 98 96 87 97 92 99 82 82 94 96 92 58 64 60 63 72 75 71 67 67 70 66 64 63 59 54 49 47 44 44
97 93 96 96 87 84 61 59 82 82 85 97 95 94 90 93 99 100 100 100 96 90 98 97 99 84 100 99 88 94 92 87 82 84 84 80 72 71 72 72 72 69 65 66 66 67 64 60 56 52 49 46 45 46
93 93 85 78 89 79 55 79 79 82 94 100 98 94 87 95 99 97 97 100 92 95 99 99 100 99 99 97 92 86 86 92 91 97 82 73 70 69 72 75 76 70 66 66 65 64 61 57 54 51 49 49 48 47
90 93 64 77 90 68 70 82 75 99 98 88 86 85 86 91 90 82 83 80 75 96 100 100 100 92 95 96 98 85 92 94 92 87 76 77 86 85 83 80 79 75 69 67 65 62 59 57 56 53 54 53 51 52
97 80 81 87 84 62 77 76 90 92 81 88 90 88 81 81 84 76 71 75 90 99 99 100 100 99 95 98 90 89 86 89 81 75 74 68 68 70 76 80 80 81 75 72 74 72 68 65 59 56 62 62 62 57
92 84 88 92 77 64 87 90 91 89 83 80 82 78 78 76 73 68 73 70 75 86 99 99 100 94 87 89 91 90 88 87 89 77 69 59 67 73 82 91 91 89 88 84 73 67 66 62 60 64 64 59 58 58
98 98 97 87 62 82 83 93 90 85 87 82 81 87 81 80 75 77 72 72 80 97 100 98 85 81 78 84 88 89 82 81 83 84 74 61 64 79 85 90 81 83 82 80 74 67 66 64 63 62 58 58 57 58
99 96 89 66 67 86 83 88 95 86 81 82 77 83 88 81 86 89 85 89 95 90 90 80 72 68 69 71 72 72 75 74 80 81 84 87 78 77 78 82 92 84 76 72 68 65 64 63 61 59 63 57 56 56
84 76 60 61 80 89 88 93 88 86 87 82 83 87 92 90 88 81 92 95 90 79 74 67 67 71 69 66 63 68 72 80 88 85 82 81 84 83 81 81 88 88 83 78 72 71 66 65 65 66 60 61 59 62
75 60 62 71 68 68 81 86 92 90 91 92 93 91 93 96 89 90 93 79 81 69 68 72 76 81 75 71 71 72 77 80 81 76 75 77 81 84 88 87 88 91 91 84 76 73 73 68 68 63 64 64 66 71
62 70 74 75 71 69 70 85 77 87 89 86 89 83 84 88 89 94 94 84 78 76 77 84 72 65 60 76 67 58 63 73 79 78 74 76 85 82 94 88 83 88 87 86 79 77 76 71 69 73 70 69 70 68
93 92 78 75 80 74 77 84 87 85 86 88 88 78 86 90 93 95 91 79 82 82 78 76 72 70 79 77 62 60 66 72 77 82 79 78 83 88 90 99 94 83 84 86 84 80 79 72 72 74 70 70 67 64
95 88 76 72 77 72 66 80 88 85 79 91 84 83 89 89 96 90 77 77 81 82 83 84 80 75 70 65 69 68 67 74 80 84 82 80 89 94 93 93 95 96 89 85 85 87 91 89 75 72 71 72 66 67
95 90 65 51 57 59 65 65 61 70 85 76 80 92 89 95 88 69 64 70 76 78 77 78 79 76 77 75 76 78 81 85 92 91 90 94 96 98 99 95 94 95 96 97 95 95 96 93 87 81 82 73 72 67
77 67 77 76 72 74 77 74 80 80 65 63 75 94 90 78 69 66 70 79 81 70 70 73 76 84 93 92 92 93 94 94 98 100 100 98 97 97 98 97 97 98 97 97 97 97 97 97 96 95 81 79 77 74
81 75 72 90 87 83 80 73 67 61 60 75 81 76 73 65 73 75 74 71 69 78 87 84 86 92 92 90 92 92 96 100 95 94 93 87 80 85 96 97 98 98 97 98 98 97 97 97 97 93 85 86 83 73
91 73 76 88 85 81 80 77 81 85 79 78 77 75 75 76 79 69 72 80 89 86 87 90 92 99 96 96 92 92 89 90 94 96 93 89 81 96 97 97 97 97 97 97 98 98 98 98 97 99 94 89 83 83
82 81 84 79 83 88 89 84 86 79 84 89 89 90 82 85 77 75 79 87 88 87 91 93 94 94 98 94 95 94 90 83 92 98 97 98 100 98 96 96 97 97 97 97 97 97 97 97 96 92 84 83 87 78
90 90 87 90 91 92 89 92 92 91 91 91 89 94 88 88 88 77 79 86 94 92 92 94 96 90 90 96 99 100 100 99 100 100 99 96 97 97 96 96 97 97 97 97 97 97 96 96 96 92 94 97 95 69
93 92 93 90 93 95 93 91 91 92 94 92 90 90 89 88 88 77 75 84 88 88 87 88 90 94 95 96 98 99 100 100 100 100 99 99 100 98 96 97 96 96 96 96 97 97 96 96 96 96 96 94 62 50

GFSWCAN_925_rhum_042.txt.gz
RH
88 89 84 84 83 91 85 82 81 80 78 76 74 73 74 80 78 83 88 97 97 98 91 74 67 66 63 68 80 91 92 93 92 97 95 86 63 59 57 68 80 87 97 98 86 95 93 45 51 66 66 60 60 80
92 91 88 82 85 95 87 83 83 81 80 78 77 75 73 75 77 82 88 84 90 99 94 86 77 74 73 71 81 81 82 83 85 93 95 89 83 62 65 62 53 70 62 82 79 77 54 48 49 60 61 65 66 64
92 89 85 85 91 94 86 82 83 83 81 80 74 74 75 75 76 80 84 88 87 97 88 88 78 83 74 74 69 88 87 78 81 80 92 85 83 70 73 66 59 56 53 67 68 55 50 55 55 60 61 63 61 61
94 92 85 86 87 92 84 86 84 84 82 79 76 77 74 77 76 79 81 83 89 96 100 85 75 78 82 81 80 81 83 89 90 93 95 92 92 74 77 71 74 62 59 63 63 55 52 60 61 59 60 56 58 58
94 93 88 85 87 95 83 84 86 86 84 82 80 77 78 77 78 81 81 83 81 96 99 90 72 86 87 88 94 94 91 95 98 99 98 86 83 82 75 76 80 59 63 65 62 53 54 61 62 58 61 61 60 64
94 93 89 88 90 94 91 86 88 87 87 83 87 94 96 79 72 80 98 100 99 93 99 98 85 82 88 92 94 96 97 97 98 96 91 86 71 80 89 80 52 46 45 46 54 52 60 63 61 57 62 61 60 61
93 93 89 88 88 95 90 88 91 89 87 86 93 97 88 74 74 88 98 100 99 97 100 98 94 82 79 84 90 97 99 96 96 88 92 87 87 83 89 87 52 48 48 45 48 56 62 62 69 59 59 57 53 52
95 93 89 93 89 95 89 92 92 90 88 90 91 81 78 76 82 92 93 87 94 100 98 100 98 86 80 89 92 92 99 99 95 94 91 96 93 93 98 81 68 60 56 52 52 53 60 63 62 60 57 60 66 62
92 94 94 85 96 88 94 94 91 90 92 88 78 79 80 85 91 96 96 99 99 100 100 97 100 99 85 86 90 97 98 99 92 98 96 96 93 98 80 67 67 66 60 61 70 66 67 70 70 66 67 61 57 55
89 93 95 82 96 95 95 94 91 92 85 75 87 99 96 94 89 96 100 100 100 100 99 98 88 90 84 77 93 93 95 99 100 98 98 99 98 75 71 72 72 69 60 74 79 90 91 90 79 69 61 53 51 50
93 94 93 86 88 85 95 95 92 89 88 88 85 93 81 92 100 96 99 100 100 100 94 91 87 92 83 89 92 90 97 100 100 95 96 99 94 77 66 67 73 75 74 72 66 62 80 76 66 63 59 53 49 45
97 94 86 94 87 87 94 94 91 90 94 91 94 96 92 95 100 100 99 100 100 100 98 98 95 90 89 90 94 94 100 98 99 83 93 96 81 73 70 72 78 77 73 66 60 63 70 68 61 56 54 50 46 46
98 96 84 94 88 91 84 92 74 93 94 95 98 100 100 100 100 100 99 100 100 100 100 99 99 94 88 96 97 97 100 98 83 96 91 93 79 66 66 77 81 74 68 68 67 62 65 64 58 56 53 47 46 46
97 79 86 88 90 91 78 61 68 88 95 90 97 98 96 99 97 93 98 100 100 100 100 98 99 98 91 100 97 95 92 87 94 89 93 92 82 76 77 78 79 79 72 71 72 69 69 67 62 54 48 46 46 46
95 89 83 89 93 91 69 48 78 90 89 90 95 96 95 97 100 100 100 100 100 98 99 100 100 91 100 99 95 98 91 82 77 95 100 93 87 85 82 82 84 83 78 74 71 72 69 63 57 53 48 46 46 47
88 94 89 94 87 78 55 68 80 81 95 97 94 93 90 99 100 99 98 100 96 94 100 100 100 100 99 94 94 82 82 86 98 99 97 91 89 88 87 85 86 85 78 76 72 70 66 61 57 52 48 48 48 49
94 94 82 70 81 79 66 82 81 95 96 76 80 85 94 95 96 95 85 84 75 98 100 100 96 94 99 95 89 79 84 99 98 97 96 86 88 85 87 86 89 87 82 76 70 66 64 57 52 54 59 52 49 52
99 92 80 82 85 64 79 78 97 80 79 76 84 78 81 81 86 77 71 76 90 99 99 100 100 99 95 98 95 99 94 93 96 94 90 85 80 81 81 91 93 94 89 82 73 67 62 59 66 67 61 59 58 56
99 100 88 88 83 61 94 92 90 92 89 76 81 71 86 80 75 68 70 71 70 86 96 99 99 98 94 98 96 97 96 94 92 88 87 79 72 78 84 88 90 89 90 85 77 73 69 64 62 65 65 59 59 61
100 100 96 88 68 78 87 97 87 95 95 92 91 91 78 76 74 74 82 82 75 98 98 98 94 84 83 92 95 96 94 88 89 88 88 84 79 82 86 86 91 91 85 83 76 69 67 67 64 64 62 60 60 62
100 100 97 77 61 78 93 96 94 95 92 95 89 87 82 78 84 87 90 86 95 98 98 94 85 82 83 74 73 74 81 79 87 86 84 88 83 84 82 84 84 90 91 85 84 77 70 71 66 63 62 62 60 60
100 99 62 62 82 89 94 95 97 93 94 96 92 86 91 94 91 87 95 95 86 93 93 86 90 88 86 74 77 66 69 73 78 85 82 77 80 84 85 83 88 98 91 86 78 77 71 64 63 64 63 61 60 63
96 67 60 68 79 79 87 88 98 94 96 96 98 99 97 92 87 95 91 84 94 92 82 87 85 81 86 70 69 69 69 75 91 84 80 82 80 77 81 84 87 95 96 92 83 75 71 67 68 65 64 64 69 72
83 92 95 95 92 88 76 94 81 89 94 93 97 93 95 98 98 94 93 93 96 94 94 94 86 89 84 83 94 88 61 64 73 76 76 80 92 87 82 84 88 94 90 94 88 78 73 73 71 68 69 72 74 73
96 96 96 96 90 83 87 94 90 90 91 92 94 91 95 98 99 100 98 94 98 98 96 95 97 93 95 96 91 67 61 64 79 90 80 79 84 87 87 85 86 92 94 97 93 84 81 76 74 72 74 76 82 91
96 94 94 86 88 82 80 87 90 87 87 95 92 96 98 98 100 95 93 94 96 95 93 92 92 96 93 84 90 91 69 68 72 89 82 80 85 89 92 94 93 84 87 97 98 98 94 89 93 94 90 82 95 96
96 97 82 55 66 68 71 69 66 81 88 85 93 99 97 98 93 83 90 91 94 80 74 71 73 86 86 79 71 72 74 77 80 83 82 88 90 92 97 96 93 87 86 98 98 98 97 97 97 96 96 98 97 96
84 71 77 74 74 83 81 82 80 80 79 78 83 99 94 82 71 87 94 80 74 71 65 63 62 64 68 71 75 83 85 83 90 93 95 98 95 86 86 91 98 100 100 100 98 98 98 97 97 97 97 96 97 96
88 79 77 90 87 86 83 75 75 78 71 90 88 89 88 89 90 92 70 66 67 69 74 78 72 76 87 87 83 83 87 95 100 98 97 93 88 80 72 84 98 99 98 100 98 98 97 97 97 97 97 96 96 94
95 78 85 87 82 80 87 90 94 94 86 86 86 92 93 93 70 66 69 71 75 83 72 75 82 90 91 95 94 91 85 85 89 98 95 92 87 83 88 84 85 88 97 99 97 98 98 98 98 98 97 97 97 97
86 89 90 86 90 95 94 88 92 84 92 97 97 98 97 96 76 67 72 75 81 85 87 86 84 87 95 96 97 99 93 83 82 86 93 97 96 96 91 88 89 94 97 98 97 97 98 98 97 96 96 96 96 91
92 93 92 92 96 96 97 98 98 97 97 98 98 100 97 98 95 92 76 79 91 93 88 86 95 91 86 93 97 99 100 100 97 97 99 99 96 92 92 95 98 97 97 97 98 97 96 96 96 96 96 96 96 94
96 94 95 94 99 100 98 96 97 96 98 97 97 97 97 98 91 90 73 81 78 82 84 82 84 88 93 98 100 99 100 100 100 100 98 97 99 98 98 96 96 98 97 96 96 96 96 96 96 96 96 96 97 96

GFSWCAN_925_rhum_045.txt.gz
RH
98 91 90 88 85 85 89 92 81 82 81 77 76 76 74 74 78 80 80 96 94 99 90 81 74 74 65 69 80 94 87 91 95 95 92 86 82 67 67 86 87 95 96 100 99 98 92 47 55 67 65 64 63 79
88 85 92 89 86 86 93 88 77 86 84 78 79 69 76 69 75 79 84 88 90 99 93 87 80 79 75 70 85 88 83 87 83 91 94 94 92 80 75 80 69 84 78 88 77 74 52 54 55 61 64 68 67 74
84 81 90 92 86 86 90 90 79 80 78 76 73 71 72 72 76 76 80 83 90 98 95 98 88 76 74 72 73 90 92 80 84 84 90 89 98 82 86 77 65 61 60 74 81 63 67 59 65 61 60 62 61 78
87 82 94 94 88 86 89 90 81 82 81 77 75 78 73 73 77 77 79 83 90 96 100 91 77 81 81 79 74 74 79 87 86 89 92 90 88 82 88 82 78 70 62 66 71 60 62 63 63 65 59 58 61 68
80 84 91 93 91 88 90 95 80 82 86 81 85 80 91 89 78 78 79 77 82 93 97 92 80 86 86 88 90 82 83 91 96 99 98 91 83 88 88 85 90 68 68 75 76 56 61 62 63 62 62 63 65 69
83 83 88 95 90 86 93 94 80 85 84 88 87 94 96 87 72 78 97 100 95 90 100 99 88 86 88 92 97 98 96 96 95 96 92 84 74 77 95 87 68 61 56 52 58 55 62 67 63 58 64 66 65 67
76 85 95 93 89 84 96 89 86 87 89 87 93 94 83 72 74 89 97 100 100 99 99 99 96 85 85 86 94 98 99 97 93 94 94 85 83 82 87 91 62 54 53 56 55 62 64 69 70 62 63 63 58 57
82 90 96 92 89 94 95 88 91 91 92 91 74 82 74 76 75 86 86 87 95 99 98 100 95 92 84 94 97 95 99 98 98 95 92 90 91 89 98 81 76 68 68 61 59 58 63 68 67 65 64 62 64 60
82 89 92 95 87 97 95 91 94 93 92 78 74 85 80 89 94 98 100 97 100 100 100 100 100 98 90 91 93 99 98 99 93 98 95 98 93 98 86 85 77 75 70 66 74 72 71 71 70 71 72 69 63 58
90 89 91 92 83 95 93 94 91 91 74 74 84 99 99 95 96 96 99 100 100 99 100 96 91 90 92 84 96 96 97 99 100 98 97 99 93 85 68 72 75 77 84 74 72 85 92 88 79 74 72 58 53 53
88 88 92 92 93 81 84 94 94 64 82 86 89 96 86 92 100 99 100 100 100 100 98 93 89 90 84 92 92 92 99 100 100 99 99 100 100 84 66 71 78 83 85 85 83 68 77 74 68 68 64 54 51 47
90 88 91 94 91 84 94 95 92 78 91 91 94 95 94 95 100 100 100 100 100 99 98 97 96 92 91 91 96 94 100 98 99 91 100 97 94 75 75 76 79 83 84 80 70 66 78 76 65 61 56 52 48 46
98 90 90 93 85 81 85 95 74 92 92 94 100 100 100 100 100 100 99 100 99 100 100 99 99 96 90 96 98 98 100 98 84 96 99 100 82 78 80 81 84 79 74 74 74 68 70 79 80 75 55 48 47 47
99 100 99 100 91 84 83 72 62 83 92 98 98 99 95 99 98 97 98 98 99 100 100 99 100 99 93 100 98 98 92 86 88 97 94 98 92 85 82 80 84 88 82 77 78 75 70 78 77 55 49 48 48 48
98 100 98 100 95 84 68 54 75 88 82 85 92 96 92 95 100 99 100 100 100 99 100 100 100 96 100 98 99 97 92 80 78 92 99 98 92 90 84 82 86 89 86 82 78 74 69 65 60 53 49 48 48 49
100 99 100 99 86 76 58 59 78 84 99 94 94 95 92 98 99 99 99 100 96 96 100 100 100 100 96 98 97 82 81 82 98 99 98 96 90 90 88 85 87 89 87 82 77 73 68 62 57 53 49 49 50 50
100 100 99 93 80 81 65 76 83 98 92 79 92 87 96 97 99 97 88 87 80 96 100 100 99 93 99 98 97 87 85 97 98 98 98 90 90 91 90 90 91 92 91 87 80 73 68 61 55 53 61 55 52 53
98 99 99 99 89 70 79 80 94 89 87 91 89 92 83 85 89 84 80 79 91 100 100 99 99 99 98 99 97 99 97 96 97 97 96 92 90 86 85 92 89 93 94 90 79 73 68 61 66 68 62 59 56 55
99 100 99 97 88 66 94 93 89 93 93 93 90 89 89 86 82 75 78 75 77 91 97 99 99 98 94 97 95 97 98 98 95 92 89 84 85 88 89 88 91 91 92 91 89 80 71 66 63 63 62 60 61 62
98 99 100 99 75 71 89 96 88 98 96 96 94 94 90 90 82 81 80 80 76 93 94 96 90 90 91 94 96 97 97 92 94 97 92 88 81 84 89 86 85 88 91 89 84 81 74 71 67 63 60 59 62 63
100 100 99 92 60 72 94 98 98 98 98 97 97 94 95 93 95 86 85 93 87 100 100 93 89 88 89 81 77 78 83 85 90 92 91 97 86 82 75 82 84 87 92 94 95 87 76 77 68 66 64 65 60 62
100 100 95 68 78 87 94 95 98 97 97 98 97 95 97 97 95 92 95 87 85 92 95 94 95 94 93 78 84 71 66 68 74 81 84 86 94 96 90 81 81 89 84 91 95 94 85 74 70 67 67 64 62 62
96 93 64 62 79 81 77 89 98 98 98 98 98 98 98 98 96 93 97 91 92 93 90 90 88 80 84 67 65 65 64 71 88 87 84 85 83 84 87 85 83 89 88 83 90 94 95 81 70 72 69 68 66 68
88 98 96 96 93 96 85 95 94 97 97 96 98 92 96 97 96 95 96 95 93 97 94 95 88 92 90 87 95 90 61 64 67 71 70 76 93 87 83 86 86 86 87 95 100 100 97 86 72 75 71 70 73 78
96 95 93 97 95 83 89 97 96 99 92 92 92 92 94 97 98 100 98 91 99 99 97 97 97 94 89 100 96 74 59 62 74 88 75 76 79 86 90 86 86 85 86 85 98 100 98 96 91 78 75 76 78 79
96 93 96 90 89 78 82 92 93 91 90 90 91 95 97 97 100 86 87 93 97 96 95 93 92 97 96 90 93 95 65 62 68 85 76 74 78 91 98 96 93 84 76 74 92 100 99 98 98 92 83 82 85 90
97 100 93 70 74 73 76 76 73 90 88 87 92 96 95 93 81 72 87 94 94 83 70 67 73 83 80 69 63 66 69 70 73 77 77 83 86 88 94 96 92 84 81 84 86 99 99 98 98 98 97 98 98 97
87 74 85 81 81 84 79 86 82 79 80 80 79 90 86 75 60 74 88 81 72 70 73 74 74 72 70 63 62 65 68 72 78 84 86 84 78 77 80 84 86 80 97 100 99 95 97 99 98 98 97 96 96 97
90 84 79 94 92 86 82 72 74 80 72 80 81 79 81 78 88 91 69 73 77 72 68 67 63 60 61 64 72 74 76 82 100 100 100 94 88 79 74 76 85 97 97 96 97 100 98 98 98 98 97 97 97 96
98 87 89 90 92 92 86 88 93 89 83 86 84 87 87 88 64 65 66 68 73 73 61 60 62 70 79 86 86 82 77 81 87 99 98 95 87 80 83 86 84 81 80 84 89 98 97 99 99 99 98 97 97 96
87 93 90 89 90 96 93 84 88 81 91 96 95 94 89 92 74 58 65 68 70 74 76 84 84 83 86 88 98 100 97 81 82 86 90 94 96 97 98 96 95 94 89 87 95 100 98 98 98 97 97 96 96 96
96 93 93 97 96 93 90 95 95 95 95 96 94 99 95 96 92 87 72 81 91 96 91 84 86 77 80 84 91 98 100 100 100 99 99 96 96 94 95 94 92 96 98 97 98 98 98 96 97 96 96 96 96 96
96 97 96 93 95 98 96 91 95 96 96 98 98 98 99 98 84 84 72 80 71 70 69 76 78 81 85 92 96 97 99 98 96 100 100 100 94 96 97 92 96 97 97 98 98 97 97 96 96 96 96 96 96 96

GFSWCAN_925_rhum_048.txt.gz
RH
92 93 95 95 93 91 88 93 94 79 75 79 75 76 70 73 72 79 79 95 92 98 94 80 83 76 67 70 76 89 83 85 91 94 91 85 93 70 77 78 75 82 92 96 93 97 94 46 61 71 65 65 63 77
84 86 96 97 93 93 90 92 95 81 79 86 75 72 75 73 73 74 80 83 92 98 92 87 83 80 82 72 84 86 80 87 84 88 93 93 92 89 78 90 78 91 81 90 83 76 53 50 58 61 66 71 67 78
94 92 94 91 88 94 91 88 97 79 79 84 75 80 78 73 71 76 73 79 96 97 93 99 89 83 78 77 75 86 90 76 84 78 90 92 96 88 90 83 76 68 64 77 73 61 61 59 61 61 60 62 63 75
86 92 90 84 88 87 90 90 95 78 80 82 82 81 84 73 73 76 75 81 98 98 100 95 83 83 82 79 76 74 76 84 85 88 90 91 90 84 90 84 84 71 67 70 76 68 63 62 62 62 59 58 60 85
97 94 90 96 74 87 90 91 95 78 81 73 84 87 88 85 84 73 75 77 93 96 99 94 78 85 85 85 86 79 80 89 94 99 98 96 83 84 88 89 92 75 71 80 78 57 62 62 63 64 64 62 66 80
98 95 99 84 78 93 91 93 92 79 79 82 88 92 94 95 75 74 95 85 79 91 100 98 87 87 91 94 97 97 91 93 94 97 93 89 74 84 91 91 64 70 63 59 61 55 63 65 62 60 63 65 66 72
98 98 82 82 85 93 92 97 82 84 85 84 93 81 77 71 76 87 98 100 100 91 100 99 94 87 88 89 95 98 98 97 95 95 95 90 83 81 88 83 62 71 70 68 63 65 65 69 65 65 64 66 64 64
97 96 86 91 91 95 95 93 86 90 92 92 80 77 68 76 75 78 80 84 99 100 98 100 98 89 86 96 97 96 99 99 99 96 94 92 87 88 98 82 75 68 71 71 77 68 69 70 69 68 65 63 66 64
98 97 93 85 85 93 96 95 89 93 93 89 83 80 79 92 94 95 100 93 98 100 100 100 99 95 92 91 94 99 98 100 95 98 97 99 95 99 87 69 70 73 78 84 78 70 69 68 71 72 70 68 66 63
95 93 85 87 84 88 85 85 92 94 74 84 87 94 99 95 99 99 100 100 100 100 100 99 94 94 91 88 95 98 99 99 100 98 98 100 98 85 69 72 81 84 84 88 90 85 92 86 79 75 73 67 62 56
95 82 73 86 80 94 81 88 96 60 84 87 91 97 92 96 100 99 100 99 99 100 98 95 92 90 88 90 91 93 99 100 100 100 100 100 100 90 76 83 85 85 89 89 90 88 83 76 72 67 68 59 54 51
98 81 85 85 83 96 85 91 94 71 89 88 93 93 97 100 100 100 100 100 100 99 98 96 94 91 91 91 96 94 100 99 98 95 100 99 98 82 82 83 82 84 84 82 82 80 79 80 70 62 62 57 52 48
99 100 100 97 91 99 84 88 75 80 93 97 100 100 100 100 100 100 99 100 100 100 100 99 99 97 93 94 99 99 100 98 87 98 97 99 88 80 81 80 81 80 80 78 76 78 75 74 64 61 62 57 48 48
98 98 99 99 98 99 95 83 60 84 94 99 98 99 98 99 98 98 99 98 100 100 100 99 100 99 95 100 98 99 88 84 88 99 94 96 93 87 82 78 83 88 86 82 81 78 76 92 94 88 74 67 61 51
99 99 100 99 98 95 92 68 73 89 82 90 87 94 98 94 99 99 100 100 99 99 100 100 100 94 100 100 99 97 92 85 73 89 97 98 93 91 85 82 85 89 90 88 81 80 74 68 71 61 58 54 50 50
98 100 99 100 94 90 86 69 82 89 99 92 96 99 92 98 100 99 100 100 95 96 100 100 100 99 95 99 99 89 77 82 94 96 98 98 90 90 90 88 88 89 90 89 85 79 75 66 60 55 52 51 50 52
100 99 100 99 92 92 82 84 88 97 91 85 93 93 97 97 98 98 91 89 82 97 100 100 99 92 99 100 99 88 85 96 94 97 98 92 90 92 92 92 91 93 92 92 90 82 79 70 59 55 60 55 52 52
99 98 100 98 100 83 78 80 90 91 91 94 94 94 85 86 91 87 84 83 93 99 99 99 99 99 98 99 98 100 97 97 94 91 90 92 87 89 89 94 94 94 95 94 92 90 78 73 66 63 59 57 56 55
98 99 99 99 99 70 95 89 90 95 93 96 96 97 90 89 83 76 80 78 84 99 99 99 100 98 94 98 94 98 95 92 84 83 84 79 85 86 87 88 83 83 89 92 94 94 88 78 70 64 62 63 64 62
98 100 100 100 88 67 87 94 92 96 96 93 96 97 93 93 86 86 85 84 88 94 98 98 96 88 92 93 97 91 94 92 92 90 84 85 82 78 84 86 87 88 91 86 89 90 86 78 72 68 64 62 64 65
100 100 100 98 67 71 93 98 97 97 98 97 98 97 99 95 96 96 95 91 95 98 100 93 89 88 92 89 82 80 86 88 92 89 82 95 82 88 86 80 78 80 78 78 88 92 98 93 82 73 68 67 63 60
100 100 99 76 74 86 94 94 97 97 96 98 97 97 98 98 98 96 96 98 97 91 93 94 96 95 95 84 88 76 69 72 72 77 77 83 97 98 95 84 92 95 92 89 81 84 96 96 95 85 73 68 68 61
99 91 88 65 73 79 72 90 93 97 98 96 98 97 98 99 97 96 97 96 91 88 91 91 90 85 87 72 65 62 61 67 83 81 80 78 76 77 80 83 83 92 93 86 81 85 97 96 97 94 79 76 72 68
94 98 96 90 87 93 83 94 92 98 98 99 98 94 96 98 97 96 99 92 91 98 96 93 90 90 88 88 93 88 57 62 71 74 67 72 89 79 71 77 81 84 81 85 91 100 91 93 97 98 86 77 74 73
97 93 90 100 96 90 85 95 97 100 98 93 94 89 93 98 100 100 99 89 97 99 96 96 92 92 84 90 95 74 59 60 72 87 66 66 69 77 86 82 78 76 76 86 97 88 84 96 100 100 92 83 81 85
96 92 97 93 98 84 82 90 94 93 93 95 95 95 97 97 100 86 84 89 94 96 96 93 89 95 94 87 90 95 58 54 64 84 71 70 74 85 96 96 91 82 72 70 75 85 91 90 98 99 98 91 95 98
96 100 94 76 78 78 85 79 76 87 92 94 94 100 97 94 80 68 80 87 93 80 77 77 78 82 78 69 62 59 62 66 66 66 70 76 81 82 84 92 91 82 79 84 86 90 97 99 100 99 99 98 98 98
88 85 94 92 86 92 78 88 83 83 80 84 83 94 89 74 60 74 85 76 77 74 76 74 72 66 64 64 66 63 59 62 69 76 73 72 70 71 71 74 79 78 97 100 100 97 99 98 98 98 99 98 98 98
89 84 78 95 95 95 85 72 75 73 68 80 81 79 81 81 86 90 66 74 76 79 76 79 78 80 76 65 59 61 67 76 91 100 96 90 93 77 70 75 78 80 87 96 97 98 95 96 99 97 97 99 97 97
97 87 86 92 81 79 85 85 91 94 86 88 86 92 92 89 62 59 63 67 80 82 68 66 63 62 62 69 71 70 69 74 80 89 97 91 87 81 87 89 88 88 91 93 94 86 79 86 96 98 99 99 98 98
91 95 93 93 90 96 95 88 91 86 93 97 98 96 91 92 71 49 51 59 66 69 72 77 73 74 75 84 91 100 95 77 82 86 90 95 98 99 95 90 92 98 98 99 99 99 94 96 98 98 98 97 97 97
97 93 93 98 98 94 91 96 96 96 97 97 96 99 95 95 86 80 64 75 86 91 86 78 81 69 62 69 77 84 94 95 92 94 99 97 94 90 89 87 89 98 98 98 97 98 99 98 98 97 97 97 97 96
98 95 95 96 98 100 96 92 96 95 97 98 96 96 96 93 79 80 67 78 71 68 65 64 68 77 79 80 84 88 93 96 95 99 100 100 100 98 98 98 97 98 98 97 96 96 96 98 97 97 96 97 96 97

GFSWCAN_925_rhum_051.txt.gz
RH
89 88 90 86 88 92 92 92 93 97 82 86 73 77 75 73 73 75 76 93 98 98 93 83 86 91 73 75 82 89 80 85 90 92 89 87 92 72 82 76 85 88 91 93 87 97 93 50 69 70 65 67 64 71
84 87 91 88 92 94 92 93 90 96 82 84 81 73 78 80 71 75 76 85 91 99 94 85 81 79 83 82 82 87 77 83 82 86 90 90 94 91 83 98 74 89 75 84 82 77 52 47 55 58 68 71 65 74
84 86 96 96 93 96 93 94 88 91 94 74 80 87 74 83 76 68 73 76 82 98 93 99 93 82 82 86 78 85 90 75 83 79 88 90 96 90 92 89 85 74 67 82 77 62 64 58 59 60 62 62 61 65
89 95 97 99 87 96 96 90 88 95 96 81 78 84 78 86 85 77 71 74 94 98 100 89 87 90 85 80 78 71 74 81 83 87 88 91 94 83 87 85 89 75 68 72 80 69 64 63 65 60 60 58 60 82
87 96 98 93 97 93 92 79 89 95 87 79 78 84 90 90 79 82 86 72 77 98 100 95 87 87 84 83 82 79 80 88 93 97 98 95 85 84 87 88 92 77 77 85 79 60 64 65 59 64 63 62 64 88
93 95 99 98 94 96 81 92 88 98 80 77 76 86 94 88 81 86 91 81 78 100 100 100 88 91 95 96 94 89 87 91 92 95 91 89 77 80 94 96 68 72 71 68 71 59 64 65 63 63 63 64 66 82
96 99 99 94 97 87 89 92 93 86 83 84 89 88 73 78 86 78 94 100 93 99 99 99 95 91 89 92 97 98 98 97 95 97 98 93 85 82 92 95 85 73 67 72 74 72 68 67 66 66 63 66 68 69
99 99 98 97 98 95 96 78 98 82 88 91 88 75 72 78 82 77 68 83 99 99 98 100 99 92 88 98 98 95 99 98 99 95 96 94 90 93 100 77 64 64 70 72 76 80 76 72 68 69 68 67 69 70
99 99 98 96 93 87 84 95 95 85 94 86 74 78 77 84 88 91 99 94 96 100 100 100 99 94 93 93 93 99 98 99 98 98 97 99 94 98 92 80 75 79 84 86 85 84 74 68 70 70 67 70 69 68
99 99 98 94 89 82 90 86 91 96 58 86 87 97 99 99 100 100 100 100 100 99 100 93 94 95 92 92 98 98 99 98 100 98 98 99 94 96 86 72 77 86 86 92 98 92 92 89 81 74 73 68 65 64
96 98 93 83 77 83 95 88 95 67 85 90 96 98 99 98 99 99 99 100 99 100 98 92 94 91 89 90 88 95 99 100 100 99 100 100 100 100 78 86 86 90 84 92 93 92 90 89 86 71 70 65 60 56
99 98 83 78 86 90 98 89 95 62 83 86 94 94 99 99 100 100 100 99 100 94 97 98 93 88 94 92 95 95 100 99 98 98 100 99 98 84 88 86 84 83 85 83 79 86 89 89 86 74 65 63 57 52
99 98 96 82 94 93 99 93 91 78 89 95 99 100 100 100 100 99 99 99 100 100 100 99 100 95 96 93 99 99 100 98 90 100 95 99 87 84 87 83 82 79 88 80 85 83 81 76 67 65 62 55 51 53
99 99 98 98 100 98 98 98 75 85 93 99 99 99 97 99 97 98 97 95 99 100 100 99 99 99 95 100 98 100 89 86 99 99 93 93 92 88 81 80 82 87 87 86 88 86 85 89 95 82 66 65 67 52
97 98 98 100 99 100 98 83 74 89 86 95 94 97 98 94 99 99 100 100 100 98 99 100 100 93 100 100 99 99 98 95 74 84 98 96 90 89 88 85 86 88 88 88 86 81 78 78 80 75 87 83 74 66
99 100 100 99 100 100 94 85 86 90 96 94 97 100 92 99 99 99 100 100 96 95 100 100 100 98 99 99 99 95 79 80 89 96 94 96 88 89 91 92 90 92 89 88 88 87 80 78 69 61 75 75 64 55
99 99 99 100 99 99 98 94 96 95 92 91 95 92 97 98 98 98 92 92 83 96 100 100 99 96 99 99 99 90 82 90 97 95 91 92 87 89 94 90 88 90 95 93 92 92 92 79 69 58 59 56 60 70
99 100 99 99 100 98 90 95 96 95 95 95 92 93 91 91 94 89 87 85 96 99 100 99 98 99 99 97 95 94 98 97 94 91 90 88 85 89 86 91 90 87 86 90 91 94 93 91 80 73 65 60 58 56
98 100 99 99 99 95 96 92 92 96 94 96 97 98 94 93 84 81 83 85 98 99 98 99 100 93 94 98 99 99 99 97 84 81 79 78 84 84 83 85 88 88 90 91 93 95 98 92 86 79 72 67 65 62
98 99 100 100 99 88 96 95 94 96 97 94 96 96 97 98 91 88 86 87 95 98 98 99 95 92 90 90 96 96 96 90 86 78 73 76 87 80 84 90 90 84 79 84 82 80 88 96 90 89 78 72 69 65
98 100 100 100 92 73 91 97 97 96 97 94 97 94 96 97 97 97 96 93 97 97 99 93 92 87 96 94 85 84 90 88 85 76 68 89 72 81 90 87 80 76 90 93 93 89 81 86 96 96 94 83 70 67
100 100 99 95 73 84 92 95 97 96 96 97 96 96 97 98 98 98 95 98 96 92 92 92 95 94 96 89 91 76 72 76 76 76 78 80 91 96 92 78 86 94 94 92 86 90 90 86 83 94 100 95 82 72
99 94 82 64 72 72 71 91 90 96 96 95 97 96 96 98 97 96 97 91 91 87 90 94 90 89 89 78 75 73 67 65 78 75 73 78 78 75 80 78 77 91 96 82 72 79 88 95 94 98 99 98 90 77
94 93 93 83 83 85 79 92 92 98 98 99 98 95 94 97 97 96 100 93 89 93 97 94 93 94 90 86 89 80 62 61 68 70 67 73 89 71 60 64 70 74 74 72 79 85 88 98 86 91 100 100 96 84
96 90 92 100 96 92 77 91 99 100 97 96 96 93 95 98 100 100 98 87 94 96 96 96 95 93 89 88 88 68 55 58 83 88 57 60 62 68 70 66 65 67 68 76 83 85 86 83 88 90 96 100 99 95
96 91 96 97 100 94 91 87 98 96 96 97 97 97 98 97 99 83 81 89 95 96 96 94 91 92 91 81 85 94 49 48 60 78 62 56 59 72 91 93 87 79 69 68 73 78 81 87 90 91 97 97 95 97
98 100 96 77 85 82 85 81 80 93 97 94 96 99 96 87 79 67 83 93 92 82 82 81 81 84 84 78 58 46 44 45 49 52 56 63 68 71 75 85 90 77 78 83 88 92 93 99 100 98 97 95 96 97
90 90 95 95 88 92 80 93 90 90 86 85 81 93 83 74 59 73 81 70 78 78 79 82 83 77 73 58 51 52 58 61 64 65 65 64 64 70 71 72 72 73 81 91 97 98 97 98 100 100 100 100 96 93
97 89 84 91 94 96 80 71 74 78 69 84 80 77 78 80 85 88 59 67 70 79 83 86 86 84 80 77 76 71 60 60 77 85 86 83 96 72 69 74 79 83 85 87 86 97 95 95 98 100 97 97 97 97
96 90 88 93 80 76 77 80 89 94 89 89 87 91 91 88 61 55 55 62 76 81 64 65 66 76 74 72 64 63 59 60 68 76 90 89 86 80 87 90 87 82 84 90 94 94 92 98 98 96 91 91 100 99
91 93 90 91 84 94 97 96 95 86 94 97 100 95 90 93 70 44 44 44 51 62 70 75 74 70 65 69 78 92 85 63 72 79 85 90 94 93 89 85 84 91 96 95 98 98 97 98 99 99 99 99 97 98
99 93 90 98 99 98 96 96 97 95 99 98 95 100 96 94 87 80 58 68 80 87 80 74 75 66 56 56 62 65 74 82 85 90 95 94 93 90 89 87 92 98 99 100 100 98 98 97 98 99 100 97 98 96
95 97 99 97 98 100 96 93 96 92 96 99 96 98 98 94 80 80 61 70 71 68 65 62 66 70 71 71 73 78 85 92 95 97 100 100 100 99 97 97 95 99 98 98 98 98 97 97 97 96 97 97 96 96

GFSWCAN_925_rhum_054.txt.gz
RH
85 83 89 87 90 87 90 92 93 93 96 90 88 83 78 74 78 71 74 88 98 99 92 83 84 88 81 81 85 80 78 82 89 86 80 87 92 84 86 78 89 84 97 93 92 96 94 53 68 75 63 65 64 67
80 80 86 86 89 88 96 94 94 92 92 97 84 82 89 78 80 76 72 79 79 99 96 93 88 83 89 88 87 87 72 79 82 87 89 87 94 90 85 97 75 88 72 80 79 75 54 51 58 54 68 68 62 68
78 80 80 80 82 95 96 96 95 92 91 95 92 80 82 83 78 83 69 67 81 96 87 98 89 60 71 78 77 83 88 76 82 79 86 89 91 91 94 93 90 73 68 83 81 63 64 60 59 62 65 64 60 65
80 76 80 85 92 96 90 95 96 92 92 97 86 78 85 84 87 81 72 63 74 97 100 90 82 94 89 85 87 77 74 80 83 86 87 91 95 84 90 82 84 80 70 73 81 70 64 65 64 63 61 59 59 72
79 79 82 94 97 92 98 97 97 93 93 97 82 80 82 89 89 80 84 82 68 96 100 99 90 88 91 86 83 79 80 87 92 95 92 92 84 84 89 91 95 81 76 82 83 68 67 67 62 62 64 61 63 75
85 83 90 96 92 95 93 96 96 93 93 87 85 79 85 92 85 87 88 91 79 82 100 100 94 94 97 90 90 86 86 90 90 88 92 89 77 83 96 92 76 76 79 78 85 84 81 75 72 64 64 65 63 78
87 84 91 91 95 92 97 96 95 87 95 82 81 86 84 71 87 75 85 99 99 87 100 100 99 97 95 95 98 98 97 96 93 96 98 90 89 89 96 98 85 68 66 67 76 82 75 69 75 69 63 63 68 72
89 85 95 98 95 98 97 96 80 85 89 85 91 82 77 76 85 86 79 95 99 99 98 100 96 94 90 99 99 95 99 98 99 95 96 96 92 93 97 76 67 69 78 75 79 81 87 84 76 68 69 70 69 74
90 93 99 99 98 96 88 82 86 91 92 91 76 74 74 75 83 84 89 98 98 99 100 100 98 98 95 93 93 99 95 99 95 98 97 98 94 95 86 75 78 79 88 88 85 90 85 85 78 70 68 69 71 72
93 97 98 99 92 94 89 85 88 88 79 75 96 97 100 96 99 100 99 99 99 98 100 99 93 96 93 95 99 99 99 99 100 98 98 100 97 90 78 72 77 81 85 94 97 97 94 94 88 77 76 72 70 69
95 100 99 94 94 86 82 89 88 80 76 98 99 98 97 100 100 99 99 99 96 97 93 88 94 94 91 92 91 95 99 100 97 99 100 99 99 99 81 84 86 88 87 82 86 89 93 95 95 90 80 68 66 63
95 97 98 97 84 76 77 93 85 70 80 88 91 92 98 100 100 100 99 99 97 85 93 99 96 88 96 93 94 94 100 100 98 99 100 97 97 86 87 86 87 87 81 90 82 85 85 92 90 92 86 70 64 58
95 98 99 94 83 84 97 99 89 70 89 91 100 100 100 100 99 99 98 99 99 100 100 99 100 94 94 91 99 99 100 98 93 100 94 97 86 85 88 88 87 83 99 100 88 86 86 84 85 68 70 63 58 55
99 99 98 89 94 92 89 100 88 78 99 100 99 99 99 99 94 96 95 94 92 100 100 99 100 98 96 100 97 100 95 91 99 99 86 93 86 87 85 84 87 87 85 84 84 84 86 90 93 96 70 58 55 58
98 98 98 98 98 100 100 94 79 87 88 96 97 96 99 97 99 99 100 98 99 99 99 99 99 92 100 99 98 99 99 97 86 84 95 92 89 88 89 88 87 91 90 86 85 86 84 77 80 91 88 94 89 82
98 98 100 100 100 99 100 86 96 94 97 95 97 99 90 99 99 99 100 100 97 96 100 100 100 97 99 99 99 96 90 75 85 96 97 91 90 89 90 91 87 91 94 90 89 88 89 86 80 69 67 89 91 86
99 98 99 99 99 99 97 91 99 96 94 97 97 91 97 97 96 97 92 93 85 98 100 100 98 96 98 99 99 91 91 87 96 96 92 88 87 87 92 85 86 91 90 91 89 94 96 92 79 71 72 64 61 70
98 98 100 98 98 99 98 96 97 97 98 96 93 93 89 90 94 91 88 89 98 100 100 99 96 99 99 98 97 94 99 99 98 89 87 84 85 90 85 85 88 91 83 85 93 93 95 98 94 90 82 72 65 60
98 99 98 99 98 97 98 97 94 97 95 97 98 98 96 94 89 86 85 92 98 98 99 99 99 94 94 97 95 99 100 98 95 92 82 77 80 87 81 86 87 86 78 83 89 93 89 93 98 97 92 79 73 67
99 98 100 100 99 98 97 98 97 97 97 97 97 98 99 98 95 92 88 90 96 98 99 98 95 90 92 88 95 96 96 91 89 86 78 81 90 81 86 90 89 81 76 83 77 76 79 84 84 87 86 96 86 77
99 100 100 99 98 88 94 97 97 97 97 97 97 97 97 97 98 98 98 95 97 97 99 95 92 88 96 96 88 87 90 88 84 77 66 88 84 78 85 86 86 71 84 83 87 81 77 84 81 78 95 100 99 93
100 100 99 98 81 84 92 94 96 96 97 96 97 96 96 96 96 97 98 99 97 92 91 92 94 95 97 92 93 82 78 77 75 73 77 72 83 95 92 78 80 87 82 80 81 85 78 75 86 95 93 96 98 96
98 90 74 60 75 73 77 92 90 97 96 94 96 96 95 96 95 97 98 94 91 86 90 94 92 92 92 84 81 77 74 74 80 72 70 72 70 72 74 68 71 86 97 75 67 74 80 86 90 94 86 92 96 93
88 90 92 84 83 84 79 93 91 97 97 98 97 94 92 95 95 97 99 92 87 96 97 95 94 96 91 86 92 87 71 63 62 65 62 67 88 71 62 64 66 69 67 66 76 79 77 79 91 87 89 90 97 99
91 88 93 100 96 90 81 91 99 98 95 96 98 94 94 97 100 100 98 88 96 98 96 97 97 96 95 96 91 69 60 56 77 82 56 60 65 70 66 58 57 57 57 65 72 74 76 79 80 87 85 85 90 95
98 90 96 99 100 95 93 81 96 95 96 97 97 96 98 97 100 84 82 88 93 95 98 96 95 96 93 88 88 87 52 48 58 71 52 46 51 63 85 86 84 70 60 64 68 74 78 83 88 90 89 86 92 96
100 98 99 79 88 85 85 82 80 94 100 94 95 100 94 73 73 63 82 92 92 77 81 83 84 88 90 81 60 41 36 36 43 46 44 46 51 55 58 71 81 65 72 78 81 84 90 96 99 99 97 94 93 94
95 94 100 99 90 94 82 94 93 91 87 85 87 92 78 67 55 68 75 53 68 73 78 82 87 83 80 74 67 61 53 51 52 54 59 61 55 55 59 62 65 70 74 79 88 95 99 99 98 100 100 99 95 86
98 96 88 96 94 95 82 75 77 80 71 88 86 82 75 78 84 86 51 57 62 76 88 87 84 87 85 79 65 60 57 58 68 74 71 66 94 60 62 67 70 75 81 85 86 97 99 99 96 95 94 94 91 92
98 93 92 95 83 82 80 79 87 94 92 89 87 90 90 90 60 51 55 61 72 75 50 55 62 81 87 92 84 83 76 68 58 62 76 73 75 71 77 83 87 85 86 90 96 94 86 97 95 98 95 92 92 91
92 93 90 94 90 92 96 95 97 88 94 97 100 94 89 92 68 40 39 38 42 54 63 76 81 82 82 83 78 84 78 51 51 56 61 68 74 81 84 85 88 89 90 93 99 99 100 100 98 98 96 96 95 97
99 89 88 92 92 96 98 96 98 95 99 99 93 100 96 94 87 81 55 61 76 82 74 69 76 65 57 60 60 56 58 58 68 74 81 88 89 87 90 89 89 92 96 98 100 99 98 97 97 97 96 96 95 95
100 99 100 98 99 100 98 95 99 96 96 100 96 98 99 94 83 84 62 69 68 66 65 63 68 72 67 60 61 67 73 76 81 86 100 100 100 100 98 97 95 93 97 100 98 99 97 97 97 96 96 95 95 96

GFSWCAN_925_rhum_057.txt.gz
RH
99 95 83 82 81 83 87 91 93 94 94 94 97 88 88 84 79 80 70 82 91 99 90 84 82 91 92 84 86 79 80 79 90 82 78 84 89 86 85 78 83 80 92 83 87 86 87 53 68 78 66 63 63 66
98 95 86 79 80 81 87 83 96 95 96 93 94 96 85 86 81 82 74 72 74 92 95 96 92 86 88 88 92 89 70 80 82 88 88 85 94 96 88 95 75 91 77 81 73 71 51 51 61 52 61 65 62 65
100 99 88 85 81 79 82 75 97 96 97 93 94 96 89 80 89 79 85 69 73 90 89 93 76 55 62 67 73 96 88 78 82 79 87 87 85 91 97 95 88 77 69 80 80 64 65 58 58 58 65 68 59 65
100 96 90 86 82 80 81 87 90 96 96 94 90 95 82 86 86 88 92 86 66 90 92 80 79 82 66 75 76 80 79 82 84 86 85 90 90 84 89 83 89 80 74 68 80 71 67 61 65 63 62 60 59 62
99 91 90 82 80 85 80 94 98 96 96 93 95 89 83 85 85 90 88 87 68 81 98 90 82 68 98 91 95 93 84 87 90 91 91 88 85 87 92 94 98 86 84 89 86 72 75 68 60 64 66 66 64 67
100 92 89 86 88 89 86 96 96 95 96 94 94 84 78 87 88 92 94 91 85 70 98 99 92 99 100 100 96 93 91 90 88 83 87 88 79 83 94 92 74 78 82 79 80 82 84 80 83 70 71 65 65 68
100 92 88 88 87 87 92 88 94 96 95 92 93 83 84 86 92 82 84 97 98 80 99 99 100 99 98 98 99 98 94 95 91 90 95 92 90 85 98 92 79 72 67 68 74 78 78 74 80 85 77 67 70 71
100 93 89 93 87 89 97 95 97 85 89 95 85 82 79 79 88 94 93 96 94 97 100 99 100 99 94 98 99 96 99 99 99 95 96 97 96 96 98 86 71 69 78 79 85 85 84 80 88 79 68 72 69 74
100 94 90 94 90 92 96 97 85 79 93 92 67 82 88 75 84 74 77 95 99 99 100 100 100 100 98 95 98 99 92 99 94 99 96 98 96 92 86 76 72 77 83 90 92 92 88 88 87 82 72 69 73 76
99 92 98 93 96 99 90 91 76 92 90 65 84 96 100 95 90 100 100 99 100 98 100 100 93 99 94 92 99 98 99 99 100 98 98 100 99 87 76 75 75 81 84 90 97 93 95 96 94 91 86 73 72 73
99 97 98 100 100 91 88 75 89 87 66 95 99 98 100 100 100 98 99 99 99 95 96 92 90 96 94 97 98 96 99 98 99 95 100 99 98 98 79 79 83 86 88 89 89 89 87 88 94 96 94 84 73 68
90 97 99 98 97 92 75 85 89 74 72 90 94 93 100 99 99 99 98 97 99 86 87 98 95 90 96 94 94 96 96 100 98 98 100 99 95 84 82 85 87 89 94 96 92 89 87 86 88 92 94 91 81 67
100 96 99 99 98 75 83 96 84 67 70 87 99 100 100 100 99 100 99 99 99 100 100 100 100 95 94 92 99 97 100 99 94 99 92 94 87 85 89 89 88 86 98 100 100 92 87 89 91 90 70 64 65 62
97 100 98 98 95 90 92 98 89 76 94 99 99 98 98 99 96 96 95 95 99 100 100 99 100 99 96 98 97 100 98 96 99 99 92 94 84 91 87 85 86 89 85 84 87 85 82 82 89 96 93 67 56 57
97 99 98 98 96 98 99 99 75 84 94 98 100 97 98 97 99 100 100 100 99 99 100 100 100 92 98 95 94 97 100 98 89 78 95 93 89 90 89 85 86 94 93 88 86 85 86 83 79 72 81 97 94 87
99 99 99 95 98 100 100 96 80 89 97 99 99 99 93 100 100 100 100 100 98 98 100 99 99 98 98 98 98 95 95 86 83 96 97 88 92 91 91 88 85 91 94 89 86 89 91 91 88 75 64 66 76 95
98 100 96 100 99 100 100 84 96 97 96 100 98 90 95 99 98 98 94 94 86 98 100 100 99 85 95 96 98 91 94 87 91 98 96 86 86 90 91 83 85 90 86 84 90 93 96 95 88 84 84 78 68 62
96 100 98 99 97 99 98 94 94 96 100 98 94 94 92 94 97 94 92 93 98 99 100 99 98 99 99 99 97 93 98 99 99 96 95 84 81 89 87 80 87 80 75 83 89 90 92 95 97 99 96 90 76 69
94 100 100 99 98 96 98 97 94 96 94 97 97 97 96 95 92 91 92 96 98 98 99 99 99 97 92 98 94 98 100 98 94 92 88 79 75 86 79 86 89 85 73 82 85 87 86 90 94 94 81 92 98 87
98 98 98 100 99 97 97 98 98 97 97 97 98 98 97 98 96 96 94 93 96 98 98 99 96 90 90 87 94 96 96 92 93 93 88 86 87 85 87 86 83 75 69 71 65 73 74 67 70 73 84 95 100 100
100 100 99 99 98 96 97 97 97 97 97 97 97 97 97 97 98 98 98 98 96 95 99 94 92 87 96 94 89 88 91 90 88 85 83 92 90 81 85 90 90 71 77 75 79 74 72 74 75 85 100 96 95 98
99 100 99 94 81 88 93 97 97 97 97 97 97 96 96 96 96 97 98 99 98 92 91 92 95 95 95 91 95 88 82 79 75 71 69 71 90 97 98 86 84 78 72 68 72 78 70 68 74 90 97 90 89 88
94 86 69 62 76 73 85 91 90 96 95 95 96 96 96 96 96 97 98 94 91 88 91 96 92 92 94 88 84 82 82 78 87 79 74 69 62 65 70 72 70 74 84 57 59 66 70 78 80 85 90 89 89 90
86 88 91 92 85 87 80 95 90 96 97 96 96 92 92 96 95 99 98 91 88 97 97 94 94 96 91 90 95 96 78 77 74 70 58 63 88 69 58 56 56 56 57 61 70 76 77 78 89 82 85 92 85 85
90 92 92 100 98 90 86 93 99 96 95 96 96 92 94 96 98 98 92 86 94 95 95 97 97 97 95 97 96 79 75 67 74 74 52 55 59 64 62 57 55 50 52 65 71 74 72 75 78 80 82 85 89 91
99 94 97 96 99 94 95 83 95 94 96 96 98 98 98 96 91 78 80 84 86 90 92 96 97 99 96 92 94 89 66 63 59 62 43 44 50 58 81 85 88 57 48 58 64 69 72 76 82 86 90 88 92 94
100 100 97 80 90 87 87 84 80 93 98 93 94 100 92 70 71 62 77 86 86 67 71 80 85 92 92 85 73 60 52 51 49 44 35 36 39 42 45 58 72 52 57 66 71 76 80 86 92 92 94 92 92 90
95 96 99 100 91 96 84 94 94 92 88 85 89 96 82 72 69 71 70 40 46 59 70 72 74 79 84 83 78 70 48 46 54 52 50 52 53 49 46 46 52 62 71 77 83 90 97 98 99 98 99 97 92 85
96 90 90 100 94 94 85 78 79 82 72 90 87 86 80 77 83 83 42 44 53 70 86 82 74 82 87 83 80 69 68 60 72 74 75 76 89 48 44 48 59 65 69 74 80 92 98 100 100 97 94 95 95 96
95 93 95 98 88 88 85 84 87 93 92 91 89 90 90 89 56 46 49 56 68 72 42 38 44 67 84 96 89 84 69 62 60 59 78 75 70 53 59 66 70 75 80 85 85 85 84 96 98 99 96 94 94 96
95 94 93 98 92 94 95 96 97 90 94 98 100 95 88 93 68 42 41 38 41 52 60 66 65 67 80 88 93 95 87 67 69 68 69 65 65 69 72 77 83 86 88 91 96 97 95 96 97 98 97 95 93 99
99 95 93 96 93 95 98 99 99 96 100 99 92 100 96 94 86 80 48 55 66 78 73 70 73 67 52 56 66 70 67 54 49 57 65 71 75 80 86 89 91 93 95 98 100 100 99 99 97 96 98 96 95 95
100 100 100 99 99 98 97 94 100 99 100 100 96 96 97 92 80 84 65 68 70 67 64 62 63 71 70 60 60 64 61 60 67 76 85 98 100 100 98 97 95 92 91 94 96 97 98 99 98 97 97 96 95 95

GFSWCAN_925_rhum_060.txt.gz
RH
98 100 99 95 88 84 92 80 90 93 96 96 95 97 90 88 85 79 78 72 86 84 76 76 75 79 87 75 70 74 71 72 75 75 63 64 63 67 71 61 67 65 74 78 69 78 73 44 64 76 63 55 53 55
100 99 100 99 94 85 93 80 82 85 97 96 94 94 96 86 84 85 86 76 80 76 68 85 81 85 81 76 92 79 68 66 60 66 69 66 69 86 69 79 65 68 52 60 56 49 39 44 53 48 54 49 52 56
98 100 99 100 94 89 86 80 83 96 84 96 96 92 95 92 82 90 85 82 84 92 71 73 63 55 53 62 75 96 75 69 69 63 66 67 68 70 80 69 69 61 54 57 60 48 45 40 43 54 57 58 55 54
98 98 100 100 96 88 90 82 78 78 76 92 96 91 94 88 85 88 89 89 93 86 89 60 60 80 72 80 73 76 73 78 71 71 70 70 64 68 68 64 69 58 59 57 57 52 51 48 53 62 60 56 55 53
96 96 100 100 95 85 85 84 82 80 96 94 96 94 96 87 85 89 89 88 88 81 81 70 56 52 53 95 87 94 80 82 82 79 74 70 73 72 76 80 80 63 59 62 53 48 53 56 65 74 65 62 58 57
93 92 97 100 97 86 86 85 86 84 95 91 85 96 94 82 84 84 86 90 92 78 99 88 68 77 87 100 96 95 89 86 82 70 76 73 69 61 74 72 53 60 64 63 57 68 66 63 66 67 66 62 58 58
92 89 94 100 97 91 87 90 87 85 96 81 91 96 90 92 92 90 74 90 98 88 99 93 91 80 91 98 98 98 96 95 84 76 77 76 78 72 84 82 53 66 63 60 62 65 66 67 67 64 67 63 64 63
64 84 96 100 97 90 91 92 83 86 90 77 95 88 88 84 86 98 91 93 88 98 98 100 97 99 91 97 98 98 98 96 94 84 93 85 83 88 97 74 64 64 62 63 72 72 71 68 70 70 67 63 64 61
65 76 96 100 99 93 94 86 86 92 77 88 93 78 88 84 89 90 80 93 92 94 100 100 100 100 97 89 98 94 92 98 96 98 92 92 97 96 84 75 70 63 68 73 74 74 75 78 77 75 76 69 66 60
77 90 94 100 100 93 97 90 88 85 91 88 73 92 97 92 78 97 100 99 100 100 100 100 98 100 96 90 93 90 86 90 100 93 97 100 93 87 70 69 68 69 72 77 80 82 88 94 87 78 76 76 75 69
85 90 92 100 100 99 98 94 95 99 88 88 92 96 100 100 100 98 100 100 100 100 100 97 91 97 89 95 95 90 99 100 100 99 100 99 99 95 75 76 77 80 79 78 78 78 79 80 83 81 79 77 78 78
89 89 99 100 99 100 98 98 99 89 65 90 92 96 99 99 100 100 99 99 100 93 81 93 82 91 95 93 95 96 94 100 99 98 100 99 85 80 73 78 78 77 84 88 92 94 89 87 86 88 84 69 74 82
95 86 91 100 100 99 98 100 94 76 65 80 96 100 100 99 99 100 95 99 98 99 100 100 99 94 94 86 97 95 99 94 97 100 87 80 84 78 78 78 79 83 98 100 99 97 93 86 90 95 90 61 59 63
94 100 100 98 98 99 100 99 87 66 82 95 98 99 100 99 96 92 87 92 97 99 100 98 99 98 89 94 87 97 94 98 99 95 86 79 78 75 76 78 76 84 76 77 79 80 80 82 84 84 94 97 68 56
100 99 99 99 99 99 98 100 97 83 98 100 100 97 97 93 100 100 100 99 98 96 99 98 99 92 99 100 87 98 98 94 82 68 79 87 80 80 72 72 77 80 76 72 75 77 79 79 73 68 67 83 98 94
100 100 100 100 100 100 100 100 94 84 96 98 98 96 88 98 99 100 100 100 95 95 97 95 99 100 90 86 95 88 90 83 73 87 85 79 77 74 72 68 72 79 80 72 72 78 82 85 83 77 72 73 70 74
98 100 100 99 100 100 100 91 84 98 94 98 96 86 92 96 95 95 97 95 86 98 99 100 91 85 94 90 91 88 89 82 86 85 81 79 82 76 76 68 73 78 66 72 78 81 85 90 88 84 84 88 83 72
100 100 100 99 97 99 98 91 92 94 100 96 87 87 83 88 90 90 99 98 98 98 99 100 99 100 94 94 87 84 86 90 88 81 78 76 76 81 82 66 76 70 62 75 81 85 89 88 83 85 82 86 93 87
100 100 99 98 86 88 96 92 91 94 94 91 90 90 90 88 87 85 87 97 98 98 100 99 100 97 82 84 86 89 90 84 76 78 74 70 69 77 78 81 87 82 70 76 71 67 69 77 83 80 75 82 87 98
99 99 99 100 84 92 94 96 99 94 94 91 94 95 91 90 88 88 89 90 93 96 98 98 91 78 74 74 79 79 79 75 76 79 78 76 79 86 84 82 72 73 65 73 68 72 70 61 69 73 87 91 88 87
100 100 99 92 95 94 94 95 95 95 95 94 94 94 94 93 93 96 96 93 93 92 93 82 78 74 86 84 84 83 80 78 74 68 69 78 77 79 83 87 85 76 61 58 55 57 66 63 71 77 92 87 84 84
99 98 98 97 92 88 92 96 95 94 94 94 94 94 95 95 94 95 94 97 95 86 81 76 77 78 83 83 81 87 83 84 79 68 72 78 81 83 80 79 87 73 71 68 69 67 66 69 72 84 89 87 90 89
91 84 69 64 74 75 93 89 89 94 91 94 94 95 95 95 95 95 95 91 89 82 86 88 87 85 85 83 84 84 85 85 76 71 68 60 62 68 64 69 66 71 73 60 53 59 64 68 77 80 90 88 88 84
86 86 88 90 82 90 79 93 85 91 93 91 92 85 88 93 93 94 93 88 82 82 83 84 88 86 84 88 86 82 83 85 79 78 70 65 68 65 60 58 56 52 50 52 56 60 62 68 80 84 80 87 89 87
87 98 92 100 95 90 90 91 94 89 90 93 92 88 91 92 91 92 84 82 80 80 76 79 85 88 90 86 81 81 81 82 78 73 64 58 53 60 63 56 52 45 46 56 68 73 74 74 79 84 85 87 88 90
99 96 95 94 99 88 93 88 90 87 92 95 93 91 94 90 84 77 76 76 76 75 76 82 84 88 88 84 81 79 74 76 70 67 55 48 47 53 71 67 65 47 39 45 55 68 75 78 84 86 90 87 90 93
99 100 92 77 86 83 83 77 75 84 94 89 88 97 88 76 71 63 67 70 68 56 53 66 77 83 79 83 79 74 61 66 68 62 51 36 32 32 35 50 63 42 45 49 60 68 74 79 84 88 90 90 90 87
93 95 99 98 88 88 85 89 88 85 77 78 85 98 87 78 70 71 67 39 40 46 54 60 66 75 78 73 74 77 71 58 66 59 48 43 39 37 38 41 47 54 61 64 67 73 80 85 91 93 95 94 92 88
92 87 86 99 93 93 85 78 77 75 68 84 83 80 79 74 78 72 38 38 42 53 67 61 51 60 69 74 80 80 78 66 75 74 64 56 67 46 41 43 48 53 61 72 80 93 90 94 96 97 95 97 97 97
87 93 97 99 92 92 85 83 83 85 85 84 83 83 80 80 51 44 46 52 61 65 43 37 39 53 66 81 80 80 80 77 69 62 69 69 66 50 49 50 56 64 69 74 78 80 83 90 90 91 91 93 96 98
95 94 93 98 95 92 95 92 92 85 89 91 96 90 80 84 67 41 39 37 39 48 58 65 65 60 67 75 86 88 82 61 69 69 65 63 64 69 71 67 67 72 79 85 87 90 93 97 99 99 98 96 93 99
100 99 97 97 94 94 94 98 99 95 94 95 86 100 91 88 84 74 39 41 57 74 67 67 74 68 54 54 57 60 66 65 55 58 67 70 64 67 74 80 86 93 95 97 97 98 99 100 98 98 100 98 95 94
97 98 100 98 96 95 100 92 97 98 98 97 93 92 92 87 79 76 61 63 66 63 61 58 58 62 65 65 59 67 74 68 61 63 72 83 94 98 99 95 96 94 92 94 96 98 99 99 98 97 97 96 95 95

GFSWCAN_925_rhum_063.txt.gz
RH
96 96 95 100 99 96 93 92 94 90 95 92 96 96 94 90 86 86 72 84 72 61 54 48 52 68 78 79 73 67 69 65 68 70 63 58 54 51 55 46 53 60 64 66 61 74 74 36 53 54 64 51 48 49
96 98 100 100 99 98 92 96 84 86 93 82 85 95 94 95 86 89 78 85 83 75 57 62 60 54 52 62 93 76 67 54 51 58 49 50 54 62 50 61 49 59 45 50 51 50 37 39 48 42 47 54 52 54
98 98 97 95 96 100 98 89 92 84 92 80 77 85 92 92 86 87 83 88 93 86 65 59 57 49 52 54 73 99 68 62 58 54 54 49 56 52 64 54 54 47 39 49 50 41 39 35 38 45 51 54 52 50
93 98 97 94 98 100 100 94 87 88 92 78 93 96 91 93 94 87 88 89 93 80 86 51 41 49 57 68 51 75 81 73 70 68 64 57 53 50 52 59 55 52 48 51 48 41 44 48 43 50 56 53 52 50
60 92 88 90 90 99 100 97 87 87 90 82 95 90 88 89 90 87 89 87 90 87 78 68 51 49 49 51 64 72 74 73 84 79 66 62 53 54 53 63 59 46 51 57 51 39 41 51 56 63 60 58 55 55
28 44 78 84 91 91 98 100 88 88 85 81 88 90 83 89 87 85 68 88 95 90 99 79 50 51 62 55 48 79 89 88 89 74 63 59 52 53 59 59 42 38 40 44 48 56 54 55 60 60 59 59 56 55
22 38 45 69 87 89 98 100 95 93 90 84 88 93 90 89 93 80 67 90 89 98 100 84 81 86 62 68 75 92 96 95 90 74 69 68 66 66 63 68 43 42 46 51 53 57 60 57 58 57 57 57 58 58
23 29 37 50 58 86 97 100 97 95 94 91 95 95 96 93 86 96 85 89 84 99 98 98 86 99 83 88 83 80 93 94 93 77 77 72 68 71 83 57 47 43 54 56 56 59 60 59 58 59 63 60 61 59
26 30 61 54 54 80 95 100 97 98 95 96 89 88 86 94 85 79 86 94 94 89 98 99 97 100 80 92 94 92 89 100 94 91 81 81 92 93 71 62 61 57 61 60 66 68 66 67 66 66 65 66 67 62
41 48 54 62 60 74 91 100 99 97 98 99 92 87 86 78 91 97 100 99 100 95 99 97 96 100 96 95 97 94 94 96 99 91 93 98 91 66 67 62 61 60 62 66 70 72 79 86 82 70 66 64 65 67
81 85 78 87 87 91 95 100 100 97 99 99 81 87 94 99 98 98 100 99 96 100 99 98 98 100 98 95 96 90 97 97 100 96 100 97 93 85 72 74 74 76 74 74 72 70 71 72 75 77 75 72 73 70
86 87 90 92 89 87 85 100 98 99 95 88 88 94 100 99 100 100 100 99 100 93 89 90 84 95 98 91 96 89 99 100 100 97 100 94 82 78 71 73 74 69 71 77 81 86 91 86 85 86 91 86 63 59
96 98 96 92 98 89 99 97 99 99 96 89 91 100 100 100 99 100 94 98 98 88 87 97 97 98 98 89 96 97 99 100 97 100 88 74 84 75 70 70 73 83 97 100 99 98 98 91 86 91 94 93 75 54
91 94 99 99 94 96 100 99 99 100 81 91 100 100 100 99 93 82 79 86 89 97 98 94 95 97 84 97 89 98 96 98 96 90 80 67 76 67 68 70 91 100 86 78 76 74 74 76 81 88 88 99 98 70
93 92 91 93 100 99 99 100 100 95 93 100 100 95 95 84 99 99 100 94 94 92 98 99 100 91 98 99 84 96 97 92 76 70 78 85 75 73 70 69 88 68 64 60 61 66 70 72 69 64 64 65 66 86
99 97 100 100 100 100 100 100 100 92 100 100 100 97 83 97 100 99 100 99 95 92 98 96 100 100 96 84 96 90 86 78 71 92 86 75 70 64 62 62 63 65 61 55 58 62 64 72 75 74 72 78 75 66
83 98 100 100 100 100 100 96 98 99 99 97 94 83 84 95 99 97 96 98 92 96 100 100 99 87 93 86 90 84 86 87 93 83 77 72 75 62 56 56 63 63 51 56 60 62 68 72 78 71 69 74 88 84
100 100 100 100 98 99 99 97 94 89 85 91 86 78 75 81 99 96 98 100 99 99 99 100 100 100 84 82 82 82 85 94 83 76 73 72 70 72 71 59 64 60 51 60 70 73 73 72 57 60 61 65 72 88
100 100 99 99 93 86 96 95 94 83 83 84 79 80 80 80 81 84 78 97 98 99 100 100 100 90 78 75 88 99 94 80 66 70 66 62 63 68 72 74 82 73 65 65 58 48 52 60 61 65 62 70 70 77
100 100 100 100 75 86 90 96 99 87 89 83 86 89 84 85 80 80 81 85 92 100 100 97 87 72 66 69 74 75 73 68 67 71 70 66 63 83 84 77 66 62 52 59 67 67 58 55 59 61 68 78 76 69
98 100 99 92 84 90 87 89 90 87 88 86 86 85 86 88 90 91 92 89 93 89 83 71 69 65 79 74 74 74 70 67 65 61 61 70 65 71 77 80 80 66 49 44 41 42 62 52 56 65 75 76 75 75
99 90 85 82 86 85 87 91 89 88 87 89 88 90 90 91 91 91 91 95 91 82 68 65 64 66 68 72 69 80 77 80 76 68 70 71 72 76 75 75 79 72 62 58 57 57 57 59 64 69 75 73 78 78
84 77 74 70 76 71 92 86 86 88 91 92 92 92 92 92 92 92 94 89 84 76 77 80 83 82 81 78 77 78 80 86 75 69 62 61 62 75 76 78 76 79 78 65 57 63 66 69 70 76 74 80 77 75
79 84 87 86 76 88 73 86 76 83 85 84 87 85 89 92 91 93 93 91 82 76 76 84 79 75 77 90 82 75 76 81 78 73 67 60 62 54 60 63 58 57 53 55 52 59 66 69 74 78 82 80 80 80
84 96 91 99 89 84 85 85 85 80 80 86 85 84 88 88 88 92 89 84 80 78 75 70 69 75 83 79 75 74 74 81 78 76 70 69 59 57 61 57 53 49 47 50 61 65 68 68 72 78 82 82 81 84
96 93 93 90 94 86 83 85 85 81 80 87 85 86 88 87 86 81 74 77 77 74 74 77 78 76 72 74 75 75 74 74 81 77 70 65 59 57 72 70 68 53 35 37 46 61 66 70 76 79 84 81 84 86
98 98 86 70 74 74 72 65 63 70 81 84 82 91 86 86 78 66 64 63 66 60 49 59 73 75 74 74 73 72 70 70 79 76 71 60 56 49 45 60 64 37 33 38 42 49 63 74 78 81 86 87 92 92
87 89 96 90 83 79 82 74 78 80 70 64 72 92 88 80 72 72 69 44 40 38 41 43 46 53 62 68 74 76 73 72 66 73 68 58 44 37 35 37 39 40 41 47 51 57 65 70 80 88 94 94 92 90
91 84 82 98 91 88 83 78 74 64 57 68 77 74 75 69 73 71 39 36 36 41 53 54 42 40 42 50 58 66 78 78 81 79 77 71 71 52 34 34 38 43 49 56 67 93 90 88 88 90 95 98 98 99
89 83 91 98 94 89 82 75 77 75 70 74 75 72 71 73 54 42 42 45 54 60 47 47 52 52 62 68 65 64 58 69 77 75 75 70 62 51 44 44 47 49 53 60 68 73 80 92 93 92 89 91 94 97
89 92 94 90 91 83 86 82 83 73 77 84 85 86 71 80 67 43 41 40 43 50 63 67 64 68 68 72 73 73 71 58 52 60 72 76 72 62 60 64 67 66 66 70 76 84 89 94 97 98 97 97 95 96
93 97 96 100 91 89 87 92 89 89 86 90 87 88 84 84 83 72 35 38 60 70 66 67 72 65 61 57 59 64 71 64 59 59 64 78 79 75 75 74 73 78 84 89 93 96 96 98 100 99 99 97 95 94
92 92 95 94 94 89 90 90 86 90 91 91 87 86 85 81 79 70 50 51 54 66 67 64 63 61 61 62 64 63 68 69 70 63 63 65 69 80 86 95 97 95 94 95 95 96 97 98 99 98 98 98 97 97

GFSWCAN_925_rhum_066.txt.gz
RH
99 99 91 89 90 99 97 97 93 89 86 94 92 92 95 96 94 87 76 80 73 70 59 49 48 56 59 77 98 87 84 74 82 80 86 71 63 59 55 48 57 62 80 82 72 87 84 50 51 60 69 56 55 53
98 94 91 92 98 99 97 97 96 92 89 89 91 79 88 94 95 95 89 77 82 86 69 62 62 61 58 56 92 94 98 81 73 76 70 60 63 63 59 62 48 65 55 63 60 69 47 43 52 48 55 59 59 58
67 84 91 92 91 89 91 90 91 92 89 89 86 77 81 93 94 92 88 87 92 94 77 67 59 49 53 54 55 84 89 79 74 81 81 62 64 66 66 54 57 52 44 56 55 47 47 40 46 52 52 58 56 55
41 50 75 88 94 95 98 99 100 93 95 94 96 92 96 90 90 90 93 90 93 95 97 59 42 40 40 49 49 62 61 81 76 83 88 76 67 55 62 59 66 57 51 55 58 48 44 50 46 57 60 56 56 54
17 24 40 77 86 86 89 93 100 100 99 95 98 95 87 80 74 85 89 80 89 86 86 75 63 55 50 49 49 62 67 78 96 96 93 83 63 62 62 71 75 58 63 70 68 55 54 76 71 65 62 61 58 58
6 9 13 25 51 73 88 98 98 100 100 93 96 92 91 80 82 89 83 82 84 88 100 97 57 48 44 52 51 62 65 78 96 98 87 72 58 62 74 73 48 45 47 47 60 62 65 64 66 60 61 62 59 60
9 10 11 15 21 33 51 80 91 99 100 100 93 96 93 80 87 90 76 89 73 91 100 95 88 68 86 58 61 71 78 88 95 97 91 75 78 72 77 77 51 48 44 47 56 60 64 63 71 62 60 60 59 59
12 14 18 18 22 36 57 52 70 90 100 99 98 97 97 83 91 91 79 88 80 93 98 99 92 93 87 88 90 73 83 91 95 95 83 82 77 82 90 68 55 49 54 62 61 61 67 63 60 61 65 68 69 70
24 28 33 65 83 93 92 79 70 86 99 99 98 97 84 92 88 84 79 90 87 91 97 92 95 98 91 88 84 87 86 100 93 96 88 87 86 91 75 68 60 61 66 65 70 70 67 69 69 69 70 72 76 75
29 33 63 74 81 93 90 75 83 95 100 99 98 90 93 83 92 82 98 100 100 100 100 95 78 98 98 93 98 94 98 99 100 98 94 98 95 72 68 69 71 73 72 72 77 80 77 81 83 75 73 75 77 77
78 84 84 80 84 88 86 90 90 97 100 99 96 86 98 100 98 99 100 100 97 99 98 88 88 99 97 100 100 95 100 99 99 100 98 98 94 83 80 82 79 76 74 74 73 72 72 77 84 86 86 83 84 80
96 95 86 78 82 94 93 89 95 99 98 88 81 89 100 100 100 100 99 96 99 92 97 100 94 96 97 98 97 95 100 99 99 97 98 90 77 84 79 79 75 71 72 75 85 92 95 87 84 86 88 90 85 68
76 92 88 81 95 95 92 85 100 100 100 93 96 100 100 100 99 99 96 99 99 97 97 98 99 99 98 95 96 99 93 98 96 96 92 90 92 80 76 74 86 95 99 100 99 97 98 96 90 90 88 91 97 82
99 94 94 92 91 94 88 100 100 98 97 98 97 98 98 99 98 92 96 100 98 100 96 94 99 98 89 100 95 98 99 98 100 99 89 87 87 78 75 79 95 98 97 97 94 81 79 74 72 83 82 79 87 95
96 93 95 91 98 97 99 100 100 96 83 97 100 96 98 91 96 100 100 99 95 99 99 99 100 97 100 100 94 99 99 97 84 82 95 97 84 81 81 84 96 71 66 62 61 66 69 72 72 71 71 73 70 64
99 98 98 92 98 99 100 100 98 98 100 100 100 99 91 97 98 100 100 100 98 97 99 100 100 100 100 99 98 93 91 82 87 100 98 91 84 78 79 80 72 68 61 58 61 62 63 73 78 77 75 79 84 78
99 99 91 91 99 100 100 96 99 99 93 98 95 88 92 97 97 99 100 100 97 99 100 100 99 99 99 97 94 88 91 94 94 97 95 83 79 74 72 70 73 67 55 59 60 65 70 70 73 70 72 63 66 90
99 100 100 100 99 98 99 99 98 93 95 95 98 94 81 80 92 100 100 100 100 100 100 100 100 99 96 90 86 93 98 98 95 95 93 85 79 77 65 71 70 58 56 62 61 63 66 65 61 67 58 61 67 78
100 100 100 100 91 90 97 99 98 94 93 94 90 90 87 80 84 87 94 99 98 98 100 100 99 98 94 95 100 96 100 97 86 83 79 76 73 80 74 70 71 59 57 62 63 52 54 55 56 61 59 68 77 74
100 100 100 96 72 84 96 99 99 94 96 96 90 85 78 79 85 90 88 92 97 100 99 98 90 83 85 87 93 94 92 83 81 84 81 78 74 78 80 80 77 66 60 59 58 60 60 59 55 57 60 74 80 74
98 100 95 78 77 82 92 92 87 95 94 90 93 85 78 85 86 86 87 97 99 98 98 95 83 76 90 82 77 79 83 79 80 79 78 92 78 80 85 78 67 64 57 52 56 51 53 58 52 56 60 69 75 75
100 98 97 73 85 88 94 94 92 84 89 92 84 86 84 87 85 91 97 95 97 95 93 77 87 90 88 75 83 77 77 80 80 76 72 73 86 93 94 82 82 82 62 51 46 49 53 56 57 56 68 73 74 76
86 74 68 67 82 83 98 87 94 93 92 91 98 93 97 97 98 97 99 96 95 92 89 92 89 84 88 76 76 75 74 81 94 86 78 76 71 74 73 76 78 79 88 69 56 55 57 58 61 67 67 72 77 75
77 82 89 91 86 94 81 94 85 93 94 95 95 95 95 98 97 98 97 96 94 94 92 91 90 93 92 93 97 97 74 76 82 80 70 64 90 68 74 75 71 74 67 52 55 52 54 57 62 66 71 80 77 78
85 96 94 100 95 89 92 94 92 92 89 94 90 94 96 96 97 97 96 93 95 94 93 91 86 89 95 96 95 78 72 77 89 96 76 71 64 58 57 54 51 46 49 51 52 49 49 56 62 66 72 79 80 78
98 94 93 92 97 90 94 92 94 91 91 93 93 97 97 96 94 88 90 90 91 91 90 90 92 93 92 85 93 93 77 73 80 87 76 72 68 63 80 88 88 52 36 34 40 50 54 58 62 67 73 75 80 78
98 96 87 71 80 79 83 77 73 90 90 86 96 98 94 87 85 78 88 87 85 58 40 46 55 81 86 78 68 66 68 69 72 76 75 72 67 68 61 65 77 35 29 29 33 38 42 48 58 66 70 72 77 80
88 88 94 95 93 94 89 88 85 81 87 83 88 95 90 82 77 87 88 48 44 36 34 34 35 36 37 36 45 60 68 71 73 70 70 68 67 60 51 53 54 48 39 35 38 43 46 50 57 68 74 78 81 83
96 89 90 98 95 95 92 86 89 88 73 91 90 88 88 90 86 83 36 31 32 34 38 41 36 38 41 40 42 46 56 72 78 82 82 83 90 56 52 50 36 42 45 47 53 58 61 64 69 78 81 86 93 97
99 96 96 97 94 91 92 93 92 91 85 88 91 91 92 91 47 40 44 46 50 55 40 41 45 58 67 68 65 54 51 54 60 76 80 78 75 56 52 45 42 45 49 52 54 58 70 92 94 98 93 91 88 89
98 96 95 96 96 95 97 94 92 85 90 96 97 97 90 91 67 43 41 39 41 46 55 63 61 61 70 74 78 88 78 54 56 56 60 73 82 73 60 54 54 57 61 63 63 68 73 82 89 94 95 95 91 98
96 100 99 100 94 96 96 97 99 98 97 99 97 99 97 96 92 84 33 32 53 70 63 62 70 70 61 61 65 65 69 68 67 62 58 64 73 88 85 80 74 74 75 74 79 85 90 95 98 99 99 98 95 95
98 99 99 99 97 95 96 95 94 96 98 100 95 95 95 93 82 78 54 50 46 49 60 64 66 65 64 62 63 65 64 65 67 68 64 64 70 79 79 80 85 92 94 94 94 95 96 98 99 98 98 98 98 96

GFSWCAN_925_rhum_069.txt.gz
RH
95 98 98 96 88 86 97 99 100 99 93 88 91 88 76 82 85 96 77 79 79 94 83 63 55 70 70 72 88 92 95 93 92 94 96 91 73 64 62 61 77 78 72 94 88 93 92 57 52 70 66 59 58 57
98 98 98 92 91 92 91 93 92 89 82 86 89 90 75 76 94 98 90 86 84 93 88 65 65 57 63 66 82 90 96 97 91 86 84 75 72 73 71 78 56 72 67 67 71 70 50 53 55 56 59 61 59 62
94 98 94 92 95 94 90 87 90 97 97 79 87 91 80 78 95 96 99 88 94 99 83 83 83 50 56 61 59 88 78 69 96 92 98 88 73 76 83 75 56 54 53 60 56 50 49 49 51 59 58 60 58 58
88 88 86 85 86 89 93 89 95 99 100 99 99 97 94 82 91 83 94 88 98 99 99 74 46 48 45 48 56 62 55 49 69 97 98 91 82 64 75 63 63 63 58 61 63 54 49 48 53 62 63 62 58 56
42 43 48 60 74 84 91 89 89 94 89 92 100 97 98 90 87 81 82 85 90 96 97 82 67 59 56 59 55 60 64 70 85 93 100 94 77 65 72 75 81 67 69 72 76 58 57 72 72 70 72 68 62 60
8 8 8 10 17 26 35 46 68 78 85 91 97 100 100 93 91 87 95 85 87 98 99 97 74 71 50 50 56 57 66 76 92 90 93 86 74 68 82 89 63 56 58 58 62 65 70 72 68 61 70 66 62 61
7 7 8 9 12 17 29 36 39 50 80 90 96 100 100 94 95 86 81 81 72 79 99 95 96 74 76 67 71 77 73 92 88 90 94 92 89 84 87 86 54 52 52 66 68 68 68 69 73 68 66 64 61 61
12 13 14 14 16 23 29 36 43 51 58 81 100 100 100 95 96 97 84 83 83 91 95 99 94 92 86 88 88 81 94 94 90 88 89 90 86 90 98 82 61 53 54 70 74 68 72 71 67 65 69 71 71 74
20 20 19 22 26 38 52 71 84 72 63 81 99 100 99 97 97 84 80 81 93 90 96 97 100 95 89 96 94 92 87 95 90 96 90 92 97 96 86 75 67 67 70 72 78 77 73 71 70 72 72 72 75 80
24 25 26 27 42 65 76 88 84 86 95 97 98 98 100 90 92 84 95 100 100 100 100 98 85 98 94 97 100 94 93 100 98 89 94 98 98 76 70 69 76 76 74 80 81 80 79 80 82 77 78 82 84 86
27 23 28 45 53 73 87 90 90 98 92 97 98 100 100 99 98 99 100 100 98 98 96 90 78 92 88 100 100 98 100 97 99 98 91 99 96 88 84 88 84 81 78 78 75 76 78 79 85 89 90 87 90 83
31 30 42 52 72 82 86 93 89 94 97 93 98 100 98 100 100 99 96 95 97 89 92 96 94 98 98 96 99 99 100 99 99 97 100 98 85 88 86 83 80 76 80 89 87 91 90 85 85 85 87 88 89 89
31 47 74 94 96 97 93 95 98 98 97 99 99 100 100 100 98 98 95 98 98 98 99 100 100 99 97 100 98 99 97 99 97 98 90 84 91 87 84 90 98 96 98 98 99 98 97 93 89 89 86 90 93 92
54 77 89 88 90 96 92 97 99 97 91 99 99 98 98 96 91 91 93 99 98 100 98 97 99 99 97 100 98 99 99 98 99 99 93 84 90 86 81 89 98 100 99 100 100 99 99 98 90 88 72 70 68 71
75 91 95 88 90 90 89 100 100 99 100 98 99 95 98 90 97 100 100 100 97 98 99 98 100 99 100 100 99 99 98 98 92 87 93 98 87 85 89 96 92 95 97 78 71 69 71 73 75 77 77 81 77 73
99 99 99 88 87 89 100 100 99 99 100 99 99 99 94 98 97 99 100 99 99 98 100 100 100 100 100 100 98 98 97 91 85 98 99 93 86 85 88 94 75 69 62 62 63 63 68 74 80 79 75 59 76 90
99 98 92 83 94 100 100 97 99 99 97 99 98 93 97 99 98 99 100 100 98 100 100 100 99 97 99 99 98 98 98 95 99 99 98 86 83 83 86 82 76 64 59 62 64 64 69 65 71 62 60 59 71 85
98 96 85 96 100 100 99 99 99 98 98 97 97 96 89 87 95 93 97 100 100 100 100 99 100 99 98 98 95 94 100 98 98 97 96 87 79 79 74 78 72 58 59 60 61 62 64 58 64 67 59 64 67 72
90 96 96 99 94 92 98 99 99 95 92 97 96 96 93 89 85 87 95 98 98 98 100 100 99 99 98 99 100 99 99 100 91 86 86 82 78 73 69 69 69 57 58 62 58 54 54 53 51 56 54 62 75 74
100 100 100 99 92 94 97 98 100 93 95 92 95 94 94 95 90 94 95 91 90 99 99 99 95 90 96 96 93 93 94 88 88 86 83 83 80 81 77 77 74 62 58 59 60 56 55 57 55 54 53 63 80 75
98 100 100 95 85 82 94 93 94 98 97 95 98 94 93 95 87 84 88 95 99 97 99 95 90 84 93 86 79 80 85 84 84 86 84 92 82 83 83 77 72 70 64 59 60 56 57 55 46 50 52 55 66 70
100 99 99 88 91 88 94 94 98 94 95 97 96 97 97 96 95 94 98 97 91 95 96 82 89 94 90 72 80 78 74 78 81 84 79 79 86 96 97 88 80 85 73 60 50 51 42 43 50 55 54 60 73 73
98 97 90 72 80 83 97 90 94 95 91 93 97 97 100 100 98 99 100 98 93 96 94 91 91 85 88 74 75 72 74 80 90 85 85 85 81 76 77 77 82 85 88 70 54 48 46 49 56 63 61 70 72 74
91 95 94 90 81 92 83 95 89 96 96 98 100 100 99 100 97 99 98 96 93 97 94 89 89 91 86 88 95 93 72 75 84 86 84 84 92 75 77 76 78 78 75 69 60 57 52 49 53 57 61 65 70 78
96 96 92 98 94 86 92 95 97 94 90 98 96 96 95 98 97 100 96 93 96 96 96 95 90 89 89 92 92 80 70 75 88 97 78 78 72 69 63 62 65 64 63 76 62 58 52 47 50 57 62 67 72 75
96 96 90 95 98 86 91 92 97 92 96 95 96 97 100 97 95 83 88 90 90 90 92 86 86 94 92 83 86 90 66 68 73 93 76 75 76 73 84 86 85 54 43 38 47 49 46 47 50 57 62 65 76 81
98 98 89 72 82 79 84 81 77 90 93 85 98 99 95 84 87 76 89 93 83 54 37 37 51 74 73 56 45 47 55 64 64 64 66 70 72 73 74 76 80 60 46 28 31 37 39 41 48 52 55 58 66 70
89 90 92 95 93 95 88 92 89 84 88 89 86 94 86 80 73 85 87 47 41 31 28 27 28 30 32 33 40 46 52 62 68 71 68 60 54 59 67 66 64 63 61 46 32 32 36 40 42 46 54 63 68 72
98 91 88 97 95 96 92 85 87 92 79 92 86 87 88 88 88 85 35 25 25 30 38 36 32 32 37 39 42 47 51 62 80 82 77 75 88 46 40 47 58 60 56 60 52 43 45 50 56 62 66 72 79 94
100 97 94 99 93 85 93 95 92 96 88 89 91 90 90 89 45 35 41 45 51 54 42 38 38 47 58 65 63 59 54 54 56 73 75 71 68 56 56 54 51 53 56 62 62 63 81 93 96 98 99 100 97 90
99 97 96 99 94 96 97 96 97 90 94 96 99 92 86 90 69 40 40 40 44 50 58 63 61 55 62 71 82 92 81 50 50 55 60 66 68 70 74 69 60 52 53 59 61 62 66 76 79 83 86 89 89 96
96 100 99 88 87 96 98 99 100 100 100 100 94 100 97 96 91 84 48 47 59 69 63 64 70 62 50 54 59 63 65 66 64 65 65 64 62 68 85 81 71 72 72 73 74 73 77 84 91 94 95 95 95 95
100 100 99 100 96 94 96 92 93 95 98 100 98 98 100 93 80 79 52 53 63 66 66 63 65 67 66 64 64 62 64 65 64 70 68 64 62 73 89 94 90 82 80 84 93 95 95 95 96 96 98 98 97 96

GFSWCAN_925_rhum_072.txt.gz
RH
97 93 92 95 93 91 92 86 87 93 98 94 84 88 83 78 88 90 80 80 80 95 90 71 61 68 70 73 87 72 55 94 97 99 96 96 95 73 72 69 82 89 91 95 92 97 93 56 54 72 65 61 60 61
92 96 95 96 92 86 84 85 87 88 83 79 76 86 84 75 80 94 90 81 79 91 84 71 79 80 70 63 80 84 86 86 99 100 96 85 80 79 76 82 65 72 66 76 78 76 51 53 51 50 64 64 58 60
95 96 98 91 86 89 89 88 88 83 82 88 92 90 95 86 81 97 94 91 90 98 93 90 89 64 60 69 72 84 78 63 79 100 100 97 79 77 87 83 67 58 59 63 60 50 51 51 53 56 60 58 57 58
99 100 95 90 92 93 93 89 85 84 83 90 89 95 98 96 85 91 94 91 95 98 99 88 55 53 46 49 62 71 63 56 76 89 95 96 98 67 77 61 66 63 62 64 66 57 54 49 56 62 62 62 59 57
98 98 99 93 95 94 90 89 89 88 91 94 90 88 84 99 95 94 88 82 90 94 99 87 74 64 58 55 61 64 73 73 88 94 93 87 98 84 76 78 81 72 71 70 71 56 55 54 65 60 72 68 66 63
86 79 70 75 74 68 61 65 66 65 84 85 84 87 90 100 99 94 90 82 84 100 100 97 72 81 63 56 65 68 74 79 88 95 91 90 79 95 89 86 62 64 64 56 59 67 69 73 69 67 72 71 63 62
24 13 13 13 14 14 14 14 19 33 42 54 79 88 96 100 96 85 84 72 73 96 100 96 93 74 74 72 74 78 66 83 81 89 95 91 81 93 99 89 55 59 56 57 63 74 73 73 70 66 67 65 63 63
12 12 13 13 15 14 17 23 36 52 49 38 60 76 98 100 99 98 92 94 86 97 97 94 92 87 78 94 83 89 97 99 98 90 86 89 81 90 97 87 62 52 55 67 76 68 65 78 79 74 73 73 72 76
13 13 15 18 19 23 29 40 67 79 73 80 95 99 98 98 99 85 80 82 96 88 94 92 99 94 84 99 97 91 94 98 88 96 82 83 88 99 92 80 76 69 68 74 81 78 78 76 77 78 74 74 75 79
19 22 26 23 35 42 65 80 82 87 90 80 88 90 100 97 94 93 96 100 96 100 100 99 87 96 90 89 100 93 96 97 97 82 89 97 96 82 76 74 74 71 76 83 85 85 81 80 82 78 77 84 84 86
44 37 28 56 61 70 90 91 88 86 85 83 98 100 99 100 98 99 98 96 94 99 96 92 91 84 76 96 100 100 99 99 98 96 100 99 97 90 87 87 85 84 82 82 78 80 76 74 80 84 87 86 91 88
33 44 58 57 67 76 82 88 94 85 74 83 97 99 98 100 100 99 97 96 97 92 86 95 96 97 97 97 100 99 100 100 99 96 96 96 84 91 88 84 81 79 84 87 85 88 86 84 84 85 86 88 89 90
66 49 63 67 74 72 78 94 83 85 92 98 97 99 100 100 98 100 97 97 100 94 97 100 100 99 99 98 99 100 99 99 95 100 93 88 92 90 90 98 98 95 96 98 98 96 90 90 89 88 86 90 87 92
48 50 82 68 86 77 81 100 87 86 87 98 96 99 97 99 96 93 92 98 98 100 98 97 99 100 99 100 100 99 100 98 98 99 96 83 88 91 92 97 98 100 100 100 100 99 100 97 96 100 98 90 77 68
50 78 79 74 87 85 83 100 94 83 99 99 98 97 98 88 96 98 100 99 97 98 98 98 100 100 100 100 100 99 98 98 97 96 94 98 88 88 93 97 98 99 100 100 90 86 89 90 88 84 84 82 82 82
77 96 96 82 86 86 90 100 99 98 100 99 97 98 95 98 97 97 99 98 98 98 99 100 100 99 99 100 98 98 98 97 98 99 99 96 87 87 92 92 87 94 91 70 68 67 70 74 77 80 67 52 76 91
91 98 97 79 84 95 100 97 98 99 99 99 98 95 99 98 97 99 91 98 99 100 99 100 99 97 99 98 98 98 98 99 99 97 99 89 83 82 90 89 78 65 62 64 64 64 64 63 75 58 51 58 75 76
97 100 99 89 97 100 99 99 99 98 98 99 99 94 95 90 98 95 93 99 100 99 99 99 99 100 97 98 98 99 99 99 99 97 97 91 81 82 85 82 74 60 59 61 61 62 62 61 62 60 55 60 66 70
89 91 99 100 95 91 98 99 99 97 94 96 97 98 94 92 91 91 93 95 99 99 99 99 99 98 98 99 98 100 99 98 95 88 88 84 79 76 76 75 72 59 60 61 56 53 53 51 48 54 53 61 69 71
96 100 100 95 77 87 96 98 99 95 94 92 96 97 97 95 94 96 93 92 87 98 99 99 96 91 95 96 96 96 96 86 88 88 84 84 83 81 75 76 73 61 60 62 58 56 53 52 50 51 52 55 76 71
98 100 100 97 99 95 96 96 96 98 99 98 98 96 97 98 95 95 96 96 99 94 98 97 92 87 93 90 84 83 85 87 86 86 85 93 82 85 85 77 75 72 67 66 68 59 60 58 40 44 49 51 54 65
100 100 100 99 98 97 96 95 97 96 97 98 96 97 97 97 97 98 97 98 86 93 97 89 94 96 94 76 79 76 75 77 79 84 85 86 90 95 96 88 90 90 82 73 63 60 49 39 46 47 50 49 60 71
100 100 98 97 96 95 96 92 95 95 96 98 96 95 97 99 96 96 99 98 93 94 93 94 92 86 88 74 73 68 67 77 91 85 81 83 84 83 82 79 84 88 92 80 71 64 53 42 43 56 56 57 63 70
98 97 96 95 89 96 89 94 85 92 96 98 100 100 99 100 97 100 99 96 92 97 97 91 92 92 87 83 91 86 67 74 80 83 81 92 98 89 79 78 79 79 79 78 74 71 63 51 49 52 59 66 68 68
95 96 95 97 94 88 95 92 93 88 89 99 98 95 93 98 98 100 99 91 97 96 95 97 97 94 87 89 86 71 61 75 91 96 69 78 82 80 76 68 68 68 73 79 84 77 61 57 52 53 56 61 63 63
94 94 88 90 95 85 88 88 93 90 92 98 97 96 100 99 100 87 88 91 93 93 94 90 85 91 91 84 86 87 51 61 74 93 67 70 78 83 91 93 92 72 60 54 52 63 60 53 50 50 53 54 69 74
99 99 89 72 79 79 83 78 76 87 94 85 96 100 96 89 88 76 89 94 88 58 40 30 40 70 66 42 36 40 47 56 57 56 59 64 67 73 78 84 87 68 65 56 43 42 44 44 45 46 46 47 51 54
89 88 92 94 92 93 86 90 88 85 85 84 85 90 86 78 72 83 87 45 39 31 24 25 29 32 34 32 35 39 40 43 52 61 59 51 43 44 49 55 59 66 70 69 65 48 37 38 42 43 46 48 49 58
96 88 86 97 96 95 90 85 84 86 79 89 85 84 84 84 86 85 36 27 25 26 32 36 30 31 33 33 36 40 47 55 77 78 73 71 81 44 41 44 45 50 60 67 68 65 54 44 46 50 54 60 65 73
98 96 94 99 89 87 92 94 92 95 88 88 89 91 91 89 52 37 41 43 53 57 45 43 44 49 52 54 57 53 50 53 58 71 78 74 67 47 58 59 57 56 53 61 73 70 84 90 86 96 97 97 97 98
96 95 94 97 88 95 96 95 95 91 95 97 100 93 87 93 68 40 40 44 54 59 63 68 66 61 64 69 77 90 79 45 48 52 57 60 63 65 67 70 74 71 60 56 66 72 71 79 84 91 96 93 89 96
95 100 94 68 80 95 98 100 100 100 100 100 97 100 97 95 90 83 49 53 53 61 64 72 75 74 71 72 70 68 68 67 66 67 68 69 68 66 62 66 81 73 65 64 66 68 71 73 78 86 93 94 93 93
99 100 99 99 91 89 96 92 94 98 99 100 100 99 100 94 78 80 58 62 64 71 70 66 65 66 66 68 68 65 64 64 64 66 66 72 74 66 66 81 85 85 84 81 79 84 92 95 95 95 95 95 95 96

GFSWCAN_925_rhum_075.txt.gz
RH
95 91 87 86 88 93 90 91 84 82 84 82 79 78 82 73 74 77 76 79 78 89 82 74 69 70 72 75 84 74 68 81 92 100 99 98 93 78 79 75 87 91 92 96 92 95 91 53 58 69 63 64 64 62
95 96 93 85 92 93 96 92 84 85 92 91 81 77 85 81 79 90 86 80 84 93 84 69 72 71 64 62 82 77 81 83 95 94 94 97 99 83 80 86 71 80 76 90 82 77 52 53 59 50 64 66 59 60
98 96 93 88 91 91 95 89 83 84 84 82 81 90 88 92 90 94 84 87 96 99 91 88 91 63 70 77 87 91 83 72 84 98 98 94 99 89 86 83 73 63 61 67 65 53 58 52 53 58 62 60 57 59
95 96 97 95 90 91 83 82 86 86 84 81 81 83 88 89 94 96 100 96 95 95 99 88 61 65 48 51 68 80 69 68 91 94 98 99 94 91 96 71 68 68 65 67 69 59 55 53 52 54 62 61 60 58
94 94 93 94 90 87 84 85 88 86 83 87 85 83 87 86 89 96 100 99 93 84 97 92 73 65 56 69 65 71 83 81 91 94 96 94 89 94 95 92 84 71 70 70 73 56 53 50 52 56 71 67 64 62
96 95 92 93 89 89 92 94 95 92 89 92 95 97 92 90 100 100 96 79 81 97 100 97 72 77 65 62 70 77 78 86 92 93 91 85 78 92 93 100 64 66 65 54 53 56 62 67 68 69 73 74 68 66
98 100 100 96 94 95 90 85 57 55 43 38 48 72 77 100 99 94 94 67 79 98 100 94 93 71 63 78 77 83 79 90 90 88 93 83 73 98 99 99 67 58 63 61 62 74 74 74 72 72 69 70 67 67
96 94 88 68 43 24 21 17 28 37 22 27 34 48 80 100 100 98 91 87 98 98 94 92 89 86 66 94 87 91 97 96 97 94 90 85 72 82 95 69 51 66 59 65 73 68 66 78 80 77 76 74 73 76
42 20 15 19 20 17 26 25 36 45 59 67 82 95 96 96 99 94 90 98 94 88 96 90 98 92 81 90 99 98 95 98 89 98 88 75 81 96 82 70 72 75 67 60 79 79 83 79 83 82 77 75 75 78
15 20 25 22 24 19 30 56 65 76 83 95 90 89 99 99 99 96 98 100 100 100 96 91 83 97 83 84 95 96 96 96 97 86 86 85 89 66 59 83 79 84 71 86 82 84 81 82 84 82 79 81 81 83
34 35 28 25 20 45 81 77 87 86 88 79 97 95 100 99 98 98 96 95 97 99 86 89 93 95 84 97 97 100 99 99 98 97 92 98 96 91 88 87 84 85 85 83 80 79 76 74 84 86 88 86 89 90
29 30 30 35 67 82 86 86 87 78 76 85 95 98 98 100 99 96 96 94 98 93 84 94 97 98 97 100 100 99 99 99 99 90 98 98 96 93 88 87 90 89 89 92 86 87 84 84 83 85 88 89 90 91
49 41 64 69 79 87 91 95 81 74 84 87 95 99 98 98 96 92 93 94 96 96 95 100 98 100 100 100 100 100 100 99 99 100 98 98 90 90 92 98 98 94 96 97 95 90 88 90 88 86 87 82 80 81
86 82 71 80 79 81 82 93 95 81 76 97 95 98 94 89 84 92 91 92 90 100 98 92 97 95 89 100 100 100 100 99 98 97 95 98 94 89 93 96 98 100 100 100 100 99 100 98 97 99 98 89 77 74
90 61 68 85 81 90 91 95 89 76 98 98 94 98 99 88 95 97 97 93 90 84 90 90 98 97 95 99 100 99 97 97 96 97 98 98 94 89 96 100 100 100 100 100 94 94 93 93 88 91 89 85 90 89
77 87 98 82 82 94 95 100 95 96 100 98 98 98 88 99 95 95 92 96 94 91 95 95 99 98 95 98 98 98 98 96 99 99 95 99 88 87 91 96 99 97 94 87 80 75 75 77 79 82 63 52 75 88
98 98 87 79 83 92 99 97 98 100 99 100 97 90 94 96 96 94 92 89 95 95 95 97 96 98 98 97 98 98 98 97 99 99 99 94 87 82 90 88 96 84 66 64 63 62 61 64 74 62 48 54 69 70
98 89 87 85 92 100 99 99 99 99 98 99 99 96 88 91 96 83 87 94 98 94 99 94 100 95 99 98 96 97 94 98 99 99 91 92 86 83 88 88 79 62 61 62 60 60 60 60 61 54 52 56 62 66
85 89 92 100 98 95 99 99 99 97 96 96 98 99 96 92 93 92 90 94 99 98 98 95 97 97 94 96 97 99 98 100 99 92 86 84 83 78 81 81 75 62 59 61 62 52 52 49 45 47 48 54 61 65
95 95 100 100 90 96 98 98 99 95 99 93 98 100 97 96 94 96 95 94 94 98 99 98 95 90 93 94 97 96 97 89 88 83 79 81 82 82 76 77 77 68 62 64 56 55 52 52 47 47 50 52 63 67
98 100 100 98 99 98 94 98 97 96 99 97 99 96 95 98 98 96 95 96 98 93 97 91 94 89 92 94 94 91 86 87 85 86 83 91 82 84 85 81 76 73 68 68 69 62 62 61 46 40 46 55 55 54
99 100 99 99 98 97 95 97 96 98 97 98 98 98 98 99 98 98 97 98 95 92 94 94 95 96 96 84 78 69 71 77 78 82 82 85 96 95 93 85 92 91 86 79 73 70 61 53 47 48 46 46 51 55
99 99 98 98 96 95 96 97 95 98 94 97 97 97 97 98 97 96 97 96 93 91 90 95 93 88 90 78 72 67 63 69 85 75 73 77 80 82 86 84 84 91 94 84 79 77 71 63 52 48 45 53 56 57
100 97 97 96 96 95 95 97 92 93 95 96 97 100 100 98 97 99 100 94 92 98 99 95 94 94 88 80 89 87 57 65 75 79 75 87 96 88 80 82 81 82 80 80 82 78 76 75 63 50 58 63 64 66
97 96 96 96 96 93 95 98 95 94 95 95 96 94 94 97 96 100 100 90 96 98 96 98 98 96 86 89 92 59 47 62 83 94 63 70 82 88 81 77 75 72 73 81 84 83 81 77 68 62 59 59 60 56
94 95 89 93 94 86 91 91 93 91 87 93 94 93 97 96 94 81 86 90 93 95 94 91 87 90 92 85 86 86 40 49 65 88 58 59 69 83 93 95 93 75 66 67 64 68 67 69 67 62 60 54 66 70
98 100 91 73 79 80 86 79 76 84 89 85 93 98 94 85 86 74 86 93 92 56 51 50 46 65 65 43 37 36 41 45 46 47 50 54 56 62 70 84 87 63 65 66 61 57 56 56 55 55 51 46 47 48
90 88 91 93 92 94 92 86 87 84 82 82 84 88 81 74 69 82 82 40 35 34 24 26 30 31 31 32 40 43 41 42 46 48 47 43 36 37 38 42 46 54 64 70 74 74 70 60 49 49 50 47 42 50
94 86 84 95 94 92 85 80 80 82 78 88 84 84 82 79 83 85 41 35 35 32 32 30 27 30 32 34 37 38 39 44 69 73 70 70 79 38 38 42 47 55 59 60 67 92 82 72 61 51 55 56 57 62
99 95 92 98 89 88 91 93 93 95 87 88 87 90 89 88 55 42 39 40 54 53 47 48 50 53 58 60 64 60 52 53 53 68 74 71 63 44 54 59 58 56 56 56 58 70 89 87 82 81 73 77 90 94
96 95 92 95 88 96 98 94 94 89 93 97 98 94 89 94 67 43 50 55 56 61 66 68 66 66 69 69 79 89 81 50 56 60 63 64 62 59 59 61 66 69 69 70 60 69 79 87 91 95 99 100 99 92
94 97 91 72 85 95 95 100 100 100 100 100 97 100 96 95 88 81 60 58 59 62 76 72 72 68 71 75 78 83 86 78 73 74 79 78 75 72 70 67 63 68 77 68 64 72 77 76 79 81 81 89 92 93
98 98 99 94 88 85 94 89 94 97 98 100 99 100 100 95 78 80 60 65 60 62 62 60 64 69 71 74 75 72 72 70 67 66 73 91 91 92 86 70 73 82 77 76 76 76 77 81 89 94 94 94 93 93

GFSWCAN_925_rhum_078.txt.gz
RH
100 100 95 88 74 76 83 85 82 82 82 78 84 80 74 69 65 62 71 74 69 93 89 77 71 78 76 78 80 75 81 83 94 97 100 94 98 88 82 79 90 86 96 97 97 97 91 58 66 70 61 65 65 66
100 100 93 88 78 79 85 83 84 83 84 83 86 82 83 82 73 71 80 81 80 88 88 70 71 71 68 66 72 81 85 86 86 94 94 95 98 99 84 88 76 83 78 91 82 76 53 59 61 58 64 70 62 63
100 100 95 92 81 83 88 87 86 85 87 90 88 91 87 93 89 82 85 86 96 98 91 93 86 57 65 76 76 97 78 72 82 93 99 94 96 98 98 86 77 68 66 70 69 55 63 59 54 60 61 65 59 59
100 100 95 92 88 90 91 89 85 81 82 83 83 82 87 86 94 96 98 90 94 97 100 88 67 62 61 57 77 82 68 82 87 94 97 96 97 95 96 97 98 73 66 70 70 61 59 54 56 50 62 63 61 60
100 97 92 96 93 89 92 92 80 80 84 86 83 85 90 86 87 100 100 97 96 90 98 95 78 69 60 70 74 93 92 87 95 97 99 94 89 93 92 96 95 72 70 71 70 56 52 50 46 53 68 70 68 64
99 93 96 94 94 92 90 79 79 88 90 87 90 94 85 93 99 100 95 93 97 97 100 96 74 75 63 69 75 86 92 92 96 98 95 87 71 96 100 98 85 65 66 64 58 53 56 65 67 65 67 72 70 70
100 99 94 98 97 86 80 82 85 88 90 95 96 90 88 96 99 86 88 67 78 94 98 96 92 71 64 76 81 87 85 97 96 96 95 89 86 97 97 92 68 61 55 64 58 71 69 72 68 70 71 73 71 73
96 97 100 97 93 87 89 90 93 92 68 34 23 54 98 98 98 97 95 92 96 98 85 92 91 83 63 94 94 92 97 97 100 94 96 96 80 88 94 75 56 43 52 69 65 71 70 77 79 78 78 75 75 79
100 97 98 95 92 94 86 46 29 29 30 20 83 96 94 88 97 99 97 99 97 88 96 93 100 94 78 90 96 98 99 98 90 98 94 90 87 95 73 61 54 60 77 62 78 76 77 75 80 81 77 76 79 81
99 99 96 82 39 23 17 32 47 75 74 98 84 87 99 100 98 98 100 99 99 100 100 86 80 93 88 84 95 95 98 98 98 88 91 96 88 57 50 59 75 81 86 81 80 82 80 81 84 81 78 84 83 85
65 37 22 23 21 24 46 71 81 87 89 81 91 94 97 98 94 90 95 96 98 96 92 82 92 95 89 96 96 99 98 98 98 97 95 97 97 95 90 80 83 84 83 81 79 78 75 74 84 86 89 89 90 90
26 27 26 26 37 60 62 75 83 85 74 81 93 91 94 98 98 93 95 95 98 94 86 98 95 94 90 100 100 97 99 99 97 96 97 98 100 100 96 91 94 91 91 92 88 90 89 88 85 88 90 89 90 91
33 26 33 67 73 70 87 90 78 70 81 79 90 96 95 98 99 94 93 86 91 96 94 98 97 97 100 100 100 100 100 99 100 98 98 100 100 99 99 100 97 94 94 94 92 88 88 89 86 86 84 82 78 75
55 81 67 67 87 92 90 82 75 73 73 94 93 99 96 97 83 94 91 90 88 88 93 86 94 97 90 100 99 100 99 98 98 97 95 98 98 96 94 97 98 100 99 100 100 99 99 99 99 94 88 82 75 79
54 73 84 86 89 91 98 88 81 79 82 98 91 96 98 89 96 94 94 93 86 75 85 94 98 97 100 99 99 99 97 96 97 97 98 95 98 94 96 100 100 100 100 100 99 100 99 98 98 91 79 76 84 85
90 92 88 84 82 82 96 100 91 90 99 97 97 99 86 99 100 97 97 90 91 87 97 99 99 99 98 99 98 97 98 96 98 99 98 98 95 88 97 100 100 99 98 92 79 76 76 79 81 81 60 50 69 79
66 90 83 80 84 98 100 96 98 100 96 100 99 91 94 92 97 98 92 95 95 94 93 98 98 98 99 98 99 96 96 95 99 99 99 95 97 98 99 99 99 97 78 66 62 60 59 63 72 67 54 49 63 67
93 84 74 82 96 100 100 96 99 100 98 98 99 98 86 83 97 91 90 96 94 96 97 98 100 99 93 99 95 94 97 98 99 99 95 92 88 82 85 98 98 85 65 61 59 60 60 58 63 53 49 53 59 63
90 77 83 92 98 97 99 100 100 98 95 97 96 98 96 94 94 92 85 96 94 98 99 98 98 94 90 96 94 99 99 99 98 98 90 82 84 79 80 85 84 72 61 62 65 60 50 49 47 43 46 48 55 57
88 89 98 95 93 94 98 98 99 95 99 94 99 99 98 98 96 96 94 95 90 97 100 98 91 91 92 91 98 98 97 90 90 85 90 85 79 84 80 78 81 78 69 66 62 60 50 49 46 44 44 47 54 54
100 100 100 100 99 98 93 98 99 96 98 97 99 98 97 99 99 97 96 95 97 97 98 94 91 89 91 94 93 93 90 88 86 81 78 92 80 82 82 80 82 78 75 71 73 66 65 65 49 46 42 47 49 52
99 99 99 100 98 98 95 97 95 98 96 98 98 99 100 100 100 100 98 99 96 94 94 94 96 96 97 92 88 81 74 72 76 81 81 83 95 96 94 84 91 93 88 82 77 76 69 63 60 55 54 41 46 48
99 99 98 98 96 96 96 97 96 97 96 98 97 94 96 96 98 96 99 96 94 93 90 94 90 85 91 80 76 72 69 70 85 71 67 68 69 72 80 81 84 93 94 84 81 82 82 78 74 67 51 50 49 53
99 98 97 96 95 96 95 96 94 97 98 98 99 100 100 99 97 98 100 95 92 98 98 95 97 96 94 83 92 82 49 56 66 73 70 84 95 83 77 79 80 81 81 82 84 83 81 80 79 75 64 57 57 59
97 96 96 96 96 94 96 98 100 97 98 99 97 95 96 98 100 100 100 91 95 97 97 97 98 96 91 91 93 60 47 56 75 90 56 64 72 76 70 67 67 65 69 78 82 82 80 83 83 76 69 65 64 63
94 95 92 94 95 88 96 97 98 97 96 97 95 99 97 96 96 85 87 91 92 94 95 93 90 93 90 84 86 84 36 44 59 77 44 48 57 69 90 93 90 63 58 68 72 75 73 73 76 78 74 70 78 73
97 99 92 75 84 86 93 87 85 95 96 90 94 96 96 93 87 76 86 90 88 63 55 56 54 67 66 49 40 40 43 46 44 43 42 44 47 52 62 77 82 54 60 66 69 68 66 65 64 63 61 59 57 53
88 89 95 95 97 98 95 97 96 93 86 84 83 92 86 78 67 78 78 48 44 40 38 31 33 40 46 42 43 43 42 42 43 45 42 39 34 32 36 37 40 49 57 61 66 71 75 77 77 72 61 52 47 50
95 88 90 99 97 97 94 86 82 84 74 84 85 83 80 80 83 84 48 42 40 42 42 41 37 44 42 42 44 45 47 50 62 69 66 62 84 44 38 38 46 52 58 58 58 58 72 86 88 79 67 59 58 58
99 96 93 96 92 91 92 89 94 94 87 87 86 92 91 89 60 50 50 53 52 54 56 62 63 64 66 70 69 53 46 54 59 69 79 77 72 57 56 60 63 62 60 57 58 59 74 99 91 81 68 66 70 79
94 92 91 94 88 95 96 91 92 88 93 96 97 95 89 91 68 66 65 66 64 60 59 62 55 60 64 73 84 95 86 61 71 82 88 84 78 76 75 74 73 72 70 70 71 68 77 94 91 90 94 97 100 99
93 96 91 81 88 96 96 96 97 94 94 95 94 100 94 92 84 88 65 59 62 61 69 63 65 61 64 68 73 77 93 83 74 74 72 74 75 79 81 78 76 75 71 72 76 70 77 87 90 91 91 88 86 91
96 96 96 89 88 85 93 89 91 92 94 97 97 100 100 96 77 83 66 66 62 60 64 59 62 67 71 76 80 80 86 86 82 84 98 100 98 95 96 95 91 81 80 78 75 77 77 77 78 81 89 93 94 94

GFSWCAN_925_rhum_081.txt.gz
RH
100 100 100 100 96 79 74 59 62 74 75 74 71 70 67 62 59 55 73 70 66 90 85 77 71 79 79 83 88 79 79 84 89 91 97 96 96 93 91 79 90 85 94 97 97 97 90 59 67 67 60 62 66 68
100 100 100 100 94 79 72 68 72 78 76 75 76 79 77 67 64 62 74 71 77 85 76 68 66 67 67 66 76 92 81 87 88 94 96 96 93 96 98 96 85 90 79 89 81 74 54 64 53 60 65 67 64 66
100 100 100 99 94 80 80 76 78 81 80 76 79 81 82 73 72 73 74 78 80 97 88 85 69 65 67 76 77 91 90 72 86 86 97 95 100 98 94 97 97 93 69 79 72 57 65 57 53 58 61 65 61 59
100 99 100 100 93 82 85 80 80 84 85 84 86 84 84 84 88 82 83 82 89 98 99 84 69 69 68 68 72 78 73 84 84 93 95 98 93 91 96 97 90 80 76 73 74 60 57 56 58 52 54 66 64 62
100 100 100 100 89 85 87 86 85 84 84 82 79 78 82 91 91 99 99 97 92 90 94 96 78 70 62 70 79 85 83 86 97 96 97 94 90 88 90 91 92 82 75 74 74 55 54 49 43 52 58 71 72 66
100 100 100 100 95 96 93 88 84 82 81 78 80 84 90 91 99 100 96 92 99 90 97 95 77 72 61 68 78 98 98 97 100 94 94 92 76 81 95 93 75 78 65 59 63 59 59 57 70 63 60 69 70 68
100 100 100 98 98 100 94 87 82 80 85 89 91 92 87 95 92 82 82 64 79 91 96 97 92 68 66 72 84 88 95 100 98 97 98 92 87 82 98 94 65 63 57 61 65 72 72 68 67 71 71 78 73 76
100 100 100 100 99 98 96 93 85 90 93 92 95 93 96 94 86 90 97 95 92 92 80 94 92 80 63 89 94 90 96 98 100 95 96 97 84 92 91 72 60 50 50 56 64 72 73 78 77 79 80 77 80 82
100 100 99 100 100 96 89 85 92 95 88 47 43 90 92 79 97 100 100 99 88 85 96 90 99 92 77 85 93 100 100 99 86 97 96 93 87 94 73 68 61 53 60 78 84 79 78 75 80 80 78 77 83 85
100 100 100 100 97 88 89 91 90 36 42 73 88 86 99 100 98 98 99 98 100 100 96 90 86 95 88 90 95 91 97 98 99 90 96 97 88 64 61 60 66 68 82 86 88 85 83 81 85 82 80 84 83 86
100 100 100 100 91 87 88 39 32 73 85 81 93 98 100 98 84 87 95 89 96 90 87 75 78 95 85 94 95 92 98 98 99 94 98 97 96 100 98 92 87 84 84 80 81 83 79 73 86 90 92 91 91 90
100 99 98 90 74 35 54 74 85 74 78 78 89 92 93 92 95 85 97 97 98 91 89 97 96 92 92 96 99 92 99 98 98 96 98 98 100 100 99 98 98 95 90 90 87 90 90 88 86 90 94 93 92 90
85 64 39 30 42 78 83 93 66 77 75 68 85 98 93 98 98 92 95 88 91 95 95 99 99 99 99 100 98 99 97 96 97 98 96 100 99 98 99 100 99 94 92 91 90 89 89 88 86 83 83 80 75 71
36 37 59 64 76 91 78 72 76 65 64 92 92 100 93 100 93 91 89 89 86 86 96 94 94 92 94 100 100 97 95 100 98 96 96 98 96 98 98 100 100 100 98 98 99 99 99 97 93 91 89 83 80 85
85 86 89 90 80 81 86 90 74 68 74 96 86 92 99 88 96 94 94 96 92 87 88 85 98 98 99 100 99 96 97 97 96 97 98 95 98 98 98 100 100 100 100 100 99 100 97 97 98 92 67 68 77 81
93 95 97 91 84 86 93 79 72 82 95 95 97 97 90 97 100 100 97 96 91 84 92 96 99 99 98 99 98 96 97 96 97 96 98 95 97 99 100 100 100 99 98 91 73 74 78 80 81 74 56 49 66 66
80 97 96 94 95 92 88 81 87 100 96 99 99 93 93 96 97 98 94 92 89 84 88 91 100 90 94 98 98 96 97 94 99 99 99 95 93 96 100 100 100 99 98 95 60 58 58 64 67 61 51 44 55 62
86 90 88 92 100 98 95 94 99 99 99 99 99 98 88 82 97 94 96 97 94 93 96 93 96 95 85 92 95 96 100 98 99 99 98 94 88 87 86 100 100 100 97 65 60 60 59 52 56 52 46 48 50 55
76 80 90 99 96 97 100 99 99 98 96 96 96 96 93 93 90 92 86 94 95 98 99 99 92 90 82 94 95 98 98 99 98 97 96 85 81 83 79 87 90 91 77 63 62 61 57 48 48 45 43 45 50 50
79 84 100 98 86 89 96 98 96 93 98 95 97 100 98 97 95 94 93 96 98 98 99 97 84 84 90 90 97 95 99 96 92 86 76 86 81 80 81 78 78 78 80 72 66 66 60 51 47 48 47 45 49 47
100 100 100 93 98 83 92 98 98 97 99 97 98 98 100 96 98 97 98 96 98 97 97 92 86 88 89 92 92 91 95 89 87 87 76 86 75 80 82 81 84 85 83 78 77 70 68 69 57 53 49 48 48 45
100 99 98 100 98 95 94 97 96 97 94 99 98 98 100 100 100 100 99 98 96 92 92 92 96 94 94 91 88 84 88 88 81 80 80 81 91 90 90 75 87 90 88 86 83 82 76 72 71 69 61 55 50 45
99 98 99 98 95 92 97 96 95 96 99 99 97 94 96 95 98 95 99 96 94 91 90 94 91 86 92 84 80 76 75 76 86 78 65 63 65 69 75 76 77 90 90 82 77 80 80 77 82 86 77 62 54 49
98 96 97 96 94 96 95 96 93 96 98 98 99 99 100 97 96 98 98 95 92 96 98 95 97 98 96 89 96 91 74 65 60 60 58 74 91 71 67 71 73 75 78 78 83 85 84 82 82 80 81 73 64 58
96 96 96 97 96 94 95 97 98 97 100 100 100 99 97 98 100 100 100 91 96 96 96 97 97 98 96 93 87 63 49 51 70 88 47 57 62 67 53 48 46 43 52 70 79 81 80 82 84 86 83 80 75 67
92 95 93 94 96 89 95 100 98 98 97 100 98 99 100 98 98 85 88 91 91 93 95 95 92 97 97 91 85 81 33 38 54 76 42 42 48 59 83 88 82 52 38 60 71 75 75 76 78 79 80 77 84 83
98 99 92 76 86 87 93 89 86 95 100 96 98 100 96 90 87 77 87 92 88 65 62 63 63 73 78 62 52 49 47 46 42 41 40 40 39 40 51 68 73 46 48 58 67 69 70 70 68 66 64 61 60 59
85 90 95 96 96 97 94 99 99 98 93 88 85 92 88 80 67 79 82 57 56 49 39 38 38 40 48 51 52 46 41 42 44 45 43 41 36 37 40 42 45 51 62 62 61 63 70 76 79 79 79 77 71 58
95 91 91 100 100 98 96 93 93 93 81 88 86 86 80 82 85 85 60 57 55 48 45 50 46 50 48 47 46 48 49 54 65 72 73 75 87 50 56 57 54 59 66 68 66 64 64 69 82 95 94 82 69 60
95 96 96 99 95 94 92 95 94 95 89 88 86 92 91 90 70 67 60 55 55 61 64 64 61 54 59 59 60 48 53 55 62 71 89 84 79 73 72 73 74 74 72 69 65 60 62 89 100 93 76 67 67 68
97 95 90 96 91 97 98 94 92 88 92 94 94 95 90 92 70 67 68 68 69 62 56 60 58 58 62 66 75 88 81 68 78 83 81 82 75 72 68 69 78 81 76 75 72 72 74 91 98 92 86 82 91 95
96 94 92 87 92 96 93 95 96 95 96 96 94 98 92 92 81 88 64 60 57 61 74 65 64 63 71 75 78 80 95 86 78 80 81 86 90 89 90 83 89 89 84 82 79 80 82 82 94 96 96 96 98 92
99 97 97 94 90 88 93 89 90 88 91 93 94 98 98 96 77 84 64 61 69 69 63 61 66 72 73 71 73 80 91 95 93 97 100 100 100 100 98 94 95 99 99 89 88 88 86 90 95 95 92 87 92 93

GFSWCAN_925_rhum_084.txt.gz
RH
99 93 97 100 100 100 98 81 62 61 60 55 52 51 51 51 50 47 70 59 59 56 64 64 60 64 67 67 72 64 64 69 66 80 84 80 80 81 88 79 90 83 91 84 74 86 72 47 57 52 38 52 52 57
98 94 96 100 100 100 94 84 58 67 63 58 59 58 58 54 54 51 78 70 69 69 65 71 66 62 62 62 66 76 70 69 69 67 73 69 66 70 81 69 69 87 69 63 58 50 46 45 37 36 45 47 50 57
97 81 100 100 100 100 94 80 68 72 67 62 65 64 59 62 60 54 71 76 80 81 76 69 68 67 65 78 71 73 73 63 72 73 76 82 91 73 66 74 77 99 95 77 63 41 48 45 39 47 46 48 49 52
94 89 100 100 100 100 97 80 74 78 72 72 67 67 66 68 66 60 65 73 88 83 72 69 70 74 72 68 74 75 70 75 72 78 78 80 74 69 69 68 74 57 69 93 62 50 43 40 42 38 41 45 50 56
99 92 100 99 100 100 94 82 84 85 73 71 68 73 74 71 79 76 74 83 81 84 70 82 73 70 64 70 83 84 77 68 84 84 83 78 66 68 58 59 55 40 49 69 65 58 52 42 46 44 46 47 52 58
95 89 100 100 100 97 97 89 93 82 75 78 75 80 88 96 88 96 91 96 94 82 87 84 75 68 61 71 84 89 83 83 99 85 81 75 62 68 69 67 41 39 39 40 48 54 56 52 50 58 53 52 61 59
96 98 100 100 100 100 99 99 90 85 79 77 79 85 98 100 99 87 71 69 97 84 84 90 77 60 66 72 78 80 87 99 96 86 87 71 66 74 81 64 36 41 57 43 40 50 68 60 59 63 62 62 68 68
92 100 100 100 100 100 100 96 90 81 78 82 89 98 100 97 85 86 89 85 89 86 73 88 79 64 64 78 84 82 93 98 99 77 82 80 73 80 81 51 45 42 45 46 36 39 65 63 68 69 69 66 67 69
97 100 100 100 95 100 96 93 91 90 91 98 95 98 85 79 96 99 97 88 82 76 83 82 81 78 69 72 82 99 99 90 74 82 75 77 68 86 62 64 55 46 46 43 61 70 76 73 72 73 69 69 68 70
100 100 100 100 100 100 100 100 94 100 97 79 66 84 98 99 97 95 98 89 89 87 84 76 74 78 74 79 83 79 88 82 90 69 83 85 70 54 66 97 92 72 47 62 63 67 82 84 81 76 70 68 66 70
100 100 100 100 100 100 100 100 97 84 66 62 89 96 100 98 82 80 83 82 83 88 77 71 71 79 76 86 85 78 89 88 95 81 85 84 80 96 100 99 90 83 66 70 67 72 74 73 71 77 79 77 78 79
100 100 100 100 100 99 99 90 66 52 59 70 92 98 92 84 86 83 94 93 88 80 82 80 79 82 85 86 85 81 91 94 90 85 90 86 90 99 100 100 99 87 82 81 82 86 83 81 78 77 80 82 83 85
100 100 99 99 100 94 76 60 46 56 72 74 87 99 88 94 94 90 97 91 90 85 84 87 98 90 99 99 90 91 94 90 93 91 82 88 98 93 99 100 100 96 89 86 85 85 84 83 82 80 78 78 71 68
100 100 100 98 85 66 74 58 56 52 61 93 92 97 91 97 86 81 74 79 74 83 87 85 85 82 87 99 90 96 74 97 97 93 85 82 86 93 88 100 100 100 99 97 97 96 92 89 92 93 89 84 80 76
100 99 86 75 86 72 81 72 62 64 82 96 91 83 98 78 91 86 86 88 88 84 84 84 88 80 94 98 95 90 95 91 87 85 86 91 90 90 90 100 100 100 100 100 96 99 96 98 97 86 70 74 78 78
86 88 98 94 88 88 69 62 65 82 96 93 88 90 86 88 98 97 91 92 87 79 86 92 92 93 83 93 95 91 92 88 87 93 93 95 90 83 99 100 99 97 97 99 94 82 82 85 77 64 53 56 67 69
93 98 96 96 94 76 74 83 86 99 96 95 97 81 86 88 89 90 84 81 82 84 94 90 91 86 86 93 96 86 91 87 92 86 94 94 85 85 88 99 99 98 96 99 98 59 56 62 67 61 44 46 56 58
98 92 80 89 88 99 97 96 99 99 97 97 93 96 82 80 86 87 85 89 88 89 82 91 88 97 90 86 86 82 94 95 92 92 95 92 80 80 81 93 100 100 99 100 97 71 62 59 55 48 46 46 50 54
100 100 98 99 92 94 100 100 96 97 98 94 91 90 87 86 85 86 86 88 91 89 96 95 93 86 78 76 84 89 93 89 86 88 87 84 83 82 80 82 86 94 99 98 96 76 59 55 49 46 45 44 48 44
100 99 100 90 76 85 94 98 88 90 95 94 93 97 93 93 90 89 94 97 95 95 97 96 81 69 68 73 79 82 90 89 90 81 69 64 83 83 79 80 80 81 90 94 83 76 68 61 52 48 48 48 49 46
100 100 93 81 83 78 93 96 97 94 97 95 96 92 98 94 94 95 96 95 98 96 93 80 73 69 78 83 89 91 88 88 81 75 68 72 72 80 81 78 80 84 83 77 74 72 73 72 62 60 56 53 52 52
100 96 98 93 90 87 93 96 94 94 92 98 95 93 100 99 100 96 94 96 94 89 80 76 76 76 80 82 79 84 83 89 91 89 85 81 78 74 72 71 82 82 84 83 85 84 81 76 76 76 74 69 63 58
98 97 98 97 89 84 96 95 92 92 96 98 95 93 96 98 96 92 97 92 88 79 82 85 88 84 84 84 84 80 82 88 86 81 75 64 57 61 68 69 74 88 87 79 75 79 83 81 84 86 86 84 77 65
99 97 97 95 89 96 90 95 87 92 94 95 92 98 98 96 93 96 96 88 84 83 86 89 91 87 89 93 89 86 80 79 77 72 57 63 71 59 57 57 54 56 61 64 72 79 81 83 86 86 85 86 83 78
98 96 90 97 93 91 94 95 95 93 98 96 98 99 96 94 98 100 98 87 84 84 82 86 88 89 90 86 69 61 60 75 67 62 43 49 52 53 46 39 38 36 37 52 63 70 75 78 82 84 86 87 85 81
91 93 91 92 94 88 93 96 97 97 95 100 98 96 95 94 98 87 82 82 82 82 88 91 91 91 90 88 73 60 45 49 52 60 41 38 42 52 67 67 64 49 36 42 60 70 73 75 76 78 79 78 85 88
98 99 90 74 82 84 91 85 81 89 98 95 97 96 91 84 83 70 72 77 74 68 68 74 73 74 70 64 56 49 49 42 40 41 40 45 49 51 57 71 71 55 57 59 60 69 73 70 70 70 72 70 67 63
84 89 93 94 93 92 93 96 96 96 91 84 81 94 82 78 68 70 76 69 61 53 48 47 47 47 46 45 49 49 48 51 53 53 47 42 39 42 48 55 59 58 60 77 87 84 84 84 84 81 80 79 77 78
93 89 86 100 100 99 95 91 91 88 78 82 81 81 79 76 77 80 66 63 58 55 54 55 54 50 47 46 48 50 49 52 60 70 73 67 73 53 61 68 72 77 79 78 76 78 84 82 80 83 90 95 92 81
95 93 97 100 96 98 94 91 91 93 87 86 82 82 81 80 76 67 63 63 63 66 65 61 61 56 62 61 61 50 53 56 65 74 84 83 79 72 70 67 65 65 67 70 70 67 65 67 79 100 94 84 77 72
94 93 90 96 94 96 97 93 92 86 90 91 92 90 85 89 70 68 67 68 67 65 62 58 55 56 60 64 70 76 75 69 77 79 78 84 80 80 78 79 82 85 81 77 83 84 83 86 98 100 99 85 76 84
95 94 90 88 94 98 95 93 96 94 95 94 92 94 89 88 82 85 62 62 66 69 67 64 68 69 76 80 81 81 91 81 78 86 88 96 100 99 97 93 92 98 100 100 97 93 92 94 98 97 100 97 94 97
99 98 99 95 95 94 94 88 92 88 94 94 91 92 92 91 77 79 61 65 70 68 69 63 68 74 76 73 74 76 81 85 86 87 96 100 100 100 96 97 97 96 95 98 99 98 98 98 97 98 100 100 98 93

GFSWCAN_925_rhum_087.txt.gz
RH
92 98 90 92 94 100 100 99 93 63 48 49 42 37 38 36 32 22 55 51 52 36 53 48 47 50 56 52 54 56 59 65 57 71 72 68 64 60 68 56 74 79 86 94 85 86 67 37 48 48 40 44 41 47
93 95 93 97 98 100 99 100 84 49 53 49 42 40 40 40 36 30 71 58 66 52 59 57 54 58 55 51 53 58 61 56 60 63 67 66 60 60 64 57 57 72 73 90 56 51 44 40 35 36 32 35 39 50
93 94 90 95 92 99 100 99 66 56 59 50 46 46 45 44 45 40 65 69 72 63 64 59 60 66 69 69 59 62 57 54 60 62 69 67 80 59 52 49 65 69 89 86 62 40 39 38 36 34 37 38 39 42
94 91 92 96 89 100 100 98 62 67 59 51 52 52 54 56 53 45 66 84 71 60 59 65 67 66 72 73 72 65 62 60 56 61 70 69 70 57 56 50 62 40 58 84 76 55 45 35 39 41 38 34 39 40
94 95 94 98 94 100 100 99 79 67 60 59 59 59 62 61 60 62 71 89 85 74 55 69 63 63 64 67 69 72 67 63 75 79 79 75 60 63 54 52 56 37 40 43 47 60 63 47 45 45 47 43 40 44
95 95 100 96 100 100 100 93 85 81 73 69 62 68 67 70 73 76 87 75 79 91 76 78 66 58 57 67 71 71 67 67 75 80 74 65 52 64 73 61 38 32 31 30 35 43 45 52 50 51 56 53 48 54
95 94 99 96 100 100 100 100 93 86 87 72 67 72 76 84 74 86 77 78 84 80 74 86 73 56 55 66 68 72 74 84 89 82 80 66 66 71 81 67 38 34 34 36 50 56 44 53 63 55 59 58 61 60
96 91 98 100 100 100 100 100 93 93 82 77 82 96 92 72 74 84 96 89 79 74 63 84 76 60 59 72 82 77 87 97 93 75 77 74 70 74 79 50 47 50 44 36 41 45 56 42 64 59 64 61 63 65
95 97 98 100 100 100 100 100 99 85 82 96 100 98 79 79 92 100 89 82 73 79 76 74 78 81 61 66 71 91 84 86 74 82 73 78 66 84 58 56 74 73 74 47 42 58 62 77 78 66 67 65 62 63
92 97 100 100 100 100 100 100 94 98 100 100 79 75 92 100 95 83 84 76 79 82 72 65 61 73 68 69 73 77 83 84 90 70 73 83 70 50 51 96 100 94 74 66 53 58 51 67 73 68 68 62 60 62
95 100 100 100 100 100 100 100 100 100 89 66 84 98 100 89 84 78 86 79 80 83 71 61 60 70 66 74 75 70 87 82 86 77 82 76 75 78 96 99 100 90 72 59 51 52 59 71 73 69 72 70 69 68
97 100 100 100 100 100 100 100 97 80 66 81 93 95 94 87 85 82 85 84 83 74 69 72 70 72 80 75 76 75 86 91 84 79 86 83 72 92 91 95 99 97 82 74 78 82 86 85 88 83 77 76 77 78
100 100 100 100 100 100 100 94 71 58 81 74 83 98 86 93 89 87 90 87 83 73 75 82 90 82 96 91 81 83 91 85 85 87 77 68 80 78 86 93 98 98 97 90 89 93 92 93 94 93 88 80 68 67
100 100 100 100 100 100 94 68 43 63 58 90 94 98 88 95 83 76 65 71 71 74 80 76 82 81 83 98 85 93 74 96 94 88 77 75 80 82 80 86 100 100 100 98 98 98 97 95 97 98 98 94 83 73
100 100 100 100 98 89 65 51 51 61 79 95 88 89 94 84 92 84 88 82 77 74 75 75 78 71 87 87 88 90 92 86 76 74 80 85 84 78 86 99 99 100 100 100 96 99 96 98 95 63 57 63 68 67
100 100 100 99 93 81 59 58 65 71 95 94 90 93 86 89 96 89 92 91 78 73 75 73 84 85 77 77 86 80 81 81 81 88 86 86 80 72 83 99 100 98 96 98 98 85 77 75 70 58 48 50 59 61
88 96 100 95 83 63 60 72 81 100 99 94 95 85 83 86 85 82 78 72 64 75 88 79 88 80 87 87 88 73 84 86 90 82 85 88 88 77 82 90 99 96 96 98 99 98 69 57 63 57 46 40 48 54
99 99 86 71 63 63 85 96 100 100 96 95 94 91 74 71 75 77 72 76 78 83 82 88 78 91 90 89 79 77 85 94 86 85 84 86 80 74 75 78 99 100 100 100 100 96 75 65 60 49 45 43 46 48
99 91 81 75 72 91 100 100 99 95 97 92 89 81 80 79 80 70 71 74 83 82 94 91 87 85 76 69 81 96 92 82 73 74 79 73 79 79 81 85 84 92 99 100 100 99 99 92 60 49 46 47 48 43
97 93 92 91 84 96 98 99 88 91 94 91 88 90 87 88 84 85 86 90 88 99 94 94 80 64 57 61 71 71 78 79 82 81 71 60 64 86 80 78 77 76 80 80 90 98 93 80 66 58 51 50 50 48
100 100 96 80 83 84 92 94 94 90 91 91 92 86 96 89 94 94 96 96 97 93 89 75 66 56 63 69 76 80 77 77 78 67 66 70 65 71 75 80 79 78 77 69 68 68 71 74 70 66 60 57 56 54
100 88 84 75 88 87 90 93 90 87 88 92 92 87 94 96 95 95 94 96 91 84 75 66 65 64 70 73 67 80 74 82 86 86 87 84 76 75 68 66 77 80 82 78 79 78 76 73 75 76 78 75 73 70
84 71 88 81 85 80 98 92 89 88 91 96 93 91 94 94 93 91 94 86 84 73 76 77 81 80 80 79 78 79 79 85 78 78 78 74 64 55 61 66 66 82 83 73 71 77 81 82 85 88 86 87 86 81
90 94 93 92 81 96 84 92 81 88 89 89 90 93 94 94 90 94 93 83 78 77 76 84 80 75 79 92 81 73 75 79 75 75 72 62 64 58 52 52 51 48 47 48 55 63 70 77 85 86 87 88 88 86
92 95 90 96 89 89 92 93 93 87 92 91 90 93 94 90 94 95 89 80 80 80 77 77 77 78 82 78 66 56 60 82 77 75 59 51 52 48 47 43 41 40 38 46 59 60 64 73 79 84 86 88 88 86
94 93 89 87 93 85 89 93 94 93 90 94 92 91 92 92 96 90 80 78 81 81 84 84 83 80 73 73 68 58 57 65 63 58 44 37 43 52 76 75 69 56 51 49 56 67 72 72 75 76 77 78 84 87
94 97 85 69 75 79 83 78 74 82 93 93 91 96 90 88 81 70 67 68 73 81 79 82 82 74 71 69 62 60 56 53 54 58 51 49 50 50 55 71 75 70 65 64 69 73 81 84 80 77 75 71 70 73
82 83 93 87 84 82 91 88 91 92 85 78 78 92 88 77 71 72 73 76 68 58 55 50 50 50 52 53 50 49 48 47 47 50 47 43 43 44 49 58 66 73 73 71 74 86 95 97 97 93 90 86 79 77
87 81 79 100 94 91 87 85 85 79 70 77 82 76 75 70 80 78 77 68 59 57 63 62 57 50 51 49 49 50 50 53 62 72 67 64 79 72 65 66 65 62 61 61 63 74 85 93 93 94 94 95 91 91
92 83 88 95 94 93 91 86 86 87 78 78 75 75 74 76 83 66 67 69 72 73 67 66 63 57 64 60 62 51 49 51 59 76 85 82 81 72 67 68 72 75 79 82 77 70 66 80 77 78 86 95 90 86
86 88 91 89 91 92 91 86 86 78 84 87 86 84 78 81 74 67 68 70 69 66 59 60 56 56 56 63 71 79 78 65 71 74 74 76 77 80 82 85 89 94 96 100 99 97 94 92 92 100 100 100 92 87
90 87 84 88 96 94 91 91 91 88 88 88 87 89 82 79 77 76 64 68 74 72 72 68 64 64 64 68 71 72 76 76 76 80 85 91 96 97 97 93 93 96 99 100 100 100 100 100 99 100 100 100 100 94
93 91 93 93 94 92 90 85 82 87 86 86 86 88 88 83 76 72 61 64 69 69 71 71 65 66 69 72 74 76 80 81 82 89 100 100 100 100 99 96 94 99 98 98 95 99 100 100 99 99 98 97 100 99

GFSWCAN_925_rhum_090.txt.gz
RH
84 92 83 95 86 89 99 90 100 100 100 49 42 47 41 37 42 38 44 49 52 65 58 46 40 52 58 53 58 65 69 74 69 76 71 66 64 67 74 56 67 83 93 93 89 96 90 49 49 49 54 45 43 48
82 94 82 100 83 97 81 99 100 100 85 47 47 46 40 34 39 33 49 56 49 73 68 52 61 61 57 56 60 62 65 58 75 83 90 88 87 85 72 86 61 76 87 93 97 78 50 44 46 41 43 43 44 52
85 96 87 93 94 88 84 100 100 98 67 68 60 41 41 41 39 33 50 58 58 74 73 64 66 65 64 62 56 72 64 57 68 73 93 87 89 79 82 78 65 74 81 86 82 55 62 55 43 51 48 45 42 45
88 94 86 95 94 85 95 99 100 85 84 70 45 42 46 45 36 27 48 70 53 72 84 82 63 71 68 71 66 62 62 59 62 74 91 86 83 68 80 68 68 58 52 63 77 62 59 56 59 57 56 52 42 41
87 94 93 91 96 91 91 100 100 81 89 58 51 49 47 45 43 43 62 74 66 78 82 81 61 61 62 63 68 66 60 62 72 88 92 90 68 74 67 65 71 50 47 55 61 52 69 69 47 58 66 65 58 48
84 90 88 92 98 88 95 100 100 85 88 63 53 51 53 53 39 45 87 62 62 65 91 93 70 58 61 67 68 69 63 73 81 86 82 71 54 74 90 86 47 38 35 41 55 62 58 52 49 64 66 70 66 61
79 87 88 94 99 96 100 100 100 95 93 62 60 72 74 64 55 90 88 77 62 64 90 95 90 58 56 65 68 67 67 91 93 90 87 71 70 84 92 87 46 42 52 66 51 44 61 46 56 52 66 69 65 67
80 87 91 97 99 100 100 100 100 99 86 75 77 77 69 62 68 87 87 69 61 66 78 95 90 82 60 80 93 82 96 95 95 90 84 79 71 87 87 63 51 54 84 82 70 42 54 61 66 76 70 70 68 73
81 87 91 98 98 100 100 100 100 94 90 84 80 68 68 81 93 98 80 65 63 77 94 93 90 97 70 72 90 90 84 96 87 89 78 85 78 94 72 63 96 99 99 96 77 68 59 69 81 80 76 74 74 72
79 83 94 94 100 100 100 100 100 96 91 88 77 80 98 99 79 74 74 84 91 88 87 86 72 92 79 70 88 95 91 92 97 82 79 88 78 60 68 96 98 100 93 79 83 80 64 69 72 77 75 72 72 73
85 88 93 100 100 100 100 100 100 98 93 77 96 98 100 86 81 89 94 88 91 91 82 73 74 91 72 78 86 78 94 94 95 92 91 86 82 95 87 87 86 98 95 69 72 68 71 83 83 84 78 74 73 72
88 93 98 100 100 100 100 100 96 94 79 87 93 89 86 87 91 88 91 90 87 85 76 89 89 89 85 79 71 83 92 95 88 84 96 84 93 95 91 82 85 98 98 85 84 89 91 93 95 93 92 88 87 86
93 95 100 100 100 100 100 94 92 80 68 80 86 96 92 95 92 84 90 94 94 87 91 96 90 85 86 80 78 80 94 93 91 95 77 90 85 80 85 77 86 98 98 98 97 99 99 99 99 99 97 100 98 91
96 100 100 100 100 100 100 90 68 60 55 92 89 95 92 99 90 86 86 89 92 89 89 85 83 92 92 97 84 95 83 94 96 97 86 89 87 86 81 92 100 100 100 100 100 96 95 95 96 100 100 99 89 71
99 100 100 100 100 96 88 62 51 52 80 92 94 91 96 96 98 97 97 93 92 80 80 88 85 64 93 96 92 94 97 91 88 89 92 91 88 82 86 94 99 100 100 100 95 99 95 98 84 63 51 57 61 63
100 100 100 100 99 93 73 64 61 71 94 90 89 95 87 92 98 98 94 93 84 84 90 92 85 86 72 73 91 83 69 86 91 86 86 89 88 80 84 96 99 92 94 96 96 82 69 66 68 62 49 41 48 51
95 96 100 99 91 86 75 67 82 100 99 94 98 91 97 92 92 92 84 79 72 89 93 84 85 86 90 81 86 81 82 93 93 97 96 89 90 86 87 93 100 99 97 99 99 99 95 69 54 54 54 40 38 45
97 100 99 96 90 81 83 98 100 100 98 99 96 99 94 81 85 85 76 76 84 93 93 85 91 91 85 87 93 93 95 92 96 96 96 92 89 80 79 83 97 99 99 99 100 99 100 99 83 63 49 44 43 40
100 100 98 91 79 86 100 100 99 96 98 98 99 98 92 89 84 84 85 87 91 92 96 91 89 90 94 92 96 97 99 97 91 90 89 83 83 82 83 84 85 93 100 100 100 100 99 99 98 98 85 50 49 47
100 99 97 80 59 94 97 99 98 95 98 98 98 97 96 96 92 86 90 93 96 99 98 98 93 84 79 83 93 94 96 88 90 92 88 83 71 83 84 78 78 77 80 76 78 89 98 97 89 86 83 65 53 51
98 95 78 76 95 94 97 98 97 98 97 96 97 92 98 96 94 91 95 99 97 97 98 94 84 74 70 79 78 83 85 86 92 88 80 90 75 69 73 76 75 72 78 75 79 74 68 76 71 72 71 66 60 57
100 88 97 97 98 98 95 97 96 93 94 97 96 91 89 94 98 98 98 98 98 94 94 84 90 88 91 79 77 74 73 79 83 86 85 83 90 94 87 66 68 80 79 78 78 82 79 77 78 80 80 78 79 77
94 92 98 97 94 91 97 95 94 95 96 98 96 97 94 92 99 98 98 97 94 95 89 91 90 78 85 79 75 73 73 80 89 88 87 85 78 70 61 56 58 69 82 53 63 63 64 68 77 83 85 88 88 87
76 94 96 96 89 97 90 98 86 96 97 98 96 100 97 98 97 98 99 96 95 96 92 91 86 94 94 92 96 90 74 77 82 79 80 76 70 61 52 49 49 46 44 46 47 51 57 60 76 80 83 87 88 90
87 97 94 97 94 92 95 98 97 94 97 95 92 100 100 98 100 100 96 93 96 96 95 94 93 94 95 95 91 61 64 80 84 93 72 69 63 57 50 45 46 42 44 45 50 60 60 70 75 79 82 86 87 86
94 95 93 91 95 89 94 95 95 95 94 97 98 98 98 99 99 91 93 93 94 96 96 96 96 96 95 86 90 87 62 72 80 71 63 54 54 54 79 85 94 58 60 62 66 65 65 65 76 82 78 72 75 77
94 99 84 68 78 81 87 84 81 93 96 94 96 98 96 92 89 85 92 95 95 83 75 82 87 87 88 76 67 60 54 57 56 57 51 49 52 55 57 66 80 75 73 66 66 74 87 90 93 93 90 84 82 81
85 84 93 91 90 93 93 95 95 94 95 88 84 94 84 79 81 92 95 75 66 59 55 52 52 53 52 53 50 48 50 46 43 43 44 48 50 53 56 63 71 74 67 62 64 73 79 94 100 99 100 98 91 87
91 85 85 97 96 94 93 92 94 93 80 91 90 92 89 89 93 94 77 66 56 53 68 71 57 59 56 54 55 50 50 49 51 67 69 86 91 78 75 71 62 58 62 64 67 87 91 91 92 95 96 97 98 99
95 93 92 96 93 96 100 98 98 95 87 87 86 92 90 93 82 66 60 62 68 73 66 63 56 56 54 52 55 57 57 56 54 64 92 94 85 72 71 76 79 81 87 91 89 84 84 92 89 86 86 91 96 99
91 96 95 95 98 100 99 94 93 88 94 96 96 95 94 94 70 65 62 65 67 65 63 62 58 57 58 63 68 77 85 73 72 74 76 76 78 81 84 85 86 88 93 100 100 99 98 96 95 98 98 100 100 100
96 94 92 94 99 98 96 96 98 96 96 96 96 96 94 93 85 93 63 68 72 75 75 67 62 63 63 66 70 74 85 82 80 84 82 90 95 95 94 91 91 90 94 98 100 100 100 100 100 100 100 99 100 100
96 96 97 96 99 97 97 92 94 92 95 96 96 97 97 94 78 86 62 66 71 69 71 74 68 65 65 66 69 74 80 80 80 90 97 100 100 100 98 94 88 91 98 99 99 98 98 100 100 100 98 97 96 97

GFSWCAN_925_rhum_093.txt.gz
RH
75 72 77 80 88 75 84 96 99 87 84 100 100 79 41 46 52 46 42 39 54 76 66 61 55 59 59 62 75 71 76 79 80 84 91 92 79 78 80 71 82 84 96 96 88 99 94 52 46 50 57 51 46 52
78 76 81 90 86 93 96 98 96 100 100 100 100 89 52 53 53 42 38 51 56 77 74 66 68 65 59 60 76 73 71 70 85 91 95 95 92 93 80 92 66 79 89 91 99 90 80 75 64 61 57 52 47 61
82 77 82 90 89 85 94 99 96 94 100 99 77 78 57 56 54 36 41 51 51 84 82 78 78 64 52 61 58 82 76 64 79 83 95 94 88 92 91 88 70 82 81 93 76 65 64 86 63 61 67 62 59 48
87 80 81 93 90 91 92 99 87 99 100 98 84 75 68 67 53 31 44 54 53 75 91 88 67 66 67 65 59 58 66 66 72 86 96 96 89 76 89 79 77 69 58 70 78 59 68 69 52 63 71 71 72 62
89 83 82 95 85 93 87 99 100 99 99 91 85 73 69 65 42 34 52 63 64 65 92 92 63 64 63 68 64 58 62 79 90 95 96 93 82 79 82 79 86 62 59 65 70 62 65 63 51 61 62 71 73 74
91 84 84 93 90 92 98 98 99 100 91 92 91 75 54 45 42 36 62 52 53 48 88 96 73 62 70 69 71 67 68 80 89 92 90 80 58 82 95 97 63 49 52 55 62 58 64 62 58 56 74 75 72 75
90 84 83 91 88 93 100 99 100 100 99 80 69 59 61 56 52 88 75 62 59 51 88 95 95 63 70 69 69 77 83 94 94 95 92 78 73 88 99 97 60 53 85 91 81 75 75 54 62 64 72 78 78 71
88 84 83 88 81 97 100 100 100 100 88 94 74 74 61 54 66 74 65 59 51 64 84 95 96 84 66 84 93 84 97 94 93 96 88 83 78 90 98 75 64 80 96 90 94 84 78 59 69 77 79 84 86 80
86 81 81 80 90 95 100 99 100 99 94 81 76 62 52 71 92 80 63 54 56 60 92 90 91 97 72 84 92 92 88 95 91 93 85 81 89 95 76 72 87 100 100 97 83 82 81 70 68 73 81 84 89 77
84 81 74 82 84 100 100 100 100 94 86 75 65 80 98 96 72 68 63 82 88 90 91 91 87 92 84 82 93 93 90 95 100 84 81 90 91 68 72 92 88 90 96 92 92 85 78 76 83 84 81 76 77 80
85 72 78 82 98 100 100 100 96 91 80 73 98 98 94 94 73 89 95 90 94 92 86 84 87 96 78 86 93 84 95 94 93 92 94 94 90 91 86 83 82 85 96 96 84 87 91 94 94 92 89 83 81 78
76 68 78 84 100 100 100 99 97 87 93 92 92 88 89 90 94 84 90 93 93 85 87 91 95 95 93 80 78 83 91 95 82 88 98 79 86 92 83 80 81 86 97 97 89 92 92 93 97 95 92 92 92 89
79 80 77 96 100 100 100 97 85 74 68 67 86 98 97 95 94 80 90 96 98 93 97 97 95 84 91 74 81 87 94 98 95 95 75 84 90 85 86 78 88 98 98 98 98 99 99 98 99 98 98 99 99 99
84 83 92 100 100 100 99 88 69 66 76 94 92 97 93 96 94 88 84 90 93 91 89 89 98 94 94 95 88 99 76 97 97 96 90 92 88 88 86 94 100 98 99 100 100 96 95 96 96 99 100 100 99 85
81 93 100 100 100 100 90 73 76 74 86 98 95 96 98 96 98 99 97 93 94 81 90 92 91 80 96 95 93 95 98 98 86 90 94 97 90 87 90 94 99 96 98 99 97 99 96 99 95 64 52 54 58 62
95 100 98 100 100 96 89 87 85 88 98 98 98 97 89 92 98 98 96 92 82 90 91 90 85 85 89 88 89 86 73 82 81 96 96 92 90 85 90 90 99 93 93 95 95 80 67 63 65 63 51 42 43 47
100 95 100 100 100 97 95 92 92 100 99 98 98 94 97 96 96 98 85 81 83 86 96 93 88 83 86 80 87 65 80 89 88 100 97 88 88 89 88 95 99 99 96 97 99 98 98 88 71 56 53 46 40 39
100 100 100 99 98 97 96 97 100 98 97 100 95 98 98 97 91 89 84 84 85 96 94 90 91 91 82 82 88 91 99 86 98 97 97 93 93 86 86 90 95 99 100 99 99 99 100 99 100 95 70 50 48 47
98 100 99 95 80 83 99 99 94 96 98 98 99 99 97 94 89 90 88 90 94 93 93 96 93 96 94 94 98 98 99 95 96 92 93 89 88 87 85 85 87 98 98 96 97 100 100 100 100 100 100 100 91 61
100 99 93 79 71 94 97 99 96 92 97 98 98 98 97 99 96 96 94 95 96 98 96 99 92 87 88 85 96 97 98 94 92 93 91 90 87 88 88 86 80 77 82 81 78 85 92 95 82 80 80 86 87 70
99 100 97 87 97 91 96 98 97 98 98 97 98 97 98 96 98 97 98 98 96 99 99 95 89 82 78 85 79 85 90 90 92 90 86 93 83 87 82 76 79 76 76 74 78 73 74 76 71 74 77 75 72 70
100 98 99 96 97 98 96 98 96 98 96 97 97 95 97 97 98 98 98 99 99 95 96 89 94 94 95 82 79 74 71 78 86 90 87 83 89 95 91 77 69 73 74 70 73 78 71 64 67 81 87 84 84 83
88 89 98 99 96 95 96 98 96 96 95 97 96 96 97 97 97 94 99 98 95 97 95 94 91 83 86 82 77 75 74 80 87 85 88 92 91 85 79 67 57 66 68 45 54 56 56 57 64 73 81 85 88 89
87 96 97 97 95 96 94 96 90 95 96 97 96 100 97 97 94 99 98 96 94 97 94 91 88 96 95 92 96 92 72 76 82 86 86 87 92 82 70 55 53 48 46 45 46 49 53 55 68 74 79 84 87 92
91 96 95 96 95 91 95 98 98 91 99 97 95 100 98 98 100 100 97 92 97 96 96 97 97 97 96 100 96 70 70 85 89 95 75 76 76 68 60 55 48 49 50 50 51 56 57 56 57 64 79 84 83 81
93 96 91 92 97 89 95 97 96 95 94 100 100 99 100 99 100 89 93 94 95 98 98 97 96 97 96 93 92 89 66 76 84 83 73 63 73 65 74 85 91 58 63 68 71 66 64 68 76 80 83 84 89 87
95 99 84 70 81 83 88 84 81 90 96 94 98 100 96 94 92 83 94 96 96 86 84 91 90 89 89 82 69 60 53 59 62 65 56 60 64 65 64 66 76 76 80 72 67 66 74 81 85 86 90 85 88 92
87 86 92 93 91 94 92 94 93 92 96 90 86 95 83 77 78 90 95 79 67 64 61 63 64 63 59 56 52 48 49 47 46 50 54 60 61 65 69 74 75 73 64 61 64 71 80 86 91 100 100 98 90 89
91 85 84 95 95 93 95 94 95 96 85 90 89 93 88 91 94 95 78 67 58 63 70 62 69 59 55 55 50 46 44 41 42 58 62 84 92 76 79 70 63 66 71 72 77 92 98 100 100 100 99 100 100 100
95 91 90 95 93 97 100 98 98 96 87 88 86 93 91 94 85 70 63 63 66 68 66 58 60 55 54 52 54 58 59 56 51 57 86 87 79 70 71 74 76 78 83 88 89 88 88 96 93 91 92 92 92 94
91 93 94 95 99 99 99 96 96 89 93 96 98 92 91 94 72 70 65 66 69 68 59 56 56 56 57 61 64 73 80 72 70 73 74 74 77 82 87 89 89 93 93 96 99 99 98 95 93 94 94 94 94 99
91 95 91 93 98 96 96 96 98 96 96 95 94 96 91 89 72 92 67 74 73 67 70 60 58 60 63 65 67 70 77 75 75 78 80 87 94 95 92 92 91 88 91 97 99 98 98 100 100 100 100 100 98 98
92 94 96 97 98 96 96 90 91 90 94 96 96 99 98 91 68 82 67 72 69 66 69 73 69 66 62 64 68 70 73 75 78 87 96 100 100 98 94 91 93 97 98 99 98 96 95 96 99 100 99 99 98 98

GFSWCAN_925_rhum_096.txt.gz
RH
91 94 90 80 75 79 86 93 96 96 91 98 100 100 89 88 80 38 54 40 43 74 74 76 70 60 63 64 73 72 72 76 84 86 90 91 85 82 84 72 88 85 96 96 92 99 94 91 73 78 77 67 56 57
94 92 97 82 77 81 88 94 94 80 95 97 100 100 96 93 74 39 55 46 37 78 79 70 72 72 63 58 79 77 68 77 83 91 97 96 92 95 83 88 63 91 90 90 92 81 85 87 88 65 74 73 74 70
98 93 95 90 80 82 91 90 88 76 85 100 100 99 94 96 62 36 50 40 47 83 79 77 78 64 56 60 55 79 81 71 82 85 94 94 81 93 90 89 75 71 80 93 84 69 58 91 90 89 76 78 78 78
95 94 96 93 81 82 92 91 88 87 99 100 100 99 91 94 58 37 46 40 37 77 89 87 65 63 68 57 54 58 70 72 80 86 96 96 88 80 90 81 84 72 63 69 80 59 74 72 58 64 78 72 75 78
95 91 93 94 83 80 93 88 77 93 100 100 100 98 97 70 50 42 41 50 56 63 92 91 67 70 70 58 59 58 66 83 90 92 95 92 86 81 86 86 93 71 66 71 73 66 68 65 58 50 63 74 81 85
96 95 93 92 84 88 92 63 90 100 100 100 100 92 78 54 50 37 60 62 58 44 88 96 76 77 75 63 65 71 74 89 92 90 91 88 70 83 96 98 69 59 61 68 73 70 72 68 65 56 75 79 72 80
96 97 92 91 85 92 73 70 100 100 100 100 94 83 72 58 55 70 62 66 51 44 88 95 92 67 73 70 66 82 86 95 92 97 93 86 78 89 99 99 62 67 91 89 86 95 95 71 67 60 64 75 75 77
96 96 93 89 88 85 69 74 100 100 100 96 93 84 82 72 63 64 65 65 59 63 81 96 95 88 70 73 91 84 94 88 89 96 92 80 84 90 99 80 70 75 87 92 86 87 94 89 79 71 73 86 91 88
97 95 92 89 86 74 65 97 100 96 100 98 95 90 79 68 84 68 54 50 49 53 88 88 90 93 74 91 92 93 89 98 93 92 87 79 87 97 76 72 78 79 94 97 86 83 83 84 75 72 82 82 91 93
97 95 91 88 70 68 98 100 100 100 96 92 80 79 96 90 72 59 53 68 84 89 90 92 87 94 88 88 92 94 92 98 100 88 83 93 92 72 68 82 89 87 88 94 95 88 88 89 91 88 87 86 86 94
95 91 87 69 66 96 100 100 98 95 91 77 98 98 95 86 78 84 93 78 91 84 85 91 85 98 83 92 97 89 98 96 84 94 90 93 93 88 88 87 80 80 84 95 94 90 86 95 96 96 93 86 85 86
91 84 80 82 96 100 100 100 99 90 81 76 86 90 89 90 94 76 90 94 87 70 92 95 95 96 95 82 93 85 87 94 88 90 98 87 86 88 90 76 75 80 89 95 98 92 94 93 97 96 94 92 94 96
85 87 88 73 81 100 100 98 84 73 67 81 86 94 88 95 90 78 84 91 97 96 99 99 99 90 92 74 87 90 99 97 92 97 78 86 81 90 93 80 93 98 98 98 98 99 99 99 99 98 98 100 100 100
90 85 84 100 100 100 96 86 73 68 72 96 95 99 96 98 94 87 86 87 91 94 90 92 94 91 92 93 75 90 83 91 98 95 87 88 88 88 90 86 100 92 94 99 100 97 96 96 97 99 99 100 100 98
88 83 96 100 100 98 89 86 84 78 91 99 88 92 100 96 98 100 97 96 97 79 91 94 94 88 99 97 95 92 100 97 81 86 89 96 90 90 94 88 99 88 92 96 98 99 97 99 99 91 56 50 56 69
79 96 99 100 98 94 99 94 92 92 100 97 94 98 92 96 100 98 95 94 86 87 92 91 92 91 93 92 95 90 88 90 82 93 96 95 93 88 91 91 99 94 91 91 97 85 72 62 61 62 57 49 40 45
95 100 100 100 100 99 98 90 91 100 99 95 100 95 96 93 97 98 84 84 86 86 95 93 86 83 91 93 94 85 85 86 92 99 99 90 90 90 89 94 98 99 95 93 92 96 97 99 100 87 63 50 48 44
99 100 100 99 98 92 96 98 100 98 97 98 97 100 99 99 97 95 91 85 86 95 93 87 89 88 93 92 92 89 100 94 98 98 98 94 92 91 88 93 90 97 99 99 95 96 100 100 100 99 100 100 99 88
99 100 100 96 84 88 100 99 94 96 99 99 99 99 99 99 94 92 90 91 93 91 92 96 93 96 92 92 92 96 99 87 94 95 93 90 91 90 86 85 92 99 95 91 90 98 95 100 100 100 100 100 99 99
100 100 98 87 77 96 97 99 92 93 97 98 98 98 98 98 98 95 93 93 94 95 89 99 82 80 84 85 96 99 98 93 94 94 92 93 94 92 90 89 90 82 84 86 87 90 92 94 81 81 82 84 93 90
99 100 99 86 97 91 97 98 97 98 98 97 98 98 98 98 98 98 98 95 93 97 95 94 87 83 84 90 85 88 93 92 92 88 85 95 88 91 93 92 86 84 76 71 75 70 74 75 72 75 81 81 81 80
100 98 99 97 96 98 96 98 97 98 97 98 97 97 97 97 98 97 98 97 100 94 96 90 96 95 96 83 83 81 77 83 88 91 90 84 90 96 92 81 85 74 70 64 64 69 61 53 56 67 78 80 87 86
95 87 98 99 96 96 97 98 96 97 96 96 96 96 96 97 97 95 98 95 95 96 97 95 93 92 92 87 79 77 76 81 88 87 90 93 90 88 84 75 71 60 67 43 49 54 54 54 56 64 72 74 79 81
91 96 97 97 96 96 96 96 96 96 96 96 95 96 96 96 95 97 98 95 94 98 96 93 91 96 94 92 94 93 78 79 82 86 85 88 98 92 88 81 68 56 52 52 54 53 56 54 55 53 57 70 78 83
92 96 96 96 97 95 95 96 96 95 95 95 94 97 97 96 99 100 95 91 97 98 97 98 98 97 95 100 98 77 76 90 91 96 82 87 86 78 66 67 62 57 56 59 59 60 63 60 59 64 68 74 83 85
94 95 94 94 96 91 96 96 95 94 94 95 95 96 97 97 100 86 90 93 96 98 99 96 95 99 98 95 94 91 71 87 87 87 77 70 83 79 80 86 85 71 72 72 73 69 65 65 69 75 74 72 84 90
95 99 83 71 82 84 89 85 80 87 91 92 96 99 97 94 88 81 93 97 96 93 94 86 80 88 90 92 78 63 61 68 71 66 68 68 68 69 68 71 78 82 84 75 68 65 68 72 79 82 85 79 79 83
87 86 91 92 91 94 91 92 90 88 92 86 84 95 84 77 78 90 94 88 78 75 82 85 81 72 68 59 52 53 53 51 55 66 64 65 69 72 72 73 73 69 63 64 67 74 83 89 92 94 97 100 100 97
92 86 86 97 96 94 95 92 91 94 85 85 88 92 86 92 95 96 82 69 70 65 71 70 68 58 56 54 49 46 44 44 48 55 58 80 89 74 78 66 65 68 71 70 74 87 99 100 100 97 97 98 99 98
98 94 94 95 92 96 97 94 94 93 87 87 86 92 92 96 90 77 72 67 65 69 61 60 64 59 63 52 59 60 58 55 52 52 81 84 77 72 75 76 80 84 89 92 92 88 88 94 93 90 92 92 90 90
95 94 94 92 96 96 95 93 94 86 90 93 94 90 93 94 77 72 66 67 67 65 60 63 61 58 56 60 62 72 77 69 67 71 72 74 75 78 82 86 88 90 92 95 98 100 100 99 95 96 96 95 92 98
93 92 90 94 98 96 96 96 97 95 94 91 91 94 90 88 72 92 67 73 76 68 62 55 57 61 63 62 61 63 69 70 72 74 76 82 92 95 96 94 87 89 97 100 100 97 95 96 96 96 100 99 96 96
93 93 95 96 99 96 95 89 89 90 92 95 95 99 98 90 66 83 72 75 67 61 60 64 65 63 59 60 63 66 69 71 74 81 95 100 100 100 96 95 98 94 96 96 94 95 96 97 97 98 99 99 98 98

GFSWCAN_925_rhum_099.txt.gz
RH
86 87 83 92 90 91 88 78 82 92 92 89 96 100 99 99 98 48 53 43 42 84 82 79 75 60 61 64 66 72 66 73 85 86 89 93 87 81 83 75 88 93 91 86 90 100 93 90 74 74 86 80 80 87
88 89 86 92 92 92 92 80 82 90 82 86 95 98 100 100 76 42 47 51 40 80 81 72 72 73 76 64 80 79 58 79 81 89 97 96 94 97 84 85 63 90 81 86 85 76 82 87 79 68 78 83 84 92
94 90 87 93 93 93 92 83 81 90 84 82 94 100 100 95 76 56 40 38 48 82 77 76 81 60 58 63 61 77 83 77 85 84 94 93 83 90 90 90 75 67 80 93 85 70 64 81 88 83 83 90 85 81
97 94 94 92 91 94 93 85 79 93 92 82 97 100 100 100 96 63 40 36 37 75 85 86 64 69 67 60 58 59 72 77 84 85 94 96 88 84 90 80 85 73 66 73 80 65 84 79 60 58 58 75 79 85
97 95 96 96 92 94 92 86 75 90 87 83 99 100 100 99 85 52 41 42 39 59 90 83 70 71 67 59 62 62 69 83 86 90 94 91 87 82 89 88 94 78 72 75 71 64 69 67 59 65 67 63 76 84
88 92 99 94 94 90 91 85 82 82 81 83 100 100 100 83 53 44 60 50 44 43 86 91 76 82 71 66 73 84 84 93 92 89 92 90 75 82 94 96 69 68 63 69 76 79 88 87 80 72 70 73 75 77
96 95 97 93 95 88 90 84 83 83 79 100 100 100 97 72 46 69 69 56 42 38 85 93 91 71 74 70 79 86 86 94 91 96 93 87 82 89 98 99 63 71 84 86 81 86 92 83 81 83 82 70 75 83
97 95 93 92 90 88 92 86 71 90 100 100 100 93 83 66 61 65 80 58 39 55 79 94 96 88 72 85 91 86 86 89 91 97 95 84 86 90 99 82 71 67 80 82 86 85 81 89 91 74 68 80 89 94
99 98 94 91 82 91 90 62 99 100 100 97 91 84 76 66 83 72 63 52 44 51 85 88 95 99 80 96 91 92 91 97 95 92 91 83 88 98 77 76 69 80 85 82 84 84 80 86 87 80 86 88 87 88
100 92 95 86 88 91 89 90 100 100 96 94 92 91 100 97 65 57 48 67 79 88 89 87 86 98 92 94 94 90 95 99 99 86 86 92 92 73 70 71 80 86 86 88 97 82 90 86 92 90 97 91 90 91
91 96 91 92 92 86 77 100 100 97 93 88 98 100 100 86 74 88 90 75 86 83 87 92 89 97 85 90 92 88 98 96 88 90 92 98 96 90 82 89 89 82 79 86 92 91 92 88 94 97 95 90 90 93
97 94 94 93 83 74 98 100 94 85 89 87 90 90 88 91 97 83 83 92 82 67 97 96 96 95 96 86 90 95 92 95 92 92 96 93 86 85 94 87 80 79 84 88 92 95 94 94 96 98 96 97 99 100
97 94 93 84 78 92 100 92 82 74 71 59 83 94 93 96 92 83 84 95 93 97 99 99 98 94 86 89 94 93 86 97 89 96 94 88 78 86 95 85 94 92 90 98 97 99 99 99 99 98 96 99 99 99
93 94 90 82 98 100 93 83 63 61 60 96 97 99 93 98 92 85 85 86 89 95 92 92 97 94 88 91 86 97 85 88 98 88 88 88 78 89 94 94 97 81 88 97 99 98 97 97 98 99 97 91 96 92
92 87 78 95 100 98 83 70 69 73 91 98 88 86 100 93 98 99 98 97 98 80 89 95 95 88 98 97 94 93 99 89 89 85 88 90 84 93 96 93 99 87 91 92 96 98 98 98 95 87 63 50 48 57
65 91 85 98 100 95 90 89 93 94 99 93 93 99 95 97 99 98 95 94 83 79 90 87 93 92 94 92 98 99 92 96 86 91 93 94 94 93 93 95 99 90 88 91 93 89 78 66 68 70 58 53 44 43
70 96 89 100 100 100 97 94 94 99 98 93 99 92 94 95 97 98 84 86 78 82 93 92 85 80 92 96 96 89 90 86 88 98 99 91 91 91 91 95 98 98 94 92 91 90 94 96 99 100 95 66 64 53
84 99 100 98 99 97 96 99 100 98 97 98 98 100 100 98 92 92 94 83 84 95 91 84 88 91 93 91 94 90 100 97 99 98 98 93 91 90 88 93 93 91 99 98 94 92 95 99 100 99 100 99 100 99
91 100 100 98 89 91 100 99 98 96 98 98 99 99 99 99 98 92 81 92 93 91 90 95 92 96 92 91 90 96 100 99 96 97 93 91 91 91 88 87 94 94 94 94 95 99 99 96 94 94 96 99 98 98
100 99 100 95 81 98 98 98 95 92 98 98 98 98 98 99 99 93 95 92 93 94 87 97 78 74 83 84 95 98 94 90 95 95 94 96 95 93 91 90 94 99 98 95 95 98 99 91 79 82 86 88 93 90
99 100 100 89 98 93 97 97 98 99 98 97 98 98 98 99 98 97 99 98 91 95 92 92 84 83 88 94 89 93 96 94 91 85 85 97 94 96 96 92 91 91 88 74 73 67 72 74 66 68 80 84 85 87
100 98 97 95 97 98 96 97 97 98 97 97 97 98 98 97 98 97 97 96 99 94 95 89 95 96 97 86 87 87 89 88 89 90 91 85 94 99 100 97 99 92 80 66 60 61 59 56 61 68 74 75 80 83
96 93 97 100 97 95 97 98 96 97 96 96 97 96 96 96 96 96 98 96 95 96 96 97 95 95 94 88 81 79 80 79 89 87 91 92 89 87 86 83 84 76 70 52 49 53 55 59 56 55 53 56 63 69
87 96 97 97 96 96 96 96 96 96 97 96 96 95 95 96 96 96 97 94 96 98 98 98 96 96 94 90 93 94 82 80 85 88 84 84 97 91 91 93 87 81 68 55 56 57 60 58 59 55 60 63 65 71
94 96 95 96 97 95 96 96 96 96 95 95 95 95 95 95 97 100 95 90 94 99 97 98 96 96 93 99 98 82 85 90 90 95 91 98 95 84 73 76 74 68 64 60 64 64 65 65 62 64 68 73 80 83
95 95 95 95 96 92 96 95 95 95 95 95 94 94 95 93 97 90 87 90 95 96 98 94 94 99 98 94 93 93 82 92 88 88 81 76 88 84 91 89 92 80 74 74 73 70 66 64 65 68 70 71 84 86
95 96 84 72 85 90 96 93 92 95 95 94 94 96 94 90 87 80 92 96 96 95 87 78 76 88 90 96 80 71 74 82 77 77 74 72 71 71 70 69 76 80 83 74 67 66 69 71 80 88 94 88 88 95
88 85 91 93 90 94 93 96 95 94 90 84 83 92 86 81 77 90 95 95 92 98 92 91 86 76 74 65 58 56 61 75 71 68 65 69 71 70 69 71 71 68 64 66 70 76 85 92 95 95 95 97 96 94
92 87 87 97 96 95 95 96 94 92 83 82 88 90 86 91 97 97 88 81 84 87 87 83 77 60 58 57 56 50 54 58 59 61 58 78 86 77 77 68 70 74 75 78 83 93 99 100 99 96 98 99 97 95
96 96 95 95 95 95 94 93 94 91 83 85 85 91 92 96 91 89 82 82 80 70 70 64 66 57 63 56 69 64 58 53 51 51 82 83 74 71 73 75 80 86 92 93 91 88 88 90 88 88 89 89 88 90
95 96 95 94 95 95 94 91 91 84 90 94 94 93 95 93 84 74 72 69 65 64 69 78 71 61 53 60 59 70 77 65 64 66 68 71 74 79 87 90 92 93 96 99 99 100 100 96 94 96 96 96 94 99
95 95 93 95 95 94 92 93 92 92 92 92 91 94 92 88 78 92 74 75 75 68 69 60 57 59 60 59 54 55 59 61 68 70 74 82 89 94 95 94 97 97 95 100 100 97 95 96 95 96 99 97 97 98
96 96 97 95 96 96 95 88 88 89 92 95 95 99 98 91 69 85 78 77 66 57 54 55 59 62 58 57 59 62 65 66 69 76 92 100 99 98 97 98 94 99 97 96 95 95 95 95 95 96 97 99 99 99

GFSWCAN_925_rhum_102.txt.gz
RH
82 88 88 87 88 87 87 87 92 92 78 80 94 87 100 91 86 86 59 48 53 84 85 84 81 59 63 64 68 73 69 77 81 85 90 94 88 84 83 79 86 88 88 80 90 94 90 85 76 68 83 83 85 92
83 86 87 88 90 89 86 88 93 91 80 77 79 79 100 98 100 90 46 53 51 78 81 72 73 73 74 65 81 79 54 78 79 86 96 96 95 98 84 89 73 94 82 88 85 80 71 85 76 74 84 88 85 90
86 88 88 90 92 92 87 90 92 92 82 81 80 78 100 100 98 71 42 52 50 78 80 78 81 64 65 66 62 73 83 77 84 84 94 92 86 90 93 92 74 68 82 96 83 72 70 70 90 71 66 79 85 86
90 90 93 92 94 94 91 87 90 93 86 90 85 90 100 99 95 55 44 44 44 72 86 84 71 73 69 64 63 60 72 79 84 86 94 96 84 83 87 75 84 74 76 82 81 66 76 84 58 64 71 69 71 82
95 96 94 94 95 92 92 91 90 92 88 88 85 91 99 100 83 63 44 44 38 58 89 86 72 73 70 63 65 64 68 80 84 88 92 90 89 84 92 88 95 83 75 77 72 65 68 70 69 79 86 80 73 81
96 96 96 96 95 94 90 88 84 86 90 84 67 88 100 99 81 52 64 54 37 36 86 91 77 78 70 66 73 84 87 92 91 88 93 92 80 82 93 93 67 76 68 61 71 85 91 90 91 86 80 83 79 72
94 95 94 94 92 91 87 89 78 85 90 83 70 97 100 100 91 70 71 64 42 31 85 94 93 74 73 72 84 87 86 94 90 96 94 87 85 89 98 97 62 72 82 87 80 84 89 85 85 86 90 80 76 86
99 98 98 98 96 86 84 90 79 87 90 86 84 100 100 99 85 72 71 57 48 49 77 92 96 88 72 89 89 91 87 89 95 97 96 85 90 91 99 82 70 72 86 80 81 86 84 77 86 87 75 80 91 88
99 94 96 100 97 87 85 91 80 90 91 90 100 95 84 79 86 77 59 46 42 50 79 88 90 96 82 95 92 92 88 97 94 92 90 86 89 97 77 75 78 74 84 78 75 84 76 80 90 92 92 93 95 91
96 98 99 99 93 87 90 93 90 85 99 99 89 93 99 94 69 52 54 65 78 88 84 80 83 98 88 95 98 93 95 99 99 85 90 96 93 72 70 71 69 85 87 88 94 88 75 76 82 81 97 91 89 92
83 97 98 97 89 93 94 95 84 99 94 84 98 99 100 82 80 89 88 76 82 83 85 87 89 96 88 91 97 86 99 91 93 88 95 96 98 89 77 79 82 86 86 85 89 90 91 93 93 96 97 93 95 97
95 98 93 92 96 92 88 90 100 88 90 88 97 98 97 94 99 95 86 90 78 65 98 96 96 93 95 85 94 97 93 93 94 91 84 96 86 85 90 89 90 86 86 89 89 92 93 94 98 98 98 98 98 99
90 92 97 94 95 78 98 100 90 82 81 67 84 99 95 98 99 87 85 96 95 98 98 99 99 94 92 92 95 94 90 96 89 94 86 88 78 83 96 92 96 89 92 94 90 99 99 99 99 98 97 98 99 99
95 94 94 96 79 79 100 95 77 63 56 93 95 100 92 99 94 85 83 86 86 95 94 93 98 92 88 90 91 93 82 88 98 93 89 88 78 88 94 93 93 84 84 94 98 98 98 97 98 97 92 77 82 83
94 91 85 70 78 99 95 80 76 74 88 95 89 93 99 90 95 100 97 94 96 81 86 94 94 88 98 97 90 94 98 90 86 89 87 88 80 93 98 87 83 81 89 93 95 97 98 97 93 83 67 56 47 46
89 86 81 70 99 98 99 95 92 92 97 92 93 98 94 97 98 99 96 94 82 78 89 87 94 93 97 92 96 97 91 92 85 91 92 93 93 95 96 90 92 84 85 88 87 90 81 70 74 89 92 60 52 47
67 85 98 93 96 100 97 95 93 99 98 96 99 92 97 96 96 96 86 91 69 80 90 91 82 77 94 98 100 91 92 85 89 93 99 91 90 93 94 97 92 92 92 90 90 86 88 94 93 98 98 93 88 89
83 83 100 100 98 97 96 99 99 98 97 98 98 100 99 96 91 93 94 78 84 95 89 80 88 97 94 88 93 89 95 97 99 100 97 91 88 90 90 96 96 91 98 91 81 88 91 96 99 99 99 100 100 99
99 79 98 98 92 93 100 99 99 96 98 98 99 99 99 99 96 88 79 88 90 87 88 93 88 94 90 90 89 96 100 98 95 98 95 92 89 90 89 89 93 90 89 95 94 97 97 98 98 93 94 96 95 98
100 100 96 89 85 99 97 98 97 92 98 99 98 98 99 99 98 90 92 89 88 90 86 86 74 71 81 83 93 95 99 96 96 98 98 96 95 93 91 93 99 98 98 97 98 98 99 96 77 80 87 91 98 93
100 100 92 92 98 96 97 98 97 98 98 97 98 98 98 99 98 97 97 97 89 93 88 92 79 84 93 97 92 95 95 92 90 87 89 100 97 97 96 91 92 100 97 89 81 70 72 76 62 65 70 74 78 81
100 98 98 97 98 98 97 97 96 98 96 98 97 98 98 98 98 98 98 95 97 93 92 85 95 96 98 93 94 95 91 88 90 90 89 89 98 100 100 100 100 100 93 85 68 62 55 57 59 63 65 59 63 67
96 92 98 100 96 96 97 98 95 97 96 96 97 96 96 97 97 96 96 96 95 96 95 97 96 95 94 92 86 88 88 85 94 89 91 90 89 89 88 93 99 94 92 72 58 58 56 62 56 56 52 54 58 58
85 96 98 97 96 96 97 97 97 96 97 96 96 95 96 96 96 97 96 95 94 96 99 97 96 97 94 89 95 95 83 81 88 90 86 90 99 94 94 95 92 88 81 62 54 61 61 62 63 59 62 66 65 70
95 97 97 96 97 94 95 96 96 96 96 96 95 95 96 96 96 97 93 88 95 99 98 97 96 96 94 100 99 90 94 86 90 96 96 93 95 87 84 88 86 82 75 72 69 70 70 70 66 66 66 69 78 81
94 96 96 94 97 90 94 96 96 95 95 95 95 95 95 95 95 89 87 92 94 96 97 94 94 97 98 95 91 95 90 91 84 89 89 92 92 84 95 92 93 89 80 77 75 72 67 65 67 70 71 73 87 94
95 98 85 76 92 91 96 93 91 95 96 95 95 95 95 95 85 80 88 93 96 94 84 82 77 87 89 96 90 87 93 91 80 76 80 80 77 72 68 70 80 84 82 69 63 65 69 73 82 92 95 91 89 95
89 85 93 94 95 96 95 97 95 96 96 94 93 95 92 81 78 89 92 96 100 97 90 84 79 67 70 67 75 82 80 74 70 70 70 71 72 69 68 68 68 66 65 69 74 79 85 91 95 97 97 98 97 93
94 88 87 96 96 96 96 96 96 95 85 90 94 87 88 92 96 94 93 96 97 94 92 89 86 71 67 66 63 61 70 64 58 67 64 79 90 77 75 68 70 72 76 80 86 93 100 100 96 97 99 98 95 92
99 97 94 96 95 95 95 94 95 93 82 85 83 92 92 94 92 92 90 93 91 88 80 74 70 61 73 68 80 76 72 63 54 52 82 83 76 71 73 77 84 90 90 90 90 89 89 90 89 88 86 87 89 93
96 95 94 94 94 95 95 94 95 93 87 86 87 88 88 90 87 79 78 78 75 77 74 77 68 57 57 66 65 82 82 66 63 61 62 65 70 79 86 91 94 94 94 95 97 99 96 94 94 95 95 94 94 98
95 95 95 95 95 95 95 95 94 89 89 89 88 91 90 88 83 89 77 75 77 79 70 64 63 58 56 59 56 53 50 57 64 65 67 77 86 93 95 95 94 94 96 97 98 95 95 96 96 96 96 96 97 98
96 95 96 95 96 95 95 93 87 88 88 85 85 89 88 85 73 83 76 75 63 58 55 53 56 59 59 56 56 57 60 62 66 69 78 99 100 97 97 99 97 97 96 95 96 95 94 92 93 95 96 96 96 98

GFSWCAN_925_rhum_105.txt.gz
RH
97 99 92 85 84 87 89 90 90 89 90 95 93 69 82 100 96 74 66 52 47 87 87 83 82 58 61 62 67 73 68 75 82 82 89 95 88 87 86 81 84 86 93 93 85 92 81 78 72 71 74 82 82 86
98 97 88 86 88 88 88 91 92 88 90 90 91 70 80 100 87 70 58 51 52 81 82 73 74 74 78 70 80 80 52 78 78 83 94 96 94 98 83 88 80 92 78 85 80 74 59 83 74 77 86 92 88 92
99 90 87 89 89 88 91 91 92 90 92 88 96 81 81 100 94 73 52 55 54 82 78 75 76 64 67 70 68 70 82 74 80 83 93 91 82 89 92 92 75 74 85 97 87 73 79 66 89 73 62 69 72 79
90 89 91 92 93 91 94 92 92 92 92 92 95 87 78 98 100 94 48 46 47 72 83 82 72 71 71 66 68 62 70 79 82 85 94 94 80 84 85 69 78 75 86 88 87 72 69 87 69 66 77 82 80 75
89 94 95 96 94 96 95 93 92 92 91 91 90 85 80 100 100 90 42 42 43 58 83 87 74 72 73 67 67 67 66 76 81 87 92 88 90 87 93 89 95 84 80 81 69 63 61 67 67 82 90 85 80 82
93 91 90 89 91 93 97 95 90 87 86 76 78 78 76 100 97 49 65 50 46 39 85 87 78 75 69 70 74 82 83 89 89 85 92 92 82 83 92 92 64 78 73 60 61 68 79 81 87 85 82 85 84 84
91 96 96 91 92 92 91 92 87 89 85 72 77 77 80 100 80 66 70 60 41 35 85 95 96 77 73 74 85 86 84 92 88 94 94 87 87 89 97 94 58 75 71 88 85 86 85 84 80 81 89 84 79 84
96 90 88 89 94 97 94 88 80 88 86 77 80 71 79 100 75 73 66 54 46 50 77 93 98 93 72 86 86 92 86 88 95 96 97 87 93 92 99 80 68 77 89 90 85 84 84 83 78 86 86 90 94 90
90 96 99 96 99 100 96 90 88 89 85 81 90 74 97 97 96 82 49 44 41 48 80 88 84 90 82 95 94 91 87 96 90 91 91 87 90 97 74 74 82 82 89 86 82 72 87 75 79 88 82 95 95 92
97 99 100 100 99 100 100 89 89 89 86 87 93 97 100 98 80 68 61 71 76 86 83 87 88 97 90 94 98 93 94 98 98 83 92 98 94 72 71 72 73 74 84 87 94 91 82 73 77 79 94 91 95 95
84 84 94 97 98 94 98 88 93 88 89 99 100 100 99 86 80 95 99 96 85 78 77 88 88 97 90 90 96 87 97 94 95 88 96 97 97 90 79 76 79 86 87 89 83 83 84 86 86 80 95 96 98 99
87 82 81 91 100 97 99 94 90 91 87 92 98 98 100 94 100 98 97 91 82 81 94 93 95 92 94 87 94 97 94 94 89 89 88 96 89 85 88 82 88 90 89 90 87 77 91 92 95 96 98 98 99 99
82 82 90 96 97 100 96 94 89 87 91 92 93 100 98 99 98 96 97 93 91 97 97 98 98 94 96 94 97 93 96 94 90 90 89 88 79 86 97 93 94 91 93 93 84 82 90 99 99 99 98 99 99 99
97 97 99 99 97 98 93 91 90 88 89 99 98 98 93 100 93 89 83 83 85 93 90 83 97 92 88 91 92 92 83 81 94 98 89 89 80 90 95 94 88 96 93 92 85 88 96 98 99 97 93 77 65 65
93 94 98 97 95 92 86 98 89 95 97 97 86 94 99 90 96 99 98 93 95 75 79 90 93 85 99 97 89 87 91 94 90 87 86 88 83 92 97 92 95 83 80 95 99 98 98 98 97 84 69 61 57 48
97 93 92 87 84 88 88 100 98 97 94 91 92 98 94 97 100 99 96 95 78 71 87 84 95 93 94 91 94 100 92 91 80 91 92 91 93 93 95 84 87 80 80 79 90 89 82 70 67 82 95 94 66 54
78 90 85 100 100 100 99 93 97 99 98 94 100 93 96 96 96 97 82 85 64 67 83 90 72 70 94 100 100 87 90 83 89 93 99 88 90 94 96 87 93 87 88 79 82 92 86 91 92 89 93 91 96 99
88 89 99 100 97 96 96 99 100 98 97 99 97 100 98 97 92 91 92 71 75 91 85 76 88 99 90 85 92 88 94 98 96 97 98 92 92 95 97 94 88 88 92 85 79 80 81 86 98 97 98 100 98 86
91 98 100 97 87 93 99 99 99 96 98 98 99 99 99 98 93 89 78 89 90 86 86 94 85 88 84 86 86 96 98 94 94 98 95 90 88 92 95 99 93 86 82 82 85 88 93 94 95 95 95 96 98 97
99 99 97 91 78 98 97 98 99 93 98 98 99 98 99 99 98 84 88 88 88 92 82 83 67 66 76 82 92 90 96 97 95 99 100 98 94 92 94 98 96 94 93 97 99 98 98 99 85 80 83 89 96 90
100 100 98 87 96 97 96 98 97 98 98 97 98 98 98 99 98 94 94 94 88 91 86 84 71 81 95 97 93 92 96 92 90 89 93 100 99 94 95 96 100 99 98 100 99 88 82 81 63 64 65 67 72 74
100 98 98 99 98 98 96 98 96 98 96 98 97 98 98 98 98 98 98 94 95 91 87 79 91 98 99 98 98 93 88 85 88 91 94 96 99 99 100 100 100 100 100 94 87 72 57 54 60 64 64 54 55 54
97 96 98 100 96 94 97 98 95 97 96 97 97 97 97 97 97 97 98 95 93 93 91 91 95 94 96 96 98 95 90 88 94 93 91 90 94 96 97 100 100 100 100 94 78 72 60 61 72 68 58 57 56 56
95 98 98 97 96 98 97 97 97 97 97 96 96 96 97 97 97 97 96 93 92 93 95 95 92 95 95 90 95 96 90 83 94 94 93 94 100 99 98 96 96 94 83 74 60 66 74 72 69 63 61 60 61 65
97 97 96 96 98 94 96 97 98 96 96 96 95 97 97 96 96 98 94 89 95 96 96 94 95 94 91 99 98 94 92 82 91 97 98 85 96 98 97 94 93 89 81 78 78 74 73 72 68 64 68 73 84 91
95 96 96 94 97 91 94 97 96 96 95 96 96 96 96 95 96 93 88 91 92 95 96 94 92 93 94 94 93 96 92 83 77 93 100 97 88 85 93 94 96 90 79 74 73 72 68 66 70 75 76 81 93 96
95 96 90 80 91 92 97 94 91 95 96 95 95 96 95 96 95 85 94 93 93 94 89 85 79 85 86 93 92 94 94 88 76 79 91 91 82 72 67 71 83 78 78 66 62 63 68 76 83 89 93 92 92 98
87 85 94 96 96 97 96 97 95 96 96 94 92 94 94 93 85 97 99 96 99 97 93 86 81 74 75 84 93 95 92 80 76 73 71 71 71 70 66 65 66 65 64 68 74 79 84 91 96 98 100 100 97 91
94 88 89 96 96 95 96 96 96 96 92 95 96 96 93 93 98 98 96 98 98 95 93 90 94 82 88 90 84 77 71 66 65 71 72 88 94 80 72 67 68 73 79 82 86 93 100 98 97 99 92 90 88 86
96 96 94 96 96 95 95 94 95 95 89 92 85 87 89 94 93 94 97 98 93 93 90 81 86 78 84 83 99 92 75 65 54 51 80 82 70 67 71 76 81 83 84 87 89 90 91 86 84 83 84 85 87 92
96 94 94 94 95 95 95 94 95 94 92 88 89 91 92 95 92 84 86 90 86 82 83 82 73 67 72 81 78 83 86 66 61 56 54 57 64 72 84 88 90 90 90 92 92 89 87 89 92 93 91 92 94 97
93 95 93 95 96 95 95 95 95 95 94 89 86 89 94 93 86 94 79 80 86 82 71 68 70 66 56 52 51 49 48 55 60 60 62 71 81 88 90 91 91 92 93 93 92 92 92 92 92 94 95 96 97 98
95 95 96 95 95 95 95 95 94 94 93 89 87 88 90 88 78 87 80 74 75 71 66 56 52 55 62 58 53 54 56 58 63 70 80 91 95 95 95 95 94 94 92 93 93 90 90 92 95 95 95 95 97 97

GFSWCAN_925_rhum_108.txt.gz
RH
94 93 98 100 97 95 85 88 87 90 93 92 89 90 87 98 98 96 90 97 61 61 70 73 71 50 50 48 46 60 53 61 60 64 66 60 56 59 64 60 66 57 65 68 68 77 54 47 64 63 62 69 69 73
95 94 100 100 96 93 88 89 91 92 92 88 82 85 93 99 83 66 70 56 48 60 69 74 75 76 76 70 57 65 46 58 51 51 68 69 62 80 61 43 61 64 48 53 52 41 48 66 63 64 69 72 65 64
96 97 100 98 97 90 91 85 90 93 93 84 89 91 93 92 82 73 60 50 49 64 65 66 65 71 71 72 65 51 57 55 60 64 68 62 63 60 53 52 58 65 60 63 70 54 54 57 67 65 57 56 60 58
96 99 99 98 86 90 93 87 92 94 95 93 93 96 92 88 97 79 54 47 42 53 62 65 70 71 72 69 68 65 62 70 64 64 67 60 50 64 52 51 52 50 66 63 66 60 60 56 61 59 58 63 62 58
99 99 96 88 84 94 91 91 90 94 96 95 92 94 90 84 96 82 57 44 41 55 62 71 72 73 73 68 73 72 64 60 64 66 62 56 63 65 67 66 58 54 56 54 38 45 41 56 54 63 67 64 61 66
100 99 92 71 85 95 95 94 90 90 86 85 84 79 92 85 100 89 79 64 48 41 76 78 73 69 71 72 70 70 70 70 70 64 64 68 69 66 65 57 39 48 51 44 40 49 52 62 66 66 63 62 63 66
100 82 76 82 80 88 94 88 85 83 88 86 79 74 95 87 100 91 81 57 45 39 72 90 83 70 73 70 74 68 74 76 71 74 72 67 69 73 75 60 38 48 50 56 55 66 73 71 63 62 70 70 76 81
66 78 89 88 88 89 89 86 86 71 84 87 84 77 92 96 99 87 68 55 41 48 64 85 88 79 71 68 70 78 71 72 78 75 79 71 75 75 80 52 53 53 55 67 68 67 65 66 68 69 74 77 83 84
77 89 89 92 92 88 86 86 88 79 87 83 84 84 99 98 98 77 61 50 48 52 70 74 81 81 72 80 79 79 72 72 78 76 74 72 66 85 54 49 55 58 66 62 68 70 70 74 67 72 71 77 90 88
89 91 93 87 87 88 90 91 88 91 85 85 91 97 100 98 73 59 69 72 70 76 68 63 71 82 73 77 85 75 80 78 81 65 78 83 70 53 53 54 50 57 62 64 74 84 85 73 69 68 81 82 90 92
90 88 90 94 96 100 99 99 94 96 87 98 98 99 96 88 84 96 100 90 78 77 65 66 69 82 77 75 77 71 85 86 86 74 82 82 79 69 62 59 57 57 64 65 64 64 62 57 64 69 76 88 95 96
90 90 90 91 92 93 90 99 100 99 94 95 94 98 99 100 100 99 97 99 96 78 77 75 79 78 84 73 75 83 84 91 80 75 86 85 69 74 73 60 61 55 64 72 75 73 77 74 78 77 79 86 89 98
87 83 84 85 85 88 99 97 100 92 95 90 94 100 99 99 98 97 96 95 94 87 89 90 91 85 86 77 83 82 90 84 74 87 77 68 62 68 81 72 75 70 75 79 78 75 77 84 88 96 87 97 97 96
84 87 82 79 79 86 100 99 98 97 74 98 99 99 98 98 90 84 76 83 76 84 84 70 87 77 74 81 82 80 71 74 90 92 74 52 60 70 74 73 79 84 82 81 74 82 86 86 94 99 96 84 64 55
91 85 82 91 94 99 100 100 98 87 96 99 100 97 98 85 93 90 89 85 89 69 68 82 84 70 85 90 73 83 95 93 77 67 59 66 68 82 80 77 93 87 84 81 79 81 86 96 94 90 73 66 61 56
87 96 99 95 95 99 100 99 97 84 99 98 97 98 89 91 98 94 92 89 73 64 71 75 84 83 79 81 93 93 80 79 70 77 71 68 78 82 87 90 86 76 76 87 93 93 88 81 68 63 86 91 87 66
92 98 100 99 97 100 99 96 96 100 100 98 96 87 86 88 89 92 78 77 59 60 74 85 75 68 84 94 87 74 82 72 74 74 74 68 79 84 85 85 84 77 80 85 80 87 83 84 87 85 81 85 98 99
92 98 100 100 100 100 98 98 100 98 96 97 97 98 91 88 87 83 84 67 66 77 76 75 82 97 84 80 78 77 80 83 80 77 75 76 77 82 87 87 88 86 87 79 79 81 81 90 89 81 97 100 99 89
94 100 100 99 94 93 100 99 98 97 97 98 98 98 94 93 90 82 67 65 78 75 83 82 75 80 72 74 74 86 87 86 86 88 79 78 81 91 91 89 86 92 92 82 81 80 83 86 88 91 90 92 82 84
99 100 98 82 73 97 97 99 99 97 96 96 96 97 98 97 91 79 74 80 80 83 79 78 61 55 59 69 75 76 85 84 85 87 89 86 86 97 98 93 87 83 82 86 89 92 96 97 98 92 88 86 86 80
99 100 96 93 97 98 97 97 97 97 97 95 97 95 98 96 96 88 87 89 84 84 76 71 61 71 90 89 84 88 90 81 74 72 80 94 88 90 98 100 96 93 92 92 93 97 99 90 68 66 66 68 69 70
100 98 99 99 98 98 96 95 94 96 92 97 96 96 98 98 98 94 96 93 90 82 75 70 77 89 97 95 93 92 87 83 87 85 90 92 95 96 97 99 99 97 97 98 95 86 76 62 67 64 66 60 56 55
96 96 100 100 97 96 96 97 93 96 96 96 96 95 97 97 97 97 97 96 90 86 85 84 91 95 96 99 96 92 86 86 89 90 92 95 99 99 100 100 100 98 99 96 94 91 77 62 75 73 62 60 60 61
95 98 98 97 96 96 94 98 94 95 96 96 95 95 96 96 96 97 95 93 89 91 89 94 90 94 96 94 94 92 92 88 94 94 93 92 96 99 99 100 99 99 93 84 75 72 70 74 78 69 68 67 66 73
96 97 97 96 96 94 96 97 98 94 96 94 94 95 95 95 95 96 93 87 94 93 90 90 87 86 93 94 90 90 91 85 84 90 100 89 100 100 100 97 96 94 90 87 83 74 76 78 75 70 70 74 84 93
96 96 96 93 97 91 94 96 95 94 94 95 95 94 95 95 95 93 88 89 92 92 92 90 88 90 86 84 86 89 89 81 77 88 99 90 86 85 92 91 86 85 75 72 73 76 76 72 72 74 79 86 96 95
96 99 95 84 91 91 97 92 88 92 96 95 94 94 94 95 94 85 89 89 90 91 88 84 81 76 80 87 90 89 85 83 78 83 96 94 86 83 77 80 84 73 70 67 63 61 65 73 80 88 92 91 91 94
89 92 96 98 98 95 95 94 95 96 96 89 85 95 95 92 88 90 92 95 98 100 97 87 79 76 84 89 91 94 94 92 93 87 79 77 73 66 61 60 63 65 61 65 68 72 78 87 93 94 95 95 89 86
96 92 86 98 96 94 97 94 95 94 91 88 94 96 95 90 94 92 95 99 98 98 92 93 100 93 95 98 95 86 89 81 68 69 68 76 81 74 68 64 64 67 72 80 94 89 98 97 100 96 88 87 87 87
97 96 94 96 95 95 94 93 94 93 91 93 93 93 86 88 95 96 98 98 95 93 91 91 98 90 94 92 95 88 70 57 47 51 69 74 67 62 65 68 74 79 82 86 87 87 95 83 81 82 84 84 88 91
94 94 95 94 94 94 94 94 95 94 94 95 92 90 86 89 90 92 95 94 91 90 91 90 91 86 85 84 77 80 80 60 51 47 45 45 52 60 67 78 83 86 87 86 85 82 83 84 86 87 89 90 93 95
95 95 94 95 95 95 95 95 95 95 95 95 92 87 86 84 82 85 88 89 90 86 75 78 78 79 72 65 56 49 45 52 53 52 52 55 64 74 80 84 86 85 86 86 86 85 85 87 89 90 92 94 96 96
95 95 95 95 96 95 95 95 95 95 95 95 94 86 84 83 81 85 85 85 80 77 77 66 58 57 56 52 49 49 51 54 59 67 75 77 79 82 86 85 85 87 87 87 85 85 87 89 90 92 95 96 95 94

GFSWCAN_925_rhum_111.txt.gz
RH
94 96 94 97 98 99 98 84 89 86 85 93 93 92 80 76 93 100 98 93 74 63 56 59 54 43 41 40 38 50 48 53 48 52 52 44 39 43 49 41 50 49 56 56 47 60 51 43 58 61 56 56 56 62
95 95 97 98 99 100 98 87 84 92 85 91 87 89 78 86 97 96 94 99 82 59 60 64 65 68 66 58 45 48 45 45 38 41 55 56 47 64 48 33 46 50 35 42 41 38 43 41 49 50 53 54 57 56
95 94 98 99 99 98 99 88 83 86 84 89 90 91 88 84 95 96 78 85 71 56 60 61 58 65 70 70 68 50 40 42 48 59 58 48 57 45 39 40 40 48 41 49 55 38 42 49 54 52 56 51 51 50
97 96 99 99 98 99 100 89 85 89 89 95 96 95 94 81 100 98 68 69 56 44 61 56 66 63 71 73 72 63 52 57 52 54 62 52 46 46 39 45 42 36 50 48 46 40 50 47 46 52 54 54 53 49
99 99 99 100 100 100 96 84 82 82 87 96 96 93 89 87 89 97 81 53 55 46 58 58 63 67 69 67 68 66 56 53 55 60 60 51 46 52 47 52 43 37 38 46 29 32 36 45 46 50 54 54 52 55
99 100 99 100 99 99 94 78 83 84 86 86 86 86 85 86 85 92 84 66 46 54 68 74 63 61 64 62 59 58 56 56 57 55 48 50 56 60 58 46 28 26 28 29 32 36 39 44 50 54 55 52 52 54
99 100 100 100 100 97 78 73 86 87 88 86 83 83 82 86 87 95 88 79 65 42 59 85 76 62 63 60 59 57 62 63 60 59 63 55 60 67 73 48 23 31 34 40 36 48 58 58 54 53 55 57 62 70
99 100 100 100 99 92 64 75 85 86 87 83 83 83 81 96 91 100 88 60 62 46 52 84 82 74 62 59 62 62 63 64 67 60 67 62 62 63 70 43 33 35 38 44 46 44 47 51 55 56 61 64 77 72
100 100 100 100 98 66 71 82 87 85 83 78 80 81 98 95 99 97 83 72 52 60 71 76 84 87 66 61 63 71 63 70 66 67 63 64 57 79 51 37 36 41 47 49 51 56 59 63 58 59 62 66 76 76
100 100 100 97 68 73 85 86 86 83 82 79 91 100 100 94 94 85 91 77 86 87 76 62 56 77 60 62 68 67 65 65 80 57 66 73 64 46 38 39 36 40 44 47 62 71 68 71 64 60 63 67 72 79
100 100 88 70 80 88 89 88 86 82 88 98 98 100 95 90 88 96 100 99 97 100 69 53 52 76 66 70 73 61 80 75 84 71 70 74 70 61 47 46 42 40 46 49 48 51 57 56 56 58 66 70 84 85
98 79 74 87 89 90 87 85 87 97 99 96 97 100 99 100 100 100 99 99 99 83 60 63 70 67 74 62 68 73 81 84 76 66 76 79 69 81 62 48 46 45 49 51 56 56 54 52 54 60 69 75 81 86
75 86 89 90 89 91 89 90 91 96 100 93 95 100 100 98 99 99 95 99 94 75 76 81 83 78 78 71 74 75 85 80 64 81 74 66 62 67 78 54 48 48 54 60 63 63 65 66 75 78 78 86 89 87
92 92 90 88 90 93 92 93 98 100 96 99 100 99 95 96 91 94 70 71 74 79 77 61 79 76 68 78 73 80 64 70 83 85 73 44 51 55 65 61 53 56 62 68 70 69 71 82 86 92 88 85 80 62
85 86 90 89 87 90 90 91 97 99 97 100 100 96 98 82 92 90 94 80 74 65 63 69 76 65 81 85 67 79 87 89 71 67 57 65 59 65 66 65 80 72 71 72 67 71 78 75 87 89 83 66 56 52
89 90 93 85 83 84 85 93 100 98 100 100 100 98 90 95 96 92 90 88 72 60 60 79 85 85 79 80 84 86 76 78 75 81 73 61 67 64 68 80 84 75 74 77 75 76 80 80 84 76 66 75 80 65
92 96 85 86 86 86 88 99 100 100 100 99 98 88 88 90 84 84 69 69 56 59 63 91 87 73 74 82 79 65 80 77 87 78 70 63 72 71 74 83 79 74 80 89 89 88 84 77 68 70 69 70 83 95
91 76 92 99 100 100 98 100 100 100 97 97 88 91 91 86 79 77 69 65 67 60 81 92 76 89 83 83 76 76 80 86 77 72 69 71 73 78 81 83 82 79 86 84 88 86 84 86 86 77 84 99 96 88
80 91 96 100 92 94 100 100 100 92 96 91 97 98 90 83 79 64 68 61 78 78 86 87 86 83 70 72 84 94 86 76 69 71 65 64 72 78 81 89 90 88 88 83 82 77 76 80 78 80 84 87 76 70
89 100 100 92 71 96 98 98 98 90 89 95 97 98 99 92 79 75 70 72 82 93 90 86 60 49 48 65 73 72 74 71 74 76 79 75 81 94 90 86 81 85 83 79 82 81 84 89 95 92 87 79 71 65
98 100 99 95 98 99 95 95 96 90 93 92 96 97 98 99 95 96 93 89 92 95 84 60 54 61 81 77 68 73 76 67 61 58 72 88 88 91 91 86 84 80 78 81 86 89 91 94 73 69 77 76 73 70
100 97 98 94 98 94 94 92 92 96 91 94 97 99 98 97 94 93 97 97 95 71 70 62 70 81 88 83 88 83 80 82 78 74 74 83 91 96 96 95 92 91 89 91 94 93 89 78 74 66 65 70 62 62
99 97 99 100 94 88 97 98 94 97 95 96 98 97 97 97 97 98 92 94 92 84 83 81 89 92 90 94 90 88 85 83 81 80 79 80 86 91 97 99 98 95 95 98 96 89 87 64 74 71 68 66 64 65
96 100 99 95 93 95 95 96 96 97 97 97 96 95 96 95 97 98 96 96 93 88 85 94 90 96 95 92 88 87 87 84 88 90 93 95 96 98 98 99 100 100 97 94 94 85 76 78 83 75 69 70 72 74
98 98 97 95 95 96 96 96 94 88 94 92 94 95 95 96 96 95 92 91 95 93 91 90 88 84 90 91 90 88 89 81 83 90 93 89 98 98 98 96 97 98 92 83 83 83 85 79 75 75 72 74 83 90
96 96 95 94 93 89 90 95 94 92 90 96 93 92 94 93 95 92 88 87 90 87 89 90 90 92 88 84 89 89 87 81 78 83 96 92 88 90 94 92 91 89 88 88 83 81 80 79 76 74 80 84 91 88
94 94 90 83 80 83 89 84 81 86 95 95 93 95 92 95 94 86 83 85 86 92 84 82 79 81 88 90 92 89 85 80 77 83 89 87 84 82 81 86 85 75 71 69 67 67 69 73 79 85 88 90 92 90
92 91 97 93 90 86 94 91 95 95 93 84 85 94 93 92 89 89 90 90 97 100 99 93 87 87 87 91 92 91 93 90 91 88 85 81 78 75 70 67 63 64 60 58 58 62 68 76 84 86 89 90 88 86
90 86 82 99 97 93 94 92 92 92 86 82 91 96 95 85 90 88 88 97 100 97 93 94 98 96 96 97 95 87 95 92 82 82 78 80 81 82 77 68 61 63 69 72 82 79 84 85 89 85 81 81 82 84
96 89 91 96 95 96 92 91 91 90 88 90 87 90 86 84 91 97 98 96 92 93 92 93 97 89 93 91 98 98 90 76 67 64 69 71 70 62 65 65 66 70 73 76 82 99 100 88 83 80 81 84 90 91
89 89 93 89 93 92 91 90 90 89 91 92 94 94 93 90 88 96 98 98 98 98 94 94 96 95 89 90 86 84 81 57 45 41 38 38 48 57 63 66 70 72 76 78 81 82 83 80 82 84 86 88 92 91
92 92 90 93 94 94 93 94 94 94 94 93 93 93 93 93 92 88 94 98 95 94 92 91 89 90 83 78 68 54 43 44 47 48 45 48 55 60 66 70 74 75 78 79 78 79 79 81 84 87 88 89 92 94
93 92 92 93 94 94 94 94 93 94 94 94 94 94 93 81 85 84 91 91 90 83 87 85 81 78 70 56 47 48 45 48 51 51 50 53 56 63 69 74 77 79 78 79 79 80 82 84 86 88 90 92 94 95

GFSWCAN_925_rhum_114.txt.gz
RH
92 93 93 96 96 95 99 90 95 82 76 85 85 85 85 76 83 89 91 78 84 71 64 56 51 51 47 49 51 55 60 63 59 66 80 76 55 58 56 44 53 66 83 85 63 72 74 56 63 74 67 58 64 67
92 94 94 95 98 98 98 95 92 87 68 82 88 84 87 82 87 97 97 98 86 88 73 62 60 62 60 59 64 55 56 50 55 61 82 84 77 85 58 65 44 64 47 63 54 62 45 57 56 60 57 59 62 60
93 95 96 96 97 99 99 98 95 90 69 78 85 84 86 84 90 95 83 97 100 78 72 68 66 63 61 63 63 71 54 51 54 72 93 73 70 73 73 75 43 50 43 59 55 44 53 51 54 52 59 54 56 52
94 93 98 99 98 99 100 98 96 88 76 74 95 90 89 87 90 100 84 96 75 62 91 74 62 63 65 66 67 63 58 56 56 68 92 90 74 54 64 53 57 47 56 60 57 46 50 53 52 60 60 58 56 53
95 94 97 99 99 99 100 99 97 89 71 78 95 91 89 84 86 97 84 78 73 69 86 72 61 62 65 67 70 69 62 61 72 85 90 86 60 61 58 65 69 54 59 64 61 44 52 52 54 54 61 61 54 55
97 96 98 100 100 100 100 99 96 86 61 77 81 85 86 85 89 95 93 80 64 56 86 95 68 63 63 62 61 64 63 64 73 80 76 64 62 78 88 82 43 36 34 32 40 42 50 56 60 55 59 56 54 55
100 99 99 100 100 100 100 100 98 66 67 80 83 83 85 83 90 98 92 90 79 46 73 92 92 68 60 61 64 70 65 79 80 82 85 71 76 86 96 89 37 36 36 45 48 59 64 62 70 62 56 57 61 71
100 99 99 100 100 100 100 99 95 58 77 87 85 83 84 88 94 90 82 92 73 51 62 95 95 84 66 79 81 70 83 82 85 83 79 76 80 83 92 67 44 36 41 50 49 50 53 62 61 62 61 67 78 72
100 100 99 100 100 100 100 100 76 70 81 84 81 83 96 95 99 94 88 86 68 74 95 92 94 94 75 73 80 82 78 96 82 91 81 78 82 90 62 57 48 45 51 52 52 62 64 69 68 68 70 78 78 70
100 100 100 100 100 100 100 97 75 82 84 79 88 98 100 95 82 85 85 91 94 95 96 93 80 94 79 80 90 84 83 92 96 83 82 91 86 56 55 54 46 44 50 53 65 78 77 79 74 70 72 72 71 74
100 100 100 100 100 100 100 84 80 86 86 91 98 98 94 95 81 97 99 99 98 99 98 82 73 91 75 88 93 80 96 95 98 89 90 94 92 78 56 50 50 47 49 54 58 62 67 72 71 68 75 72 80 82
100 100 100 100 100 100 96 83 86 96 89 85 95 99 98 100 96 97 96 98 98 92 96 80 80 90 87 78 86 82 94 95 94 83 92 96 84 86 64 57 52 49 56 58 59 63 67 62 60 66 74 74 78 82
100 100 100 100 100 98 89 90 92 92 88 89 93 100 100 99 98 98 93 93 95 90 89 87 91 92 87 93 90 86 97 94 81 94 92 82 78 79 86 63 56 55 60 67 67 63 59 69 66 70 71 74 80 82
100 100 100 100 99 90 93 92 96 99 95 99 99 98 98 98 94 90 86 84 91 85 84 72 93 89 85 92 86 94 80 87 97 99 87 72 64 74 81 66 59 65 72 73 76 76 79 80 79 80 81 77 81 87
100 100 100 99 93 95 92 86 90 98 98 99 99 96 96 86 96 98 100 94 89 73 70 82 92 82 94 92 87 89 92 95 84 80 74 81 72 75 75 62 72 73 77 80 79 82 89 87 94 95 90 82 68 53
100 100 100 98 96 92 86 88 99 98 100 100 99 99 90 78 94 98 98 98 86 69 67 85 86 94 90 90 96 92 88 86 76 84 92 80 78 75 74 75 74 76 82 83 82 83 83 80 79 81 76 67 65 57
99 96 95 90 90 89 89 99 98 100 98 99 99 94 85 88 80 94 91 89 65 68 81 95 90 84 90 97 98 84 90 81 89 95 88 78 78 77 86 85 84 84 87 85 80 79 78 79 82 68 76 71 77 87
97 92 81 82 90 98 99 100 100 99 99 99 93 95 94 94 89 89 82 74 71 83 90 90 89 89 87 86 92 89 84 94 94 89 86 84 81 85 86 89 87 89 92 91 87 85 85 78 81 82 77 90 98 93
94 91 81 83 97 97 100 99 100 98 98 98 98 88 92 95 90 79 77 74 75 88 93 95 97 93 86 89 84 86 90 84 81 80 81 83 83 88 88 88 91 93 94 94 92 91 88 85 84 82 87 88 89 75
88 79 85 97 88 98 99 99 100 98 98 98 96 95 95 97 93 86 80 81 94 99 99 96 86 84 70 76 93 92 88 74 72 79 88 88 88 92 90 89 90 91 89 83 78 77 86 89 87 85 84 81 77 68
89 98 100 92 98 99 100 99 99 99 98 98 86 94 95 97 95 98 97 95 97 98 97 96 72 64 83 89 76 78 79 66 65 70 79 96 94 92 92 92 90 87 87 84 84 83 86 91 87 81 81 81 74 72
100 96 98 95 99 99 98 97 95 91 88 95 97 97 98 98 99 97 96 98 94 86 95 72 87 92 96 87 90 86 78 74 68 70 79 87 96 93 94 91 88 90 88 85 86 88 92 97 90 68 73 74 71 63
98 95 99 100 97 93 98 98 96 94 94 95 98 98 99 99 99 95 96 95 95 96 92 95 97 96 96 96 92 90 84 82 81 86 89 92 92 92 89 89 88 90 96 94 96 96 88 78 78 70 72 70 63 64
94 99 99 98 94 97 98 98 98 97 98 98 98 98 99 98 98 99 97 98 96 95 95 97 96 98 99 98 98 98 93 86 91 92 92 93 97 98 98 98 96 95 95 99 95 88 76 74 82 74 69 69 68 71
98 98 98 97 97 95 97 98 98 97 97 97 97 98 99 97 97 97 97 96 98 91 89 94 98 97 96 98 98 96 87 88 91 97 97 93 98 99 100 100 100 97 96 94 90 82 83 82 74 70 69 70 77 89
97 97 97 94 98 90 94 97 97 96 96 96 96 97 97 96 97 96 94 92 89 89 92 91 91 95 96 92 92 96 90 85 88 94 99 97 94 94 97 98 99 99 91 87 82 85 82 76 72 71 77 86 89 79
96 96 96 92 86 89 98 96 86 94 96 95 96 98 97 96 96 92 96 95 97 98 89 82 82 84 88 94 96 88 88 83 85 94 97 92 90 89 90 92 93 88 90 88 80 77 74 71 72 77 83 85 83 80
95 91 97 97 97 96 94 96 96 96 94 92 88 100 96 90 91 99 98 94 95 97 99 99 100 95 90 91 97 96 99 99 95 94 93 90 88 84 79 74 71 75 71 68 63 60 59 63 72 78 80 83 82 83
96 92 89 99 98 97 97 96 96 98 93 92 95 99 99 93 98 98 96 96 95 96 96 95 96 98 100 99 99 98 98 91 87 90 89 92 92 95 86 76 68 61 60 64 67 63 66 69 74 73 75 78 82 82
98 97 96 96 96 96 97 96 97 97 94 97 94 97 94 96 96 95 96 96 97 96 97 96 96 92 95 93 98 99 94 83 74 73 80 81 78 84 77 67 66 68 68 72 91 97 100 93 90 81 81 85 84 86
97 95 94 95 99 98 95 96 97 96 97 98 98 97 98 98 98 95 96 96 98 97 95 95 96 96 93 93 91 92 92 73 62 59 58 54 58 64 64 68 69 70 69 80 85 79 83 79 78 82 84 90 98 90
97 96 94 98 100 97 97 97 96 96 96 97 98 96 96 97 96 98 95 96 97 95 94 95 94 95 97 95 87 81 72 58 50 50 46 46 52 59 63 67 69 68 71 75 75 75 75 77 82 84 88 91 91 91
97 97 97 96 99 97 97 95 96 96 97 97 98 98 96 96 96 94 95 96 96 96 96 97 96 96 97 95 73 57 49 42 46 47 42 43 50 58 64 66 68 68 69 72 75 76 78 79 82 87 90 89 90 91

GFSWCAN_925_rhum_117.txt.gz
RH
97 96 93 92 90 94 94 89 97 94 86 72 60 81 76 74 74 73 76 78 76 80 80 58 56 60 59 55 61 58 61 64 68 70 87 87 62 63 57 54 62 68 86 88 79 80 59 65 70 65 58 74 78 83
98 95 92 92 90 94 97 90 96 93 92 79 62 77 82 78 80 91 98 92 88 86 86 64 55 54 58 61 70 63 61 63 67 74 88 93 79 92 64 64 48 58 56 62 62 58 43 67 54 62 62 66 67 74
97 95 90 94 92 93 96 95 95 96 90 84 65 73 80 80 86 95 88 99 99 91 78 76 76 61 58 58 60 71 68 61 61 82 92 79 70 84 77 81 55 53 52 57 51 37 54 62 60 65 64 63 60 59
98 96 90 95 96 93 96 98 97 98 92 84 71 80 83 82 85 97 95 95 90 74 94 81 63 63 59 61 60 63 65 59 64 81 93 94 73 65 69 53 61 53 56 59 68 58 50 53 66 69 66 64 62 58
98 97 92 95 99 95 98 100 100 99 94 83 78 85 86 84 81 99 87 80 87 72 91 81 65 62 62 64 67 68 67 70 80 86 93 89 77 68 71 71 79 60 62 60 52 51 47 52 57 69 70 69 66 63
100 100 95 94 100 97 98 100 100 100 95 80 72 83 86 86 85 95 98 83 81 83 91 84 68 71 65 65 69 74 73 76 82 87 87 82 69 77 92 90 59 52 52 50 42 46 51 62 64 62 68 68 62 63
100 100 100 95 98 99 99 100 100 100 96 73 73 80 84 86 88 97 94 90 87 78 77 87 90 74 65 65 73 78 68 83 85 89 92 82 79 85 97 91 46 48 40 42 46 61 62 64 68 66 62 61 60 66
100 100 100 99 100 100 100 100 100 100 97 68 78 81 82 87 91 88 82 86 85 60 68 92 95 86 69 88 89 85 88 89 89 86 86 83 83 87 92 72 52 36 42 50 62 50 52 66 74 67 65 75 85 84
100 100 100 100 100 100 100 100 100 100 87 81 83 84 96 94 98 85 80 87 86 75 99 99 96 85 82 84 89 88 89 99 84 88 88 84 88 92 64 54 52 55 51 54 63 68 71 70 73 74 78 86 87 82
100 100 100 100 100 100 100 100 100 98 82 85 95 100 100 92 80 84 84 91 97 98 100 99 89 96 86 88 95 91 90 95 99 86 84 92 88 60 58 53 43 50 46 56 72 82 80 80 76 77 79 84 84 76
100 100 100 100 100 100 100 100 100 86 90 98 99 100 98 90 82 95 100 99 98 99 98 91 80 92 84 91 93 88 95 96 98 80 89 94 95 80 58 53 47 51 49 51 49 53 63 68 70 74 80 84 78 73
100 100 100 100 100 100 100 100 92 97 96 92 96 98 99 99 99 98 96 97 99 91 98 96 83 86 86 85 89 90 92 95 97 86 95 95 76 75 69 58 62 53 52 55 66 66 72 73 67 70 82 84 78 74
100 100 100 100 100 100 100 98 99 98 94 93 95 100 99 99 98 99 97 98 99 97 98 93 92 88 90 93 90 91 96 96 85 99 92 82 65 68 84 68 60 57 58 63 72 70 70 73 66 73 81 74 74 75
100 100 100 100 100 100 100 100 100 98 87 100 99 98 98 98 90 87 87 89 84 91 89 76 96 85 87 94 87 90 80 88 100 100 93 72 55 47 74 70 65 70 69 70 76 75 80 78 81 74 72 72 73 76
100 100 100 100 100 100 100 100 99 94 97 99 100 97 97 88 97 91 93 93 94 77 76 86 93 82 97 88 92 91 98 95 83 78 74 54 54 68 77 70 76 77 76 76 79 83 86 85 85 85 78 77 77 83
100 100 100 100 100 100 100 100 100 98 100 100 100 99 94 90 100 100 98 95 91 72 79 84 90 94 90 92 99 96 91 90 78 86 84 76 70 75 78 74 78 78 79 84 83 86 88 89 92 92 90 83 78 64
100 98 100 100 100 100 100 97 98 100 99 99 99 94 94 88 84 96 92 88 72 73 87 93 90 89 89 99 100 88 92 82 79 89 89 75 73 76 79 85 85 86 86 86 88 89 90 85 78 80 86 76 71 64
97 100 100 100 100 100 99 100 100 99 98 97 98 98 89 90 85 87 90 85 84 89 91 88 87 98 96 90 92 88 89 86 93 90 88 79 77 78 77 84 89 86 87 86 88 88 85 84 83 82 77 74 82 94
100 100 100 100 99 98 100 99 100 98 96 99 98 88 91 94 89 79 79 76 85 87 89 95 88 97 95 90 88 86 84 80 58 84 84 77 76 85 87 90 90 90 90 87 84 84 83 83 85 77 79 88 93 90
98 100 100 100 97 100 99 99 100 98 99 98 97 91 94 95 95 93 91 84 92 97 100 100 95 92 91 80 91 90 90 83 81 86 93 88 84 91 92 91 91 94 97 95 93 93 91 91 88 87 88 90 90 78
99 100 100 100 100 100 99 98 99 99 98 99 97 92 99 98 98 96 96 93 94 98 92 91 71 71 74 88 79 78 80 77 71 66 82 96 93 87 93 94 95 93 93 94 94 96 94 94 90 87 85 82 74 66
97 100 99 100 99 99 98 99 95 98 97 98 96 95 98 98 98 94 94 97 98 89 87 76 76 69 84 80 80 87 84 76 69 74 80 84 95 96 96 94 91 92 90 89 87 88 94 88 81 80 81 80 72 66
98 96 99 100 98 97 97 99 96 98 97 98 97 97 97 99 97 95 98 97 93 92 82 90 91 92 82 93 92 91 87 85 87 93 91 89 86 87 92 90 87 90 93 92 88 91 95 99 87 72 76 72 63 68
93 100 99 98 95 97 97 97 97 98 98 97 97 97 98 97 98 99 98 98 84 96 92 90 92 99 100 99 98 97 95 85 94 96 93 92 95 94 89 89 89 88 88 96 97 98 95 87 83 74 70 66 66 69
98 98 97 97 98 95 96 96 96 97 99 98 100 100 99 98 98 98 97 92 83 85 84 88 88 81 85 90 96 98 95 92 94 97 97 89 95 98 99 100 99 96 94 100 96 86 84 82 73 72 69 68 77 85
95 97 95 95 96 90 96 100 100 99 99 100 98 98 99 98 100 95 93 90 85 86 86 90 90 91 92 86 94 97 96 97 94 95 100 98 92 92 96 97 98 100 100 91 89 90 89 80 74 72 76 90 92 78
95 96 97 92 91 93 98 94 93 95 99 96 98 99 96 96 94 86 96 96 98 98 97 80 82 84 89 98 96 98 99 99 91 96 100 97 94 95 95 95 96 92 95 93 90 82 80 77 74 78 86 82 75 72
96 93 96 98 98 96 96 97 98 94 93 94 90 100 95 90 86 96 95 94 95 96 100 96 97 100 98 98 97 97 97 98 100 100 100 100 99 96 92 89 85 91 94 92 85 77 73 68 68 72 74 76 79 81
98 95 89 100 99 97 96 93 95 99 95 93 92 95 91 95 97 98 96 95 95 96 97 96 96 98 97 97 97 97 98 96 94 97 96 98 96 99 98 94 97 93 87 81 73 64 56 57 63 65 69 73 80 83
100 96 96 99 95 100 97 97 100 99 98 97 95 97 95 97 95 92 95 95 95 96 97 96 96 94 94 94 95 96 97 96 84 77 86 92 88 98 96 88 78 71 64 62 76 93 96 88 89 77 78 82 82 86
97 94 95 96 100 98 99 99 99 98 98 99 99 96 96 96 95 94 96 97 99 96 96 96 97 96 94 94 92 94 95 82 76 72 72 78 87 89 82 71 65 64 70 85 92 91 94 80 77 81 83 86 91 89
96 95 95 97 99 97 97 98 98 98 98 96 95 95 98 100 98 97 94 97 98 96 94 96 96 96 97 95 96 83 77 74 78 82 74 75 73 70 62 63 65 68 75 81 74 76 72 74 80 82 85 89 92 92
96 96 96 96 96 96 97 96 96 98 96 95 96 96 95 98 95 97 94 97 96 97 97 97 97 97 97 97 89 85 81 96 89 76 68 57 48 54 62 66 68 73 69 68 71 73 74 76 81 85 87 88 90 90